<?xml version="1.0" encoding="UTF-8" standalone="no" ?>
<gpx xmlns="http://www.topografix.com/GPX/1/1" xmlns:xsi="http://www.w3.org/2001/XMLSchema-instance" xsi:schemaLocation="http://www.topografix.com/GPX/1/1 http://www.topografix.com/GPX/1/1/gpx.xsd" version="1.1" creator="VisuGPX - https://www.visugpx.com">
  <metadata>
    <name>Bois d'Amont-lac de Bellefontaine</name>
    <desc><![CDATA[Boucle Bois d'Amont, chalet Gaillard, lac de Bellefontaine et retour par le plan des Buchaillers.]]></desc>
  </metadata>
  <trk>
    <name><![CDATA[2024-02-03 09:32]]></name>
    <desc><![CDATA[<p>Heure de départ: 09:32 3 févr. 2024<br/>Heure d'arrivée: 17:16 3 févr. 2024<br/>Distance: 20,5 km (07:43)<br/>Temps déplacement: 05:21<br/>Vitesse moyenne: 2,66 km/h<br/>Vitesse moyenne mouv.: 3,82 km/h<br/>Vitesse Max.: 7,48 km/h<br/>Altitude minimale: 1081 m<br/>Altitude maximale: 1491 m<br/>Vitesse de montée: 1296,6 m/h<br/>Vitesse de descente: -899,7 m/h<br/>Gain d'altitude: 4023 m<br/>Perte d'altitude: -4111 m<br/>Temps de montée: 03:06<br/>Temps de descente: 04:34<br/></p><hr align="center" width="480" style="height: 2px; width: 517px"/>]]></desc>
    <trkseg>
      <trkpt lat="46.54794" lon="6.14532">
        <ele>1078.8</ele>
        <time>2024-02-03T08:32:45Z</time>
      </trkpt>
      <trkpt lat="46.54791" lon="6.1452">
        <ele>1079.2</ele>
        <time>2024-02-03T08:35:21Z</time>
      </trkpt>
      <trkpt lat="46.54786" lon="6.14508">
        <ele>1079.3</ele>
        <time>2024-02-03T08:35:30Z</time>
      </trkpt>
      <trkpt lat="46.54781" lon="6.14497">
        <ele>1079.7</ele>
        <time>2024-02-03T08:35:39Z</time>
      </trkpt>
      <trkpt lat="46.54773" lon="6.1449">
        <ele>1080</ele>
        <time>2024-02-03T08:35:47Z</time>
      </trkpt>
      <trkpt lat="46.54782" lon="6.14494">
        <ele>1080.2</ele>
        <time>2024-02-03T08:35:56Z</time>
      </trkpt>
      <trkpt lat="46.54789" lon="6.14503">
        <ele>1079.7</ele>
        <time>2024-02-03T08:36:00Z</time>
      </trkpt>
      <trkpt lat="46.54798" lon="6.1451">
        <ele>1080.1</ele>
        <time>2024-02-03T08:36:05Z</time>
      </trkpt>
      <trkpt lat="46.54808" lon="6.14515">
        <ele>1080.6</ele>
        <time>2024-02-03T08:36:11Z</time>
      </trkpt>
      <trkpt lat="46.54817" lon="6.14519">
        <ele>1080.7</ele>
        <time>2024-02-03T08:36:20Z</time>
      </trkpt>
      <trkpt lat="46.54826" lon="6.14524">
        <ele>1080.5</ele>
        <time>2024-02-03T08:36:29Z</time>
      </trkpt>
      <trkpt lat="46.54835" lon="6.14528">
        <ele>1080</ele>
        <time>2024-02-03T08:36:39Z</time>
      </trkpt>
      <trkpt lat="46.54843" lon="6.14533">
        <ele>1079.9</ele>
        <time>2024-02-03T08:36:47Z</time>
      </trkpt>
      <trkpt lat="46.54853" lon="6.14532">
        <ele>1080.2</ele>
        <time>2024-02-03T08:36:56Z</time>
      </trkpt>
      <trkpt lat="46.5485" lon="6.14519">
        <ele>1082.1</ele>
        <time>2024-02-03T08:37:09Z</time>
      </trkpt>
      <trkpt lat="46.54842" lon="6.14511">
        <ele>1082.9</ele>
        <time>2024-02-03T08:37:19Z</time>
      </trkpt>
      <trkpt lat="46.54834" lon="6.14503">
        <ele>1083.6</ele>
        <time>2024-02-03T08:37:28Z</time>
      </trkpt>
      <trkpt lat="46.54826" lon="6.14497">
        <ele>1083.7</ele>
        <time>2024-02-03T08:37:36Z</time>
      </trkpt>
      <trkpt lat="46.54818" lon="6.14493">
        <ele>1083.7</ele>
        <time>2024-02-03T08:37:44Z</time>
      </trkpt>
      <trkpt lat="46.5481" lon="6.14487">
        <ele>1084.3</ele>
        <time>2024-02-03T08:37:52Z</time>
      </trkpt>
      <trkpt lat="46.54803" lon="6.14477">
        <ele>1085.6</ele>
        <time>2024-02-03T08:38:03Z</time>
      </trkpt>
      <trkpt lat="46.54797" lon="6.14466">
        <ele>1086.4</ele>
        <time>2024-02-03T08:38:12Z</time>
      </trkpt>
      <trkpt lat="46.5479" lon="6.14457">
        <ele>1086.6</ele>
        <time>2024-02-03T08:38:21Z</time>
      </trkpt>
      <trkpt lat="46.54785" lon="6.14445">
        <ele>1087.4</ele>
        <time>2024-02-03T08:38:29Z</time>
      </trkpt>
      <trkpt lat="46.54779" lon="6.14434">
        <ele>1087.8</ele>
        <time>2024-02-03T08:38:38Z</time>
      </trkpt>
      <trkpt lat="46.54773" lon="6.14423">
        <ele>1087.7</ele>
        <time>2024-02-03T08:38:46Z</time>
      </trkpt>
      <trkpt lat="46.54768" lon="6.14412">
        <ele>1087.8</ele>
        <time>2024-02-03T08:38:55Z</time>
      </trkpt>
      <trkpt lat="46.54763" lon="6.144">
        <ele>1088.9</ele>
        <time>2024-02-03T08:39:04Z</time>
      </trkpt>
      <trkpt lat="46.54756" lon="6.1439">
        <ele>1090</ele>
        <time>2024-02-03T08:39:13Z</time>
      </trkpt>
      <trkpt lat="46.54749" lon="6.14379">
        <ele>1090.3</ele>
        <time>2024-02-03T08:39:23Z</time>
      </trkpt>
      <trkpt lat="46.54742" lon="6.14372">
        <ele>1089.9</ele>
        <time>2024-02-03T08:39:32Z</time>
      </trkpt>
      <trkpt lat="46.54734" lon="6.14365">
        <ele>1090.3</ele>
        <time>2024-02-03T08:39:41Z</time>
      </trkpt>
      <trkpt lat="46.54726" lon="6.14357">
        <ele>1091.8</ele>
        <time>2024-02-03T08:39:51Z</time>
      </trkpt>
      <trkpt lat="46.54719" lon="6.14348">
        <ele>1093.7</ele>
        <time>2024-02-03T08:40:01Z</time>
      </trkpt>
      <trkpt lat="46.5471" lon="6.14344">
        <ele>1093.7</ele>
        <time>2024-02-03T08:40:10Z</time>
      </trkpt>
      <trkpt lat="46.54702" lon="6.14336">
        <ele>1094.4</ele>
        <time>2024-02-03T08:40:19Z</time>
      </trkpt>
      <trkpt lat="46.54694" lon="6.14327">
        <ele>1094.9</ele>
        <time>2024-02-03T08:40:27Z</time>
      </trkpt>
      <trkpt lat="46.54686" lon="6.1432">
        <ele>1095.4</ele>
        <time>2024-02-03T08:40:34Z</time>
      </trkpt>
      <trkpt lat="46.54679" lon="6.14311">
        <ele>1096.1</ele>
        <time>2024-02-03T08:40:43Z</time>
      </trkpt>
      <trkpt lat="46.54672" lon="6.14302">
        <ele>1096.6</ele>
        <time>2024-02-03T08:40:51Z</time>
      </trkpt>
      <trkpt lat="46.54665" lon="6.14292">
        <ele>1096.8</ele>
        <time>2024-02-03T08:41:00Z</time>
      </trkpt>
      <trkpt lat="46.5466" lon="6.14282">
        <ele>1096.9</ele>
        <time>2024-02-03T08:41:09Z</time>
      </trkpt>
      <trkpt lat="46.54665" lon="6.14271">
        <ele>1098.3</ele>
        <time>2024-02-03T08:41:41Z</time>
      </trkpt>
      <trkpt lat="46.54673" lon="6.14262">
        <ele>1099.8</ele>
        <time>2024-02-03T08:41:57Z</time>
      </trkpt>
      <trkpt lat="46.54681" lon="6.14254">
        <ele>1101.6</ele>
        <time>2024-02-03T08:42:03Z</time>
      </trkpt>
      <trkpt lat="46.54685" lon="6.14242">
        <ele>1104</ele>
        <time>2024-02-03T08:42:11Z</time>
      </trkpt>
      <trkpt lat="46.54692" lon="6.14233">
        <ele>1106.6</ele>
        <time>2024-02-03T08:42:23Z</time>
      </trkpt>
      <trkpt lat="46.547" lon="6.14225">
        <ele>1109.3</ele>
        <time>2024-02-03T08:42:35Z</time>
      </trkpt>
      <trkpt lat="46.54707" lon="6.14217">
        <ele>1111.9</ele>
        <time>2024-02-03T08:42:45Z</time>
      </trkpt>
      <trkpt lat="46.54716" lon="6.14217">
        <ele>1113.5</ele>
        <time>2024-02-03T08:42:58Z</time>
      </trkpt>
      <trkpt lat="46.54719" lon="6.14205">
        <ele>1115.9</ele>
        <time>2024-02-03T08:43:10Z</time>
      </trkpt>
      <trkpt lat="46.54723" lon="6.14194">
        <ele>1118.6</ele>
        <time>2024-02-03T08:43:31Z</time>
      </trkpt>
      <trkpt lat="46.54733" lon="6.14195">
        <ele>1120.6</ele>
        <time>2024-02-03T08:44:04Z</time>
      </trkpt>
      <trkpt lat="46.54739" lon="6.14185">
        <ele>1125.6</ele>
        <time>2024-02-03T08:44:14Z</time>
      </trkpt>
      <trkpt lat="46.54747" lon="6.14178">
        <ele>1129.8</ele>
        <time>2024-02-03T08:44:26Z</time>
      </trkpt>
      <trkpt lat="46.54757" lon="6.1418">
        <ele>1132.1</ele>
        <time>2024-02-03T08:44:40Z</time>
      </trkpt>
      <trkpt lat="46.54762" lon="6.14192">
        <ele>1129.4</ele>
        <time>2024-02-03T08:44:47Z</time>
      </trkpt>
      <trkpt lat="46.54771" lon="6.14191">
        <ele>1132.5</ele>
        <time>2024-02-03T08:45:02Z</time>
      </trkpt>
      <trkpt lat="46.54778" lon="6.14181">
        <ele>1138.8</ele>
        <time>2024-02-03T08:45:10Z</time>
      </trkpt>
      <trkpt lat="46.54787" lon="6.14175">
        <ele>1144.1</ele>
        <time>2024-02-03T08:45:20Z</time>
      </trkpt>
      <trkpt lat="46.54789" lon="6.14188">
        <ele>1139.4</ele>
        <time>2024-02-03T08:45:25Z</time>
      </trkpt>
      <trkpt lat="46.54793" lon="6.14202">
        <ele>1135.3</ele>
        <time>2024-02-03T08:45:31Z</time>
      </trkpt>
      <trkpt lat="46.54801" lon="6.14208">
        <ele>1136</ele>
        <time>2024-02-03T08:45:39Z</time>
      </trkpt>
      <trkpt lat="46.5481" lon="6.14209">
        <ele>1138.5</ele>
        <time>2024-02-03T08:45:45Z</time>
      </trkpt>
      <trkpt lat="46.54817" lon="6.14221">
        <ele>1136.6</ele>
        <time>2024-02-03T08:45:52Z</time>
      </trkpt>
      <trkpt lat="46.54824" lon="6.1423">
        <ele>1136.3</ele>
        <time>2024-02-03T08:46:02Z</time>
      </trkpt>
      <trkpt lat="46.54831" lon="6.14239">
        <ele>1136.1</ele>
        <time>2024-02-03T08:46:11Z</time>
      </trkpt>
      <trkpt lat="46.5484" lon="6.14245">
        <ele>1137.3</ele>
        <time>2024-02-03T08:46:23Z</time>
      </trkpt>
      <trkpt lat="46.54849" lon="6.14244">
        <ele>1141.2</ele>
        <time>2024-02-03T08:46:35Z</time>
      </trkpt>
      <trkpt lat="46.54859" lon="6.14247">
        <ele>1144.3</ele>
        <time>2024-02-03T08:46:46Z</time>
      </trkpt>
      <trkpt lat="46.54869" lon="6.14245">
        <ele>1149.5</ele>
        <time>2024-02-03T08:46:55Z</time>
      </trkpt>
      <trkpt lat="46.54876" lon="6.14254">
        <ele>1149.4</ele>
        <time>2024-02-03T08:47:03Z</time>
      </trkpt>
      <trkpt lat="46.54868" lon="6.14246">
        <ele>1148.8</ele>
        <time>2024-02-03T08:47:58Z</time>
      </trkpt>
      <trkpt lat="46.54876" lon="6.14251">
        <ele>1150.7</ele>
        <time>2024-02-03T08:49:42Z</time>
      </trkpt>
      <trkpt lat="46.54885" lon="6.14255">
        <ele>1153.5</ele>
        <time>2024-02-03T08:49:54Z</time>
      </trkpt>
      <trkpt lat="46.54894" lon="6.1426">
        <ele>1155.9</ele>
        <time>2024-02-03T08:50:06Z</time>
      </trkpt>
      <trkpt lat="46.54903" lon="6.14264">
        <ele>1158.7</ele>
        <time>2024-02-03T08:50:15Z</time>
      </trkpt>
      <trkpt lat="46.54911" lon="6.1427">
        <ele>1160.5</ele>
        <time>2024-02-03T08:50:25Z</time>
      </trkpt>
      <trkpt lat="46.5492" lon="6.14275">
        <ele>1162.5</ele>
        <time>2024-02-03T08:50:38Z</time>
      </trkpt>
      <trkpt lat="46.54929" lon="6.14277">
        <ele>1166</ele>
        <time>2024-02-03T08:50:54Z</time>
      </trkpt>
      <trkpt lat="46.54937" lon="6.14283">
        <ele>1166.6</ele>
        <time>2024-02-03T08:51:15Z</time>
      </trkpt>
      <trkpt lat="46.54946" lon="6.14287">
        <ele>1168.8</ele>
        <time>2024-02-03T08:51:36Z</time>
      </trkpt>
      <trkpt lat="46.54954" lon="6.14294">
        <ele>1168.7</ele>
        <time>2024-02-03T08:51:49Z</time>
      </trkpt>
      <trkpt lat="46.54963" lon="6.14294">
        <ele>1172.1</ele>
        <time>2024-02-03T08:52:01Z</time>
      </trkpt>
      <trkpt lat="46.5497" lon="6.14301">
        <ele>1172.7</ele>
        <time>2024-02-03T08:52:12Z</time>
      </trkpt>
      <trkpt lat="46.54978" lon="6.14308">
        <ele>1174.3</ele>
        <time>2024-02-03T08:52:23Z</time>
      </trkpt>
      <trkpt lat="46.54987" lon="6.14312">
        <ele>1176.9</ele>
        <time>2024-02-03T08:52:34Z</time>
      </trkpt>
      <trkpt lat="46.54996" lon="6.14316">
        <ele>1179.8</ele>
        <time>2024-02-03T08:52:43Z</time>
      </trkpt>
      <trkpt lat="46.55004" lon="6.14323">
        <ele>1180.2</ele>
        <time>2024-02-03T08:52:52Z</time>
      </trkpt>
      <trkpt lat="46.55011" lon="6.14333">
        <ele>1178.9</ele>
        <time>2024-02-03T08:53:03Z</time>
      </trkpt>
      <trkpt lat="46.55021" lon="6.14334">
        <ele>1182.7</ele>
        <time>2024-02-03T08:53:16Z</time>
      </trkpt>
      <trkpt lat="46.55029" lon="6.14341">
        <ele>1182.4</ele>
        <time>2024-02-03T08:53:29Z</time>
      </trkpt>
      <trkpt lat="46.55038" lon="6.14343">
        <ele>1184.1</ele>
        <time>2024-02-03T08:53:40Z</time>
      </trkpt>
      <trkpt lat="46.55047" lon="6.14345">
        <ele>1185.5</ele>
        <time>2024-02-03T08:53:53Z</time>
      </trkpt>
      <trkpt lat="46.55055" lon="6.1435">
        <ele>1185.8</ele>
        <time>2024-02-03T08:54:06Z</time>
      </trkpt>
      <trkpt lat="46.55064" lon="6.14345">
        <ele>1187.6</ele>
        <time>2024-02-03T08:54:21Z</time>
      </trkpt>
      <trkpt lat="46.55072" lon="6.14338">
        <ele>1189.7</ele>
        <time>2024-02-03T08:55:46Z</time>
      </trkpt>
      <trkpt lat="46.55079" lon="6.14331">
        <ele>1191.8</ele>
        <time>2024-02-03T08:56:03Z</time>
      </trkpt>
      <trkpt lat="46.55088" lon="6.14325">
        <ele>1193.8</ele>
        <time>2024-02-03T08:56:15Z</time>
      </trkpt>
      <trkpt lat="46.55097" lon="6.14321">
        <ele>1195.8</ele>
        <time>2024-02-03T08:56:33Z</time>
      </trkpt>
      <trkpt lat="46.55106" lon="6.14321">
        <ele>1196.5</ele>
        <time>2024-02-03T08:56:46Z</time>
      </trkpt>
      <trkpt lat="46.55115" lon="6.1432">
        <ele>1197.8</ele>
        <time>2024-02-03T08:56:58Z</time>
      </trkpt>
      <trkpt lat="46.55124" lon="6.14316">
        <ele>1199.6</ele>
        <time>2024-02-03T08:57:11Z</time>
      </trkpt>
      <trkpt lat="46.55133" lon="6.14313">
        <ele>1201</ele>
        <time>2024-02-03T08:57:23Z</time>
      </trkpt>
      <trkpt lat="46.55143" lon="6.14315">
        <ele>1200.7</ele>
        <time>2024-02-03T08:57:33Z</time>
      </trkpt>
      <trkpt lat="46.55152" lon="6.14313">
        <ele>1200</ele>
        <time>2024-02-03T08:57:44Z</time>
      </trkpt>
      <trkpt lat="46.55156" lon="6.14301">
        <ele>1200.2</ele>
        <time>2024-02-03T08:57:58Z</time>
      </trkpt>
      <trkpt lat="46.55153" lon="6.14288">
        <ele>1200.3</ele>
        <time>2024-02-03T08:58:14Z</time>
      </trkpt>
      <trkpt lat="46.5515" lon="6.14276">
        <ele>1201</ele>
        <time>2024-02-03T08:58:31Z</time>
      </trkpt>
      <trkpt lat="46.55146" lon="6.14263">
        <ele>1199.9</ele>
        <time>2024-02-03T08:58:44Z</time>
      </trkpt>
      <trkpt lat="46.55142" lon="6.1425">
        <ele>1199.2</ele>
        <time>2024-02-03T08:58:55Z</time>
      </trkpt>
      <trkpt lat="46.55137" lon="6.14238">
        <ele>1199.4</ele>
        <time>2024-02-03T08:59:04Z</time>
      </trkpt>
      <trkpt lat="46.55135" lon="6.14224">
        <ele>1197.2</ele>
        <time>2024-02-03T08:59:15Z</time>
      </trkpt>
      <trkpt lat="46.55131" lon="6.14211">
        <ele>1196.6</ele>
        <time>2024-02-03T08:59:22Z</time>
      </trkpt>
      <trkpt lat="46.55126" lon="6.142">
        <ele>1196.4</ele>
        <time>2024-02-03T08:59:30Z</time>
      </trkpt>
      <trkpt lat="46.55122" lon="6.14188">
        <ele>1196.7</ele>
        <time>2024-02-03T08:59:41Z</time>
      </trkpt>
      <trkpt lat="46.55118" lon="6.14176">
        <ele>1196.2</ele>
        <time>2024-02-03T08:59:49Z</time>
      </trkpt>
      <trkpt lat="46.55116" lon="6.14163">
        <ele>1194.8</ele>
        <time>2024-02-03T08:59:59Z</time>
      </trkpt>
      <trkpt lat="46.55116" lon="6.14149">
        <ele>1194.8</ele>
        <time>2024-02-03T09:00:10Z</time>
      </trkpt>
      <trkpt lat="46.55117" lon="6.14136">
        <ele>1195.3</ele>
        <time>2024-02-03T09:00:20Z</time>
      </trkpt>
      <trkpt lat="46.55124" lon="6.14128">
        <ele>1196.4</ele>
        <time>2024-02-03T09:00:33Z</time>
      </trkpt>
      <trkpt lat="46.55131" lon="6.14119">
        <ele>1197.3</ele>
        <time>2024-02-03T09:00:49Z</time>
      </trkpt>
      <trkpt lat="46.55141" lon="6.14115">
        <ele>1197.3</ele>
        <time>2024-02-03T09:00:58Z</time>
      </trkpt>
      <trkpt lat="46.55148" lon="6.14107">
        <ele>1197.8</ele>
        <time>2024-02-03T09:01:17Z</time>
      </trkpt>
      <trkpt lat="46.55156" lon="6.14099">
        <ele>1198.7</ele>
        <time>2024-02-03T09:01:26Z</time>
      </trkpt>
      <trkpt lat="46.55164" lon="6.14093">
        <ele>1199.4</ele>
        <time>2024-02-03T09:01:37Z</time>
      </trkpt>
      <trkpt lat="46.55171" lon="6.14084">
        <ele>1202.1</ele>
        <time>2024-02-03T09:01:54Z</time>
      </trkpt>
      <trkpt lat="46.5518" lon="6.14083">
        <ele>1203</ele>
        <time>2024-02-03T09:02:05Z</time>
      </trkpt>
      <trkpt lat="46.5519" lon="6.14085">
        <ele>1203.2</ele>
        <time>2024-02-03T09:02:15Z</time>
      </trkpt>
      <trkpt lat="46.55199" lon="6.14086">
        <ele>1203.1</ele>
        <time>2024-02-03T09:02:24Z</time>
      </trkpt>
      <trkpt lat="46.55208" lon="6.14084">
        <ele>1204.4</ele>
        <time>2024-02-03T09:02:51Z</time>
      </trkpt>
      <trkpt lat="46.55216" lon="6.14074">
        <ele>1206.1</ele>
        <time>2024-02-03T09:03:05Z</time>
      </trkpt>
      <trkpt lat="46.55222" lon="6.14063">
        <ele>1207.3</ele>
        <time>2024-02-03T09:03:14Z</time>
      </trkpt>
      <trkpt lat="46.55227" lon="6.14052">
        <ele>1208.3</ele>
        <time>2024-02-03T09:03:23Z</time>
      </trkpt>
      <trkpt lat="46.5523" lon="6.14039">
        <ele>1209.9</ele>
        <time>2024-02-03T09:03:32Z</time>
      </trkpt>
      <trkpt lat="46.55236" lon="6.14029">
        <ele>1210.3</ele>
        <time>2024-02-03T09:03:42Z</time>
      </trkpt>
      <trkpt lat="46.55242" lon="6.14018">
        <ele>1209.9</ele>
        <time>2024-02-03T09:03:50Z</time>
      </trkpt>
      <trkpt lat="46.55247" lon="6.14006">
        <ele>1209.4</ele>
        <time>2024-02-03T09:03:58Z</time>
      </trkpt>
      <trkpt lat="46.55252" lon="6.13994">
        <ele>1208.8</ele>
        <time>2024-02-03T09:04:07Z</time>
      </trkpt>
      <trkpt lat="46.55257" lon="6.13983">
        <ele>1208</ele>
        <time>2024-02-03T09:04:16Z</time>
      </trkpt>
      <trkpt lat="46.55264" lon="6.13974">
        <ele>1206.9</ele>
        <time>2024-02-03T09:04:25Z</time>
      </trkpt>
      <trkpt lat="46.5527" lon="6.13964">
        <ele>1206.9</ele>
        <time>2024-02-03T09:04:33Z</time>
      </trkpt>
      <trkpt lat="46.55274" lon="6.13951">
        <ele>1207.3</ele>
        <time>2024-02-03T09:04:41Z</time>
      </trkpt>
      <trkpt lat="46.5528" lon="6.1394">
        <ele>1207.5</ele>
        <time>2024-02-03T09:04:51Z</time>
      </trkpt>
      <trkpt lat="46.55288" lon="6.13932">
        <ele>1207.8</ele>
        <time>2024-02-03T09:05:00Z</time>
      </trkpt>
      <trkpt lat="46.55297" lon="6.13929">
        <ele>1207.5</ele>
        <time>2024-02-03T09:05:09Z</time>
      </trkpt>
      <trkpt lat="46.55306" lon="6.13925">
        <ele>1207</ele>
        <time>2024-02-03T09:05:18Z</time>
      </trkpt>
      <trkpt lat="46.55315" lon="6.13919">
        <ele>1206.3</ele>
        <time>2024-02-03T09:05:27Z</time>
      </trkpt>
      <trkpt lat="46.55325" lon="6.13915">
        <ele>1205.5</ele>
        <time>2024-02-03T09:05:35Z</time>
      </trkpt>
      <trkpt lat="46.55333" lon="6.13909">
        <ele>1205.9</ele>
        <time>2024-02-03T09:05:44Z</time>
      </trkpt>
      <trkpt lat="46.55342" lon="6.13905">
        <ele>1206.8</ele>
        <time>2024-02-03T09:05:53Z</time>
      </trkpt>
      <trkpt lat="46.5535" lon="6.13899">
        <ele>1207.9</ele>
        <time>2024-02-03T09:06:05Z</time>
      </trkpt>
      <trkpt lat="46.5536" lon="6.13899">
        <ele>1207.6</ele>
        <time>2024-02-03T09:06:14Z</time>
      </trkpt>
      <trkpt lat="46.55369" lon="6.13897">
        <ele>1208.1</ele>
        <time>2024-02-03T09:06:22Z</time>
      </trkpt>
      <trkpt lat="46.55378" lon="6.13901">
        <ele>1207.9</ele>
        <time>2024-02-03T09:06:30Z</time>
      </trkpt>
      <trkpt lat="46.55387" lon="6.13905">
        <ele>1207.6</ele>
        <time>2024-02-03T09:06:37Z</time>
      </trkpt>
      <trkpt lat="46.55396" lon="6.13912">
        <ele>1206.3</ele>
        <time>2024-02-03T09:06:45Z</time>
      </trkpt>
      <trkpt lat="46.55405" lon="6.13912">
        <ele>1205.5</ele>
        <time>2024-02-03T09:06:53Z</time>
      </trkpt>
      <trkpt lat="46.55415" lon="6.13913">
        <ele>1204.8</ele>
        <time>2024-02-03T09:07:04Z</time>
      </trkpt>
      <trkpt lat="46.55424" lon="6.13909">
        <ele>1205.6</ele>
        <time>2024-02-03T09:07:15Z</time>
      </trkpt>
      <trkpt lat="46.55431" lon="6.13901">
        <ele>1206.7</ele>
        <time>2024-02-03T09:07:24Z</time>
      </trkpt>
      <trkpt lat="46.55436" lon="6.13891">
        <ele>1207.4</ele>
        <time>2024-02-03T09:07:33Z</time>
      </trkpt>
      <trkpt lat="46.55438" lon="6.13878">
        <ele>1207.4</ele>
        <time>2024-02-03T09:07:43Z</time>
      </trkpt>
      <trkpt lat="46.55441" lon="6.13865">
        <ele>1206.8</ele>
        <time>2024-02-03T09:07:51Z</time>
      </trkpt>
      <trkpt lat="46.55446" lon="6.13854">
        <ele>1205.5</ele>
        <time>2024-02-03T09:08:00Z</time>
      </trkpt>
      <trkpt lat="46.55445" lon="6.13839">
        <ele>1205.1</ele>
        <time>2024-02-03T09:08:08Z</time>
      </trkpt>
      <trkpt lat="46.55444" lon="6.13826">
        <ele>1204.5</ele>
        <time>2024-02-03T09:08:18Z</time>
      </trkpt>
      <trkpt lat="46.55443" lon="6.13812">
        <ele>1203.8</ele>
        <time>2024-02-03T09:08:27Z</time>
      </trkpt>
      <trkpt lat="46.5544" lon="6.13799">
        <ele>1203.8</ele>
        <time>2024-02-03T09:08:37Z</time>
      </trkpt>
      <trkpt lat="46.55435" lon="6.13787">
        <ele>1204.4</ele>
        <time>2024-02-03T09:08:49Z</time>
      </trkpt>
      <trkpt lat="46.55437" lon="6.13773">
        <ele>1203.3</ele>
        <time>2024-02-03T09:08:58Z</time>
      </trkpt>
      <trkpt lat="46.55438" lon="6.13759">
        <ele>1202.7</ele>
        <time>2024-02-03T09:09:06Z</time>
      </trkpt>
      <trkpt lat="46.55436" lon="6.13745">
        <ele>1202.6</ele>
        <time>2024-02-03T09:09:14Z</time>
      </trkpt>
      <trkpt lat="46.5543" lon="6.13735">
        <ele>1203.4</ele>
        <time>2024-02-03T09:09:24Z</time>
      </trkpt>
      <trkpt lat="46.55421" lon="6.13727">
        <ele>1205</ele>
        <time>2024-02-03T09:09:34Z</time>
      </trkpt>
      <trkpt lat="46.55417" lon="6.13714">
        <ele>1205.6</ele>
        <time>2024-02-03T09:09:44Z</time>
      </trkpt>
      <trkpt lat="46.55421" lon="6.13701">
        <ele>1204.4</ele>
        <time>2024-02-03T09:09:52Z</time>
      </trkpt>
      <trkpt lat="46.55426" lon="6.13688">
        <ele>1203.8</ele>
        <time>2024-02-03T09:10:01Z</time>
      </trkpt>
      <trkpt lat="46.55431" lon="6.13676">
        <ele>1204.1</ele>
        <time>2024-02-03T09:10:09Z</time>
      </trkpt>
      <trkpt lat="46.55438" lon="6.13668">
        <ele>1203.8</ele>
        <time>2024-02-03T09:10:17Z</time>
      </trkpt>
      <trkpt lat="46.55445" lon="6.13658">
        <ele>1203.3</ele>
        <time>2024-02-03T09:10:26Z</time>
      </trkpt>
      <trkpt lat="46.55448" lon="6.13645">
        <ele>1203.9</ele>
        <time>2024-02-03T09:10:37Z</time>
      </trkpt>
      <trkpt lat="46.55453" lon="6.13633">
        <ele>1204.9</ele>
        <time>2024-02-03T09:10:49Z</time>
      </trkpt>
      <trkpt lat="46.55461" lon="6.13627">
        <ele>1206.2</ele>
        <time>2024-02-03T09:10:59Z</time>
      </trkpt>
      <trkpt lat="46.55467" lon="6.13616">
        <ele>1207.8</ele>
        <time>2024-02-03T09:11:10Z</time>
      </trkpt>
      <trkpt lat="46.55475" lon="6.13609">
        <ele>1210.1</ele>
        <time>2024-02-03T09:11:22Z</time>
      </trkpt>
      <trkpt lat="46.55482" lon="6.136">
        <ele>1212.7</ele>
        <time>2024-02-03T09:11:40Z</time>
      </trkpt>
      <trkpt lat="46.55491" lon="6.13597">
        <ele>1214.1</ele>
        <time>2024-02-03T09:11:51Z</time>
      </trkpt>
      <trkpt lat="46.55497" lon="6.13586">
        <ele>1215.6</ele>
        <time>2024-02-03T09:12:06Z</time>
      </trkpt>
      <trkpt lat="46.55501" lon="6.13574">
        <ele>1216.8</ele>
        <time>2024-02-03T09:12:18Z</time>
      </trkpt>
      <trkpt lat="46.55507" lon="6.13563">
        <ele>1218.2</ele>
        <time>2024-02-03T09:12:29Z</time>
      </trkpt>
      <trkpt lat="46.55506" lon="6.1355">
        <ele>1218.5</ele>
        <time>2024-02-03T09:12:39Z</time>
      </trkpt>
      <trkpt lat="46.5551" lon="6.13537">
        <ele>1217.9</ele>
        <time>2024-02-03T09:12:49Z</time>
      </trkpt>
      <trkpt lat="46.55513" lon="6.13525">
        <ele>1217.2</ele>
        <time>2024-02-03T09:12:58Z</time>
      </trkpt>
      <trkpt lat="46.55516" lon="6.13513">
        <ele>1217.3</ele>
        <time>2024-02-03T09:13:07Z</time>
      </trkpt>
      <trkpt lat="46.55524" lon="6.13503">
        <ele>1216.6</ele>
        <time>2024-02-03T09:13:17Z</time>
      </trkpt>
      <trkpt lat="46.5553" lon="6.13495">
        <ele>1217.4</ele>
        <time>2024-02-03T09:13:26Z</time>
      </trkpt>
      <trkpt lat="46.55539" lon="6.13488">
        <ele>1218.3</ele>
        <time>2024-02-03T09:13:35Z</time>
      </trkpt>
      <trkpt lat="46.55548" lon="6.13481">
        <ele>1217.6</ele>
        <time>2024-02-03T09:13:45Z</time>
      </trkpt>
      <trkpt lat="46.55555" lon="6.13472">
        <ele>1215.1</ele>
        <time>2024-02-03T09:13:55Z</time>
      </trkpt>
      <trkpt lat="46.55562" lon="6.13463">
        <ele>1216.5</ele>
        <time>2024-02-03T09:14:05Z</time>
      </trkpt>
      <trkpt lat="46.5557" lon="6.13455">
        <ele>1216.5</ele>
        <time>2024-02-03T09:14:14Z</time>
      </trkpt>
      <trkpt lat="46.5558" lon="6.13452">
        <ele>1215.5</ele>
        <time>2024-02-03T09:14:23Z</time>
      </trkpt>
      <trkpt lat="46.55583" lon="6.1344">
        <ele>1212.2</ele>
        <time>2024-02-03T09:14:31Z</time>
      </trkpt>
      <trkpt lat="46.55589" lon="6.13429">
        <ele>1210.2</ele>
        <time>2024-02-03T09:14:40Z</time>
      </trkpt>
      <trkpt lat="46.55597" lon="6.13424">
        <ele>1209.1</ele>
        <time>2024-02-03T09:14:50Z</time>
      </trkpt>
      <trkpt lat="46.556" lon="6.13411">
        <ele>1206.7</ele>
        <time>2024-02-03T09:15:09Z</time>
      </trkpt>
      <trkpt lat="46.55605" lon="6.134">
        <ele>1204.4</ele>
        <time>2024-02-03T09:15:26Z</time>
      </trkpt>
      <trkpt lat="46.55612" lon="6.13392">
        <ele>1201.5</ele>
        <time>2024-02-03T09:15:38Z</time>
      </trkpt>
      <trkpt lat="46.5562" lon="6.13383">
        <ele>1200.6</ele>
        <time>2024-02-03T09:15:50Z</time>
      </trkpt>
      <trkpt lat="46.55629" lon="6.1338">
        <ele>1200.4</ele>
        <time>2024-02-03T09:16:00Z</time>
      </trkpt>
      <trkpt lat="46.55638" lon="6.1338">
        <ele>1200.3</ele>
        <time>2024-02-03T09:16:10Z</time>
      </trkpt>
      <trkpt lat="46.55646" lon="6.13373">
        <ele>1199.6</ele>
        <time>2024-02-03T09:16:25Z</time>
      </trkpt>
      <trkpt lat="46.55654" lon="6.13366">
        <ele>1198.4</ele>
        <time>2024-02-03T09:16:40Z</time>
      </trkpt>
      <trkpt lat="46.5566" lon="6.13356">
        <ele>1197.5</ele>
        <time>2024-02-03T09:16:54Z</time>
      </trkpt>
      <trkpt lat="46.55668" lon="6.13349">
        <ele>1196.7</ele>
        <time>2024-02-03T09:17:04Z</time>
      </trkpt>
      <trkpt lat="46.55676" lon="6.13341">
        <ele>1196.8</ele>
        <time>2024-02-03T09:17:14Z</time>
      </trkpt>
      <trkpt lat="46.55678" lon="6.13328">
        <ele>1197.4</ele>
        <time>2024-02-03T09:17:26Z</time>
      </trkpt>
      <trkpt lat="46.55682" lon="6.13316">
        <ele>1197.4</ele>
        <time>2024-02-03T09:17:41Z</time>
      </trkpt>
      <trkpt lat="46.55688" lon="6.13306">
        <ele>1196.9</ele>
        <time>2024-02-03T09:17:52Z</time>
      </trkpt>
      <trkpt lat="46.55696" lon="6.13297">
        <ele>1195.6</ele>
        <time>2024-02-03T09:18:05Z</time>
      </trkpt>
      <trkpt lat="46.55705" lon="6.13294">
        <ele>1195</ele>
        <time>2024-02-03T09:18:14Z</time>
      </trkpt>
      <trkpt lat="46.55714" lon="6.1329">
        <ele>1194.4</ele>
        <time>2024-02-03T09:18:23Z</time>
      </trkpt>
      <trkpt lat="46.55723" lon="6.13288">
        <ele>1193.9</ele>
        <time>2024-02-03T09:18:32Z</time>
      </trkpt>
      <trkpt lat="46.55731" lon="6.13281">
        <ele>1193.2</ele>
        <time>2024-02-03T09:18:41Z</time>
      </trkpt>
      <trkpt lat="46.5574" lon="6.13274">
        <ele>1192.6</ele>
        <time>2024-02-03T09:18:52Z</time>
      </trkpt>
      <trkpt lat="46.55749" lon="6.13271">
        <ele>1192.1</ele>
        <time>2024-02-03T09:19:01Z</time>
      </trkpt>
      <trkpt lat="46.55757" lon="6.13264">
        <ele>1192.5</ele>
        <time>2024-02-03T09:19:09Z</time>
      </trkpt>
      <trkpt lat="46.55765" lon="6.13257">
        <ele>1193.4</ele>
        <time>2024-02-03T09:19:19Z</time>
      </trkpt>
      <trkpt lat="46.55772" lon="6.13248">
        <ele>1194.5</ele>
        <time>2024-02-03T09:19:30Z</time>
      </trkpt>
      <trkpt lat="46.5578" lon="6.13241">
        <ele>1195.1</ele>
        <time>2024-02-03T09:19:44Z</time>
      </trkpt>
      <trkpt lat="46.55788" lon="6.13232">
        <ele>1194.8</ele>
        <time>2024-02-03T09:20:42Z</time>
      </trkpt>
      <trkpt lat="46.55794" lon="6.13222">
        <ele>1194.8</ele>
        <time>2024-02-03T09:20:51Z</time>
      </trkpt>
      <trkpt lat="46.55803" lon="6.13224">
        <ele>1194.1</ele>
        <time>2024-02-03T09:21:00Z</time>
      </trkpt>
      <trkpt lat="46.55813" lon="6.13223">
        <ele>1195</ele>
        <time>2024-02-03T09:21:11Z</time>
      </trkpt>
      <trkpt lat="46.55821" lon="6.13217">
        <ele>1197</ele>
        <time>2024-02-03T09:21:22Z</time>
      </trkpt>
      <trkpt lat="46.55828" lon="6.13208">
        <ele>1199</ele>
        <time>2024-02-03T09:21:32Z</time>
      </trkpt>
      <trkpt lat="46.55836" lon="6.13199">
        <ele>1200.7</ele>
        <time>2024-02-03T09:21:45Z</time>
      </trkpt>
      <trkpt lat="46.5584" lon="6.13187">
        <ele>1201.9</ele>
        <time>2024-02-03T09:21:59Z</time>
      </trkpt>
      <trkpt lat="46.55846" lon="6.13176">
        <ele>1202.7</ele>
        <time>2024-02-03T09:22:09Z</time>
      </trkpt>
      <trkpt lat="46.55853" lon="6.13165">
        <ele>1203.5</ele>
        <time>2024-02-03T09:22:17Z</time>
      </trkpt>
      <trkpt lat="46.55861" lon="6.13158">
        <ele>1204.3</ele>
        <time>2024-02-03T09:22:25Z</time>
      </trkpt>
      <trkpt lat="46.55869" lon="6.13154">
        <ele>1205.1</ele>
        <time>2024-02-03T09:22:33Z</time>
      </trkpt>
      <trkpt lat="46.55878" lon="6.13148">
        <ele>1205.7</ele>
        <time>2024-02-03T09:22:41Z</time>
      </trkpt>
      <trkpt lat="46.55885" lon="6.1314">
        <ele>1205.9</ele>
        <time>2024-02-03T09:22:50Z</time>
      </trkpt>
      <trkpt lat="46.55894" lon="6.13134">
        <ele>1207.1</ele>
        <time>2024-02-03T09:23:00Z</time>
      </trkpt>
      <trkpt lat="46.55903" lon="6.1313">
        <ele>1208.5</ele>
        <time>2024-02-03T09:23:09Z</time>
      </trkpt>
      <trkpt lat="46.55912" lon="6.13125">
        <ele>1209.6</ele>
        <time>2024-02-03T09:23:18Z</time>
      </trkpt>
      <trkpt lat="46.55919" lon="6.13119">
        <ele>1210.5</ele>
        <time>2024-02-03T09:23:29Z</time>
      </trkpt>
      <trkpt lat="46.55927" lon="6.13111">
        <ele>1211</ele>
        <time>2024-02-03T09:23:40Z</time>
      </trkpt>
      <trkpt lat="46.55935" lon="6.13103">
        <ele>1210.8</ele>
        <time>2024-02-03T09:23:49Z</time>
      </trkpt>
      <trkpt lat="46.55943" lon="6.13095">
        <ele>1210.5</ele>
        <time>2024-02-03T09:23:58Z</time>
      </trkpt>
      <trkpt lat="46.5595" lon="6.13086">
        <ele>1210.7</ele>
        <time>2024-02-03T09:24:07Z</time>
      </trkpt>
      <trkpt lat="46.55956" lon="6.13075">
        <ele>1211</ele>
        <time>2024-02-03T09:24:17Z</time>
      </trkpt>
      <trkpt lat="46.55961" lon="6.13063">
        <ele>1211.1</ele>
        <time>2024-02-03T09:24:26Z</time>
      </trkpt>
      <trkpt lat="46.55968" lon="6.13053">
        <ele>1211.6</ele>
        <time>2024-02-03T09:24:35Z</time>
      </trkpt>
      <trkpt lat="46.55975" lon="6.13044">
        <ele>1212.6</ele>
        <time>2024-02-03T09:24:43Z</time>
      </trkpt>
      <trkpt lat="46.55979" lon="6.13031">
        <ele>1213.1</ele>
        <time>2024-02-03T09:24:53Z</time>
      </trkpt>
      <trkpt lat="46.55984" lon="6.1302">
        <ele>1214</ele>
        <time>2024-02-03T09:25:04Z</time>
      </trkpt>
      <trkpt lat="46.55988" lon="6.13008">
        <ele>1215.1</ele>
        <time>2024-02-03T09:25:14Z</time>
      </trkpt>
      <trkpt lat="46.55991" lon="6.12994">
        <ele>1216.2</ele>
        <time>2024-02-03T09:25:24Z</time>
      </trkpt>
      <trkpt lat="46.55994" lon="6.12982">
        <ele>1217</ele>
        <time>2024-02-03T09:25:34Z</time>
      </trkpt>
      <trkpt lat="46.56" lon="6.1297">
        <ele>1218</ele>
        <time>2024-02-03T09:25:46Z</time>
      </trkpt>
      <trkpt lat="46.56007" lon="6.12962">
        <ele>1218.8</ele>
        <time>2024-02-03T09:25:55Z</time>
      </trkpt>
      <trkpt lat="46.56014" lon="6.12951">
        <ele>1219.4</ele>
        <time>2024-02-03T09:26:05Z</time>
      </trkpt>
      <trkpt lat="46.56021" lon="6.12942">
        <ele>1219.8</ele>
        <time>2024-02-03T09:26:13Z</time>
      </trkpt>
      <trkpt lat="46.56028" lon="6.12932">
        <ele>1220</ele>
        <time>2024-02-03T09:26:23Z</time>
      </trkpt>
      <trkpt lat="46.56033" lon="6.12921">
        <ele>1220</ele>
        <time>2024-02-03T09:26:32Z</time>
      </trkpt>
      <trkpt lat="46.5604" lon="6.1291">
        <ele>1219.6</ele>
        <time>2024-02-03T09:26:42Z</time>
      </trkpt>
      <trkpt lat="46.56047" lon="6.12901">
        <ele>1218.7</ele>
        <time>2024-02-03T09:26:52Z</time>
      </trkpt>
      <trkpt lat="46.56056" lon="6.12898">
        <ele>1218</ele>
        <time>2024-02-03T09:27:05Z</time>
      </trkpt>
      <trkpt lat="46.56063" lon="6.12889">
        <ele>1216.6</ele>
        <time>2024-02-03T09:27:20Z</time>
      </trkpt>
      <trkpt lat="46.56071" lon="6.12882">
        <ele>1214.2</ele>
        <time>2024-02-03T09:27:34Z</time>
      </trkpt>
      <trkpt lat="46.5608" lon="6.12878">
        <ele>1212.4</ele>
        <time>2024-02-03T09:27:52Z</time>
      </trkpt>
      <trkpt lat="46.56088" lon="6.12869">
        <ele>1208.7</ele>
        <time>2024-02-03T09:28:01Z</time>
      </trkpt>
      <trkpt lat="46.56092" lon="6.12856">
        <ele>1205.8</ele>
        <time>2024-02-03T09:28:09Z</time>
      </trkpt>
      <trkpt lat="46.56098" lon="6.12845">
        <ele>1204.7</ele>
        <time>2024-02-03T09:28:20Z</time>
      </trkpt>
      <trkpt lat="46.56102" lon="6.12832">
        <ele>1203.3</ele>
        <time>2024-02-03T09:28:32Z</time>
      </trkpt>
      <trkpt lat="46.56109" lon="6.12824">
        <ele>1203</ele>
        <time>2024-02-03T09:28:43Z</time>
      </trkpt>
      <trkpt lat="46.56115" lon="6.12812">
        <ele>1203.2</ele>
        <time>2024-02-03T09:28:52Z</time>
      </trkpt>
      <trkpt lat="46.56118" lon="6.128">
        <ele>1203.6</ele>
        <time>2024-02-03T09:29:20Z</time>
      </trkpt>
      <trkpt lat="46.56123" lon="6.12789">
        <ele>1204.6</ele>
        <time>2024-02-03T09:29:32Z</time>
      </trkpt>
      <trkpt lat="46.56129" lon="6.1278">
        <ele>1206.1</ele>
        <time>2024-02-03T09:29:42Z</time>
      </trkpt>
      <trkpt lat="46.56133" lon="6.12768">
        <ele>1207.2</ele>
        <time>2024-02-03T09:29:53Z</time>
      </trkpt>
      <trkpt lat="46.56138" lon="6.12756">
        <ele>1207.9</ele>
        <time>2024-02-03T09:30:04Z</time>
      </trkpt>
      <trkpt lat="46.56143" lon="6.12745">
        <ele>1207.8</ele>
        <time>2024-02-03T09:30:34Z</time>
      </trkpt>
      <trkpt lat="46.56152" lon="6.12741">
        <ele>1207.7</ele>
        <time>2024-02-03T09:30:45Z</time>
      </trkpt>
      <trkpt lat="46.56149" lon="6.12728">
        <ele>1207.2</ele>
        <time>2024-02-03T09:30:57Z</time>
      </trkpt>
      <trkpt lat="46.56149" lon="6.12714">
        <ele>1206.4</ele>
        <time>2024-02-03T09:31:14Z</time>
      </trkpt>
      <trkpt lat="46.56152" lon="6.12701">
        <ele>1205.5</ele>
        <time>2024-02-03T09:31:28Z</time>
      </trkpt>
      <trkpt lat="46.56158" lon="6.12691">
        <ele>1204.7</ele>
        <time>2024-02-03T09:31:40Z</time>
      </trkpt>
      <trkpt lat="46.5616" lon="6.12678">
        <ele>1203.7</ele>
        <time>2024-02-03T09:31:50Z</time>
      </trkpt>
      <trkpt lat="46.56163" lon="6.12665">
        <ele>1202.9</ele>
        <time>2024-02-03T09:31:59Z</time>
      </trkpt>
      <trkpt lat="46.5617" lon="6.12658">
        <ele>1203.6</ele>
        <time>2024-02-03T09:32:05Z</time>
      </trkpt>
      <trkpt lat="46.56178" lon="6.12652">
        <ele>1204.4</ele>
        <time>2024-02-03T09:32:12Z</time>
      </trkpt>
      <trkpt lat="46.56188" lon="6.12651">
        <ele>1205</ele>
        <time>2024-02-03T09:32:21Z</time>
      </trkpt>
      <trkpt lat="46.56194" lon="6.12641">
        <ele>1205</ele>
        <time>2024-02-03T09:32:32Z</time>
      </trkpt>
      <trkpt lat="46.56194" lon="6.12627">
        <ele>1206.2</ele>
        <time>2024-02-03T09:32:45Z</time>
      </trkpt>
      <trkpt lat="46.562" lon="6.12615">
        <ele>1210.3</ele>
        <time>2024-02-03T09:33:02Z</time>
      </trkpt>
      <trkpt lat="46.56196" lon="6.12603">
        <ele>1210.2</ele>
        <time>2024-02-03T09:33:15Z</time>
      </trkpt>
      <trkpt lat="46.56194" lon="6.1259">
        <ele>1211.1</ele>
        <time>2024-02-03T09:33:31Z</time>
      </trkpt>
      <trkpt lat="46.56198" lon="6.12577">
        <ele>1214.2</ele>
        <time>2024-02-03T09:33:42Z</time>
      </trkpt>
      <trkpt lat="46.56205" lon="6.12567">
        <ele>1216.9</ele>
        <time>2024-02-03T09:33:50Z</time>
      </trkpt>
      <trkpt lat="46.56213" lon="6.12559">
        <ele>1217.1</ele>
        <time>2024-02-03T09:33:58Z</time>
      </trkpt>
      <trkpt lat="46.56217" lon="6.12546">
        <ele>1216.4</ele>
        <time>2024-02-03T09:34:09Z</time>
      </trkpt>
      <trkpt lat="46.56217" lon="6.12532">
        <ele>1216.2</ele>
        <time>2024-02-03T09:34:17Z</time>
      </trkpt>
      <trkpt lat="46.56217" lon="6.12518">
        <ele>1216</ele>
        <time>2024-02-03T09:34:28Z</time>
      </trkpt>
      <trkpt lat="46.56218" lon="6.12504">
        <ele>1215.9</ele>
        <time>2024-02-03T09:34:41Z</time>
      </trkpt>
      <trkpt lat="46.56218" lon="6.12491">
        <ele>1215.2</ele>
        <time>2024-02-03T09:34:55Z</time>
      </trkpt>
      <trkpt lat="46.56215" lon="6.12477">
        <ele>1214.1</ele>
        <time>2024-02-03T09:35:06Z</time>
      </trkpt>
      <trkpt lat="46.56208" lon="6.12468">
        <ele>1213.7</ele>
        <time>2024-02-03T09:35:14Z</time>
      </trkpt>
      <trkpt lat="46.56202" lon="6.12457">
        <ele>1214.2</ele>
        <time>2024-02-03T09:35:38Z</time>
      </trkpt>
      <trkpt lat="46.56211" lon="6.12462">
        <ele>1214.1</ele>
        <time>2024-02-03T09:39:50Z</time>
      </trkpt>
      <trkpt lat="46.56205" lon="6.12451">
        <ele>1214.6</ele>
        <time>2024-02-03T09:41:49Z</time>
      </trkpt>
      <trkpt lat="46.56197" lon="6.12444">
        <ele>1215</ele>
        <time>2024-02-03T09:41:59Z</time>
      </trkpt>
      <trkpt lat="46.5619" lon="6.12434">
        <ele>1214.9</ele>
        <time>2024-02-03T09:42:08Z</time>
      </trkpt>
      <trkpt lat="46.56183" lon="6.12425">
        <ele>1214.4</ele>
        <time>2024-02-03T09:42:17Z</time>
      </trkpt>
      <trkpt lat="46.56184" lon="6.12411">
        <ele>1214.6</ele>
        <time>2024-02-03T09:42:26Z</time>
      </trkpt>
      <trkpt lat="46.56179" lon="6.12398">
        <ele>1214.5</ele>
        <time>2024-02-03T09:42:36Z</time>
      </trkpt>
      <trkpt lat="46.56188" lon="6.12397">
        <ele>1215.4</ele>
        <time>2024-02-03T09:43:06Z</time>
      </trkpt>
      <trkpt lat="46.56197" lon="6.12394">
        <ele>1216.1</ele>
        <time>2024-02-03T09:43:18Z</time>
      </trkpt>
      <trkpt lat="46.56206" lon="6.12391">
        <ele>1216.8</ele>
        <time>2024-02-03T09:43:28Z</time>
      </trkpt>
      <trkpt lat="46.56211" lon="6.1238">
        <ele>1217.9</ele>
        <time>2024-02-03T09:43:39Z</time>
      </trkpt>
      <trkpt lat="46.56213" lon="6.12367">
        <ele>1219.2</ele>
        <time>2024-02-03T09:43:52Z</time>
      </trkpt>
      <trkpt lat="46.56219" lon="6.12356">
        <ele>1220.8</ele>
        <time>2024-02-03T09:44:05Z</time>
      </trkpt>
      <trkpt lat="46.56227" lon="6.12349">
        <ele>1221.5</ele>
        <time>2024-02-03T09:44:15Z</time>
      </trkpt>
      <trkpt lat="46.56234" lon="6.12338">
        <ele>1222.2</ele>
        <time>2024-02-03T09:44:25Z</time>
      </trkpt>
      <trkpt lat="46.5624" lon="6.12329">
        <ele>1222.6</ele>
        <time>2024-02-03T09:44:36Z</time>
      </trkpt>
      <trkpt lat="46.56248" lon="6.12321">
        <ele>1222.9</ele>
        <time>2024-02-03T09:44:46Z</time>
      </trkpt>
      <trkpt lat="46.56253" lon="6.1231">
        <ele>1223.2</ele>
        <time>2024-02-03T09:44:59Z</time>
      </trkpt>
      <trkpt lat="46.56259" lon="6.123">
        <ele>1223.8</ele>
        <time>2024-02-03T09:45:10Z</time>
      </trkpt>
      <trkpt lat="46.56264" lon="6.12288">
        <ele>1224.3</ele>
        <time>2024-02-03T09:45:26Z</time>
      </trkpt>
      <trkpt lat="46.56271" lon="6.1228">
        <ele>1224.7</ele>
        <time>2024-02-03T09:45:36Z</time>
      </trkpt>
      <trkpt lat="46.56278" lon="6.12271">
        <ele>1225.8</ele>
        <time>2024-02-03T09:45:50Z</time>
      </trkpt>
      <trkpt lat="46.56287" lon="6.12266">
        <ele>1226.6</ele>
        <time>2024-02-03T09:46:02Z</time>
      </trkpt>
      <trkpt lat="46.56293" lon="6.12254">
        <ele>1228.1</ele>
        <time>2024-02-03T09:46:17Z</time>
      </trkpt>
      <trkpt lat="46.56299" lon="6.12244">
        <ele>1228.7</ele>
        <time>2024-02-03T09:46:29Z</time>
      </trkpt>
      <trkpt lat="46.56304" lon="6.12232">
        <ele>1228.9</ele>
        <time>2024-02-03T09:46:39Z</time>
      </trkpt>
      <trkpt lat="46.56311" lon="6.12221">
        <ele>1229.8</ele>
        <time>2024-02-03T09:46:50Z</time>
      </trkpt>
      <trkpt lat="46.56315" lon="6.1221">
        <ele>1231.6</ele>
        <time>2024-02-03T09:47:00Z</time>
      </trkpt>
      <trkpt lat="46.56315" lon="6.12196">
        <ele>1232.9</ele>
        <time>2024-02-03T09:47:13Z</time>
      </trkpt>
      <trkpt lat="46.56321" lon="6.12186">
        <ele>1233.8</ele>
        <time>2024-02-03T09:47:26Z</time>
      </trkpt>
      <trkpt lat="46.56327" lon="6.12175">
        <ele>1234.5</ele>
        <time>2024-02-03T09:47:51Z</time>
      </trkpt>
      <trkpt lat="46.56332" lon="6.12164">
        <ele>1234.8</ele>
        <time>2024-02-03T09:50:33Z</time>
      </trkpt>
      <trkpt lat="46.56332" lon="6.1215">
        <ele>1234.3</ele>
        <time>2024-02-03T09:50:49Z</time>
      </trkpt>
      <trkpt lat="46.56338" lon="6.1214">
        <ele>1234</ele>
        <time>2024-02-03T09:51:08Z</time>
      </trkpt>
      <trkpt lat="46.56342" lon="6.12128">
        <ele>1233.4</ele>
        <time>2024-02-03T09:51:20Z</time>
      </trkpt>
      <trkpt lat="46.56336" lon="6.12117">
        <ele>1232</ele>
        <time>2024-02-03T09:51:30Z</time>
      </trkpt>
      <trkpt lat="46.56332" lon="6.12105">
        <ele>1231.1</ele>
        <time>2024-02-03T09:51:44Z</time>
      </trkpt>
      <trkpt lat="46.56342" lon="6.121">
        <ele>1233</ele>
        <time>2024-02-03T10:04:24Z</time>
      </trkpt>
      <trkpt lat="46.5635" lon="6.12092">
        <ele>1235.2</ele>
        <time>2024-02-03T10:04:30Z</time>
      </trkpt>
      <trkpt lat="46.56353" lon="6.12079">
        <ele>1236</ele>
        <time>2024-02-03T10:04:46Z</time>
      </trkpt>
      <trkpt lat="46.56362" lon="6.12074">
        <ele>1237.6</ele>
        <time>2024-02-03T10:05:01Z</time>
      </trkpt>
      <trkpt lat="46.5637" lon="6.12067">
        <ele>1238.6</ele>
        <time>2024-02-03T10:05:14Z</time>
      </trkpt>
      <trkpt lat="46.56377" lon="6.12058">
        <ele>1239.6</ele>
        <time>2024-02-03T10:05:25Z</time>
      </trkpt>
      <trkpt lat="46.56385" lon="6.1205">
        <ele>1240.5</ele>
        <time>2024-02-03T10:05:36Z</time>
      </trkpt>
      <trkpt lat="46.56391" lon="6.12041">
        <ele>1240.8</ele>
        <time>2024-02-03T10:05:47Z</time>
      </trkpt>
      <trkpt lat="46.56398" lon="6.1203">
        <ele>1240.8</ele>
        <time>2024-02-03T10:05:57Z</time>
      </trkpt>
      <trkpt lat="46.56406" lon="6.12025">
        <ele>1241.7</ele>
        <time>2024-02-03T10:06:08Z</time>
      </trkpt>
      <trkpt lat="46.56416" lon="6.12025">
        <ele>1243.3</ele>
        <time>2024-02-03T10:06:27Z</time>
      </trkpt>
      <trkpt lat="46.56424" lon="6.12021">
        <ele>1244.8</ele>
        <time>2024-02-03T10:06:41Z</time>
      </trkpt>
      <trkpt lat="46.56433" lon="6.12015">
        <ele>1246</ele>
        <time>2024-02-03T10:06:54Z</time>
      </trkpt>
      <trkpt lat="46.56442" lon="6.12011">
        <ele>1247.4</ele>
        <time>2024-02-03T10:07:05Z</time>
      </trkpt>
      <trkpt lat="46.5645" lon="6.12003">
        <ele>1247.3</ele>
        <time>2024-02-03T10:07:16Z</time>
      </trkpt>
      <trkpt lat="46.56457" lon="6.11994">
        <ele>1246.4</ele>
        <time>2024-02-03T10:07:28Z</time>
      </trkpt>
      <trkpt lat="46.56465" lon="6.11987">
        <ele>1246.5</ele>
        <time>2024-02-03T10:07:40Z</time>
      </trkpt>
      <trkpt lat="46.56474" lon="6.11982">
        <ele>1247.1</ele>
        <time>2024-02-03T10:07:51Z</time>
      </trkpt>
      <trkpt lat="46.56479" lon="6.11971">
        <ele>1245.7</ele>
        <time>2024-02-03T10:08:01Z</time>
      </trkpt>
      <trkpt lat="46.56487" lon="6.11963">
        <ele>1245.1</ele>
        <time>2024-02-03T10:08:11Z</time>
      </trkpt>
      <trkpt lat="46.56496" lon="6.11957">
        <ele>1245</ele>
        <time>2024-02-03T10:08:21Z</time>
      </trkpt>
      <trkpt lat="46.56505" lon="6.11954">
        <ele>1245.6</ele>
        <time>2024-02-03T10:08:31Z</time>
      </trkpt>
      <trkpt lat="46.56512" lon="6.11945">
        <ele>1244.3</ele>
        <time>2024-02-03T10:08:41Z</time>
      </trkpt>
      <trkpt lat="46.5652" lon="6.11939">
        <ele>1244.1</ele>
        <time>2024-02-03T10:08:50Z</time>
      </trkpt>
      <trkpt lat="46.56529" lon="6.11937">
        <ele>1244.9</ele>
        <time>2024-02-03T10:09:02Z</time>
      </trkpt>
      <trkpt lat="46.56537" lon="6.1193">
        <ele>1244.5</ele>
        <time>2024-02-03T10:09:11Z</time>
      </trkpt>
      <trkpt lat="46.56545" lon="6.11921">
        <ele>1243.6</ele>
        <time>2024-02-03T10:09:21Z</time>
      </trkpt>
      <trkpt lat="46.56549" lon="6.11909">
        <ele>1241.5</ele>
        <time>2024-02-03T10:09:33Z</time>
      </trkpt>
      <trkpt lat="46.56554" lon="6.11898">
        <ele>1239.1</ele>
        <time>2024-02-03T10:09:44Z</time>
      </trkpt>
      <trkpt lat="46.56558" lon="6.11886">
        <ele>1236.7</ele>
        <time>2024-02-03T10:09:57Z</time>
      </trkpt>
      <trkpt lat="46.56566" lon="6.11879">
        <ele>1236</ele>
        <time>2024-02-03T10:10:07Z</time>
      </trkpt>
      <trkpt lat="46.56573" lon="6.11869">
        <ele>1234.1</ele>
        <time>2024-02-03T10:10:20Z</time>
      </trkpt>
      <trkpt lat="46.5658" lon="6.11861">
        <ele>1232</ele>
        <time>2024-02-03T10:10:31Z</time>
      </trkpt>
      <trkpt lat="46.5659" lon="6.11857">
        <ele>1231.6</ele>
        <time>2024-02-03T10:10:41Z</time>
      </trkpt>
      <trkpt lat="46.56598" lon="6.11852">
        <ele>1231.1</ele>
        <time>2024-02-03T10:10:53Z</time>
      </trkpt>
      <trkpt lat="46.56607" lon="6.11854">
        <ele>1231.8</ele>
        <time>2024-02-03T10:11:02Z</time>
      </trkpt>
      <trkpt lat="46.56617" lon="6.11854">
        <ele>1232</ele>
        <time>2024-02-03T10:11:14Z</time>
      </trkpt>
      <trkpt lat="46.56625" lon="6.11859">
        <ele>1232.3</ele>
        <time>2024-02-03T10:11:29Z</time>
      </trkpt>
      <trkpt lat="46.56634" lon="6.1186">
        <ele>1232.1</ele>
        <time>2024-02-03T10:11:38Z</time>
      </trkpt>
      <trkpt lat="46.56644" lon="6.11856">
        <ele>1232</ele>
        <time>2024-02-03T10:11:48Z</time>
      </trkpt>
      <trkpt lat="46.56653" lon="6.11853">
        <ele>1232.2</ele>
        <time>2024-02-03T10:11:58Z</time>
      </trkpt>
      <trkpt lat="46.56663" lon="6.11849">
        <ele>1232.4</ele>
        <time>2024-02-03T10:12:07Z</time>
      </trkpt>
      <trkpt lat="46.56671" lon="6.1184">
        <ele>1232.3</ele>
        <time>2024-02-03T10:12:19Z</time>
      </trkpt>
      <trkpt lat="46.56679" lon="6.11834">
        <ele>1232</ele>
        <time>2024-02-03T10:12:29Z</time>
      </trkpt>
      <trkpt lat="46.56687" lon="6.11827">
        <ele>1232.3</ele>
        <time>2024-02-03T10:12:40Z</time>
      </trkpt>
      <trkpt lat="46.56696" lon="6.11823">
        <ele>1232.5</ele>
        <time>2024-02-03T10:12:51Z</time>
      </trkpt>
      <trkpt lat="46.56705" lon="6.11824">
        <ele>1233.5</ele>
        <time>2024-02-03T10:13:00Z</time>
      </trkpt>
      <trkpt lat="46.56714" lon="6.11821">
        <ele>1234.6</ele>
        <time>2024-02-03T10:13:09Z</time>
      </trkpt>
      <trkpt lat="46.56722" lon="6.11813">
        <ele>1235.7</ele>
        <time>2024-02-03T10:13:20Z</time>
      </trkpt>
      <trkpt lat="46.56728" lon="6.11802">
        <ele>1237</ele>
        <time>2024-02-03T10:13:31Z</time>
      </trkpt>
      <trkpt lat="46.56734" lon="6.11791">
        <ele>1237.1</ele>
        <time>2024-02-03T10:13:43Z</time>
      </trkpt>
      <trkpt lat="46.5674" lon="6.11782">
        <ele>1235.3</ele>
        <time>2024-02-03T10:13:53Z</time>
      </trkpt>
      <trkpt lat="46.56746" lon="6.11772">
        <ele>1232.6</ele>
        <time>2024-02-03T10:14:01Z</time>
      </trkpt>
      <trkpt lat="46.56753" lon="6.11764">
        <ele>1231.3</ele>
        <time>2024-02-03T10:14:11Z</time>
      </trkpt>
      <trkpt lat="46.5676" lon="6.11755">
        <ele>1230.7</ele>
        <time>2024-02-03T10:14:20Z</time>
      </trkpt>
      <trkpt lat="46.56769" lon="6.11749">
        <ele>1230</ele>
        <time>2024-02-03T10:14:30Z</time>
      </trkpt>
      <trkpt lat="46.56777" lon="6.11741">
        <ele>1229.7</ele>
        <time>2024-02-03T10:14:40Z</time>
      </trkpt>
      <trkpt lat="46.56783" lon="6.1173">
        <ele>1230.3</ele>
        <time>2024-02-03T10:14:51Z</time>
      </trkpt>
      <trkpt lat="46.5679" lon="6.11722">
        <ele>1231.3</ele>
        <time>2024-02-03T10:15:01Z</time>
      </trkpt>
      <trkpt lat="46.56798" lon="6.11713">
        <ele>1232.3</ele>
        <time>2024-02-03T10:15:11Z</time>
      </trkpt>
      <trkpt lat="46.56806" lon="6.11707">
        <ele>1233.5</ele>
        <time>2024-02-03T10:15:21Z</time>
      </trkpt>
      <trkpt lat="46.56815" lon="6.11699">
        <ele>1233.9</ele>
        <time>2024-02-03T10:15:32Z</time>
      </trkpt>
      <trkpt lat="46.56823" lon="6.11694">
        <ele>1234.3</ele>
        <time>2024-02-03T10:15:44Z</time>
      </trkpt>
      <trkpt lat="46.56831" lon="6.11688">
        <ele>1235.3</ele>
        <time>2024-02-03T10:15:55Z</time>
      </trkpt>
      <trkpt lat="46.5684" lon="6.11682">
        <ele>1235.7</ele>
        <time>2024-02-03T10:16:05Z</time>
      </trkpt>
      <trkpt lat="46.56846" lon="6.11671">
        <ele>1235.9</ele>
        <time>2024-02-03T10:16:17Z</time>
      </trkpt>
      <trkpt lat="46.56848" lon="6.11658">
        <ele>1235.8</ele>
        <time>2024-02-03T10:16:28Z</time>
      </trkpt>
      <trkpt lat="46.56852" lon="6.11645">
        <ele>1236.2</ele>
        <time>2024-02-03T10:16:38Z</time>
      </trkpt>
      <trkpt lat="46.56856" lon="6.11633">
        <ele>1236.9</ele>
        <time>2024-02-03T10:16:46Z</time>
      </trkpt>
      <trkpt lat="46.56861" lon="6.11621">
        <ele>1238</ele>
        <time>2024-02-03T10:16:55Z</time>
      </trkpt>
      <trkpt lat="46.56869" lon="6.11614">
        <ele>1238</ele>
        <time>2024-02-03T10:17:05Z</time>
      </trkpt>
      <trkpt lat="46.56877" lon="6.11607">
        <ele>1237.9</ele>
        <time>2024-02-03T10:17:14Z</time>
      </trkpt>
      <trkpt lat="46.56884" lon="6.11597">
        <ele>1237.9</ele>
        <time>2024-02-03T10:17:22Z</time>
      </trkpt>
      <trkpt lat="46.56889" lon="6.11585">
        <ele>1238</ele>
        <time>2024-02-03T10:17:31Z</time>
      </trkpt>
      <trkpt lat="46.56892" lon="6.11573">
        <ele>1238.8</ele>
        <time>2024-02-03T10:17:41Z</time>
      </trkpt>
      <trkpt lat="46.56894" lon="6.11559">
        <ele>1239.2</ele>
        <time>2024-02-03T10:17:50Z</time>
      </trkpt>
      <trkpt lat="46.56894" lon="6.11545">
        <ele>1239.3</ele>
        <time>2024-02-03T10:17:59Z</time>
      </trkpt>
      <trkpt lat="46.56897" lon="6.11532">
        <ele>1239.9</ele>
        <time>2024-02-03T10:18:07Z</time>
      </trkpt>
      <trkpt lat="46.56898" lon="6.11518">
        <ele>1240.2</ele>
        <time>2024-02-03T10:18:17Z</time>
      </trkpt>
      <trkpt lat="46.56899" lon="6.11505">
        <ele>1240.4</ele>
        <time>2024-02-03T10:18:25Z</time>
      </trkpt>
      <trkpt lat="46.56901" lon="6.11491">
        <ele>1241.3</ele>
        <time>2024-02-03T10:18:35Z</time>
      </trkpt>
      <trkpt lat="46.56906" lon="6.11479">
        <ele>1242.5</ele>
        <time>2024-02-03T10:18:46Z</time>
      </trkpt>
      <trkpt lat="46.5691" lon="6.11466">
        <ele>1243.6</ele>
        <time>2024-02-03T10:18:57Z</time>
      </trkpt>
      <trkpt lat="46.56916" lon="6.11456">
        <ele>1245.1</ele>
        <time>2024-02-03T10:19:05Z</time>
      </trkpt>
      <trkpt lat="46.56923" lon="6.11446">
        <ele>1246.7</ele>
        <time>2024-02-03T10:19:14Z</time>
      </trkpt>
      <trkpt lat="46.56928" lon="6.11434">
        <ele>1246.7</ele>
        <time>2024-02-03T10:19:22Z</time>
      </trkpt>
      <trkpt lat="46.56932" lon="6.11422">
        <ele>1246.1</ele>
        <time>2024-02-03T10:19:30Z</time>
      </trkpt>
      <trkpt lat="46.56937" lon="6.11411">
        <ele>1246.3</ele>
        <time>2024-02-03T10:19:38Z</time>
      </trkpt>
      <trkpt lat="46.56939" lon="6.11398">
        <ele>1247</ele>
        <time>2024-02-03T10:19:48Z</time>
      </trkpt>
      <trkpt lat="46.56942" lon="6.11385">
        <ele>1247.7</ele>
        <time>2024-02-03T10:19:58Z</time>
      </trkpt>
      <trkpt lat="46.56946" lon="6.11372">
        <ele>1248.1</ele>
        <time>2024-02-03T10:20:07Z</time>
      </trkpt>
      <trkpt lat="46.5695" lon="6.11361">
        <ele>1248.2</ele>
        <time>2024-02-03T10:20:16Z</time>
      </trkpt>
      <trkpt lat="46.56957" lon="6.1135">
        <ele>1248.4</ele>
        <time>2024-02-03T10:20:25Z</time>
      </trkpt>
      <trkpt lat="46.56963" lon="6.11339">
        <ele>1248.9</ele>
        <time>2024-02-03T10:20:33Z</time>
      </trkpt>
      <trkpt lat="46.56967" lon="6.11327">
        <ele>1249.8</ele>
        <time>2024-02-03T10:20:42Z</time>
      </trkpt>
      <trkpt lat="46.5697" lon="6.11315">
        <ele>1251.1</ele>
        <time>2024-02-03T10:20:51Z</time>
      </trkpt>
      <trkpt lat="46.56973" lon="6.11302">
        <ele>1252.1</ele>
        <time>2024-02-03T10:21:01Z</time>
      </trkpt>
      <trkpt lat="46.56976" lon="6.11288">
        <ele>1252.4</ele>
        <time>2024-02-03T10:21:12Z</time>
      </trkpt>
      <trkpt lat="46.5698" lon="6.11275">
        <ele>1253</ele>
        <time>2024-02-03T10:21:21Z</time>
      </trkpt>
      <trkpt lat="46.56985" lon="6.11263">
        <ele>1253.2</ele>
        <time>2024-02-03T10:21:30Z</time>
      </trkpt>
      <trkpt lat="46.5699" lon="6.11252">
        <ele>1254.1</ele>
        <time>2024-02-03T10:21:39Z</time>
      </trkpt>
      <trkpt lat="46.56996" lon="6.11242">
        <ele>1255.7</ele>
        <time>2024-02-03T10:21:48Z</time>
      </trkpt>
      <trkpt lat="46.57002" lon="6.11232">
        <ele>1256.8</ele>
        <time>2024-02-03T10:21:58Z</time>
      </trkpt>
      <trkpt lat="46.5701" lon="6.11223">
        <ele>1258.1</ele>
        <time>2024-02-03T10:22:08Z</time>
      </trkpt>
      <trkpt lat="46.57018" lon="6.11217">
        <ele>1259.9</ele>
        <time>2024-02-03T10:22:20Z</time>
      </trkpt>
      <trkpt lat="46.57024" lon="6.11207">
        <ele>1261.5</ele>
        <time>2024-02-03T10:22:30Z</time>
      </trkpt>
      <trkpt lat="46.57029" lon="6.11195">
        <ele>1263.1</ele>
        <time>2024-02-03T10:22:41Z</time>
      </trkpt>
      <trkpt lat="46.57033" lon="6.11183">
        <ele>1264.1</ele>
        <time>2024-02-03T10:22:51Z</time>
      </trkpt>
      <trkpt lat="46.57037" lon="6.11171">
        <ele>1265.2</ele>
        <time>2024-02-03T10:23:01Z</time>
      </trkpt>
      <trkpt lat="46.57041" lon="6.11159">
        <ele>1265.9</ele>
        <time>2024-02-03T10:23:11Z</time>
      </trkpt>
      <trkpt lat="46.57045" lon="6.11146">
        <ele>1266.5</ele>
        <time>2024-02-03T10:23:20Z</time>
      </trkpt>
      <trkpt lat="46.57048" lon="6.11134">
        <ele>1267.4</ele>
        <time>2024-02-03T10:23:29Z</time>
      </trkpt>
      <trkpt lat="46.57056" lon="6.11124">
        <ele>1269</ele>
        <time>2024-02-03T10:23:42Z</time>
      </trkpt>
      <trkpt lat="46.57063" lon="6.11117">
        <ele>1269.8</ele>
        <time>2024-02-03T10:23:52Z</time>
      </trkpt>
      <trkpt lat="46.57072" lon="6.11113">
        <ele>1271</ele>
        <time>2024-02-03T10:24:01Z</time>
      </trkpt>
      <trkpt lat="46.57081" lon="6.1111">
        <ele>1272.6</ele>
        <time>2024-02-03T10:24:10Z</time>
      </trkpt>
      <trkpt lat="46.5709" lon="6.11104">
        <ele>1273.5</ele>
        <time>2024-02-03T10:24:19Z</time>
      </trkpt>
      <trkpt lat="46.57096" lon="6.11094">
        <ele>1273.9</ele>
        <time>2024-02-03T10:24:28Z</time>
      </trkpt>
      <trkpt lat="46.57099" lon="6.11081">
        <ele>1274.2</ele>
        <time>2024-02-03T10:24:37Z</time>
      </trkpt>
      <trkpt lat="46.57101" lon="6.11067">
        <ele>1274.5</ele>
        <time>2024-02-03T10:24:47Z</time>
      </trkpt>
      <trkpt lat="46.57103" lon="6.11054">
        <ele>1274.6</ele>
        <time>2024-02-03T10:24:58Z</time>
      </trkpt>
      <trkpt lat="46.57108" lon="6.11042">
        <ele>1274</ele>
        <time>2024-02-03T10:25:07Z</time>
      </trkpt>
      <trkpt lat="46.57115" lon="6.11034">
        <ele>1273.5</ele>
        <time>2024-02-03T10:25:13Z</time>
      </trkpt>
      <trkpt lat="46.57123" lon="6.11028">
        <ele>1273.8</ele>
        <time>2024-02-03T10:25:22Z</time>
      </trkpt>
      <trkpt lat="46.57132" lon="6.11031">
        <ele>1274.3</ele>
        <time>2024-02-03T10:25:29Z</time>
      </trkpt>
      <trkpt lat="46.5714" lon="6.11039">
        <ele>1273.7</ele>
        <time>2024-02-03T10:25:41Z</time>
      </trkpt>
      <trkpt lat="46.57149" lon="6.11043">
        <ele>1272.6</ele>
        <time>2024-02-03T10:25:48Z</time>
      </trkpt>
      <trkpt lat="46.57159" lon="6.1104">
        <ele>1272.3</ele>
        <time>2024-02-03T10:25:56Z</time>
      </trkpt>
      <trkpt lat="46.57168" lon="6.1104">
        <ele>1271.4</ele>
        <time>2024-02-03T10:26:03Z</time>
      </trkpt>
      <trkpt lat="46.57175" lon="6.11031">
        <ele>1270.2</ele>
        <time>2024-02-03T10:26:14Z</time>
      </trkpt>
      <trkpt lat="46.57182" lon="6.11021">
        <ele>1268.8</ele>
        <time>2024-02-03T10:26:25Z</time>
      </trkpt>
      <trkpt lat="46.5719" lon="6.11011">
        <ele>1267.1</ele>
        <time>2024-02-03T10:26:34Z</time>
      </trkpt>
      <trkpt lat="46.57194" lon="6.10999">
        <ele>1266.1</ele>
        <time>2024-02-03T10:26:44Z</time>
      </trkpt>
      <trkpt lat="46.572" lon="6.10989">
        <ele>1266.5</ele>
        <time>2024-02-03T10:26:57Z</time>
      </trkpt>
      <trkpt lat="46.57205" lon="6.10976">
        <ele>1267</ele>
        <time>2024-02-03T10:27:05Z</time>
      </trkpt>
      <trkpt lat="46.57213" lon="6.10968">
        <ele>1266.9</ele>
        <time>2024-02-03T10:27:14Z</time>
      </trkpt>
      <trkpt lat="46.57218" lon="6.10957">
        <ele>1267.2</ele>
        <time>2024-02-03T10:27:21Z</time>
      </trkpt>
      <trkpt lat="46.57223" lon="6.10946">
        <ele>1267.9</ele>
        <time>2024-02-03T10:27:29Z</time>
      </trkpt>
      <trkpt lat="46.57227" lon="6.10933">
        <ele>1268.4</ele>
        <time>2024-02-03T10:27:41Z</time>
      </trkpt>
      <trkpt lat="46.57232" lon="6.10921">
        <ele>1269.1</ele>
        <time>2024-02-03T10:27:51Z</time>
      </trkpt>
      <trkpt lat="46.57233" lon="6.10907">
        <ele>1269.9</ele>
        <time>2024-02-03T10:28:02Z</time>
      </trkpt>
      <trkpt lat="46.57234" lon="6.10893">
        <ele>1270.6</ele>
        <time>2024-02-03T10:28:14Z</time>
      </trkpt>
      <trkpt lat="46.5724" lon="6.10883">
        <ele>1271.6</ele>
        <time>2024-02-03T10:28:24Z</time>
      </trkpt>
      <trkpt lat="46.57246" lon="6.10872">
        <ele>1272.4</ele>
        <time>2024-02-03T10:28:34Z</time>
      </trkpt>
      <trkpt lat="46.57252" lon="6.10862">
        <ele>1273.1</ele>
        <time>2024-02-03T10:28:44Z</time>
      </trkpt>
      <trkpt lat="46.57258" lon="6.10852">
        <ele>1274.2</ele>
        <time>2024-02-03T10:28:54Z</time>
      </trkpt>
      <trkpt lat="46.57263" lon="6.1084">
        <ele>1275.1</ele>
        <time>2024-02-03T10:29:06Z</time>
      </trkpt>
      <trkpt lat="46.5727" lon="6.10829">
        <ele>1276.2</ele>
        <time>2024-02-03T10:29:19Z</time>
      </trkpt>
      <trkpt lat="46.57275" lon="6.10818">
        <ele>1277.4</ele>
        <time>2024-02-03T10:29:27Z</time>
      </trkpt>
      <trkpt lat="46.57282" lon="6.10808">
        <ele>1277.8</ele>
        <time>2024-02-03T10:29:38Z</time>
      </trkpt>
      <trkpt lat="46.57287" lon="6.10796">
        <ele>1279.2</ele>
        <time>2024-02-03T10:29:47Z</time>
      </trkpt>
      <trkpt lat="46.57293" lon="6.10784">
        <ele>1280.2</ele>
        <time>2024-02-03T10:29:56Z</time>
      </trkpt>
      <trkpt lat="46.57298" lon="6.10773">
        <ele>1281</ele>
        <time>2024-02-03T10:30:08Z</time>
      </trkpt>
      <trkpt lat="46.57303" lon="6.10763">
        <ele>1281.3</ele>
        <time>2024-02-03T10:30:18Z</time>
      </trkpt>
      <trkpt lat="46.57307" lon="6.1075">
        <ele>1282</ele>
        <time>2024-02-03T10:30:28Z</time>
      </trkpt>
      <trkpt lat="46.57313" lon="6.1074">
        <ele>1282.1</ele>
        <time>2024-02-03T10:30:39Z</time>
      </trkpt>
      <trkpt lat="46.57319" lon="6.10731">
        <ele>1281.5</ele>
        <time>2024-02-03T10:30:49Z</time>
      </trkpt>
      <trkpt lat="46.57321" lon="6.10717">
        <ele>1281.7</ele>
        <time>2024-02-03T10:31:00Z</time>
      </trkpt>
      <trkpt lat="46.57327" lon="6.10708">
        <ele>1281.9</ele>
        <time>2024-02-03T10:31:11Z</time>
      </trkpt>
      <trkpt lat="46.57335" lon="6.10699">
        <ele>1280.5</ele>
        <time>2024-02-03T10:31:20Z</time>
      </trkpt>
      <trkpt lat="46.57342" lon="6.10689">
        <ele>1280.8</ele>
        <time>2024-02-03T10:31:28Z</time>
      </trkpt>
      <trkpt lat="46.57347" lon="6.10678">
        <ele>1281.1</ele>
        <time>2024-02-03T10:31:34Z</time>
      </trkpt>
      <trkpt lat="46.57352" lon="6.10667">
        <ele>1280.2</ele>
        <time>2024-02-03T10:31:42Z</time>
      </trkpt>
      <trkpt lat="46.57356" lon="6.10655">
        <ele>1277.7</ele>
        <time>2024-02-03T10:31:50Z</time>
      </trkpt>
      <trkpt lat="46.57355" lon="6.10641">
        <ele>1276.5</ele>
        <time>2024-02-03T10:32:03Z</time>
      </trkpt>
      <trkpt lat="46.57351" lon="6.10629">
        <ele>1277.1</ele>
        <time>2024-02-03T10:32:15Z</time>
      </trkpt>
      <trkpt lat="46.57346" lon="6.10618">
        <ele>1278.8</ele>
        <time>2024-02-03T10:32:29Z</time>
      </trkpt>
      <trkpt lat="46.57338" lon="6.1061">
        <ele>1282.7</ele>
        <time>2024-02-03T10:32:43Z</time>
      </trkpt>
      <trkpt lat="46.57333" lon="6.10599">
        <ele>1286.1</ele>
        <time>2024-02-03T10:32:56Z</time>
      </trkpt>
      <trkpt lat="46.57339" lon="6.10588">
        <ele>1283.1</ele>
        <time>2024-02-03T10:33:17Z</time>
      </trkpt>
      <trkpt lat="46.57341" lon="6.10575">
        <ele>1282.4</ele>
        <time>2024-02-03T10:33:24Z</time>
      </trkpt>
      <trkpt lat="46.57339" lon="6.10562">
        <ele>1283.9</ele>
        <time>2024-02-03T10:33:35Z</time>
      </trkpt>
      <trkpt lat="46.57333" lon="6.10551">
        <ele>1286.9</ele>
        <time>2024-02-03T10:33:45Z</time>
      </trkpt>
      <trkpt lat="46.57325" lon="6.10544">
        <ele>1288.7</ele>
        <time>2024-02-03T10:33:57Z</time>
      </trkpt>
      <trkpt lat="46.5732" lon="6.10532">
        <ele>1288.7</ele>
        <time>2024-02-03T10:34:08Z</time>
      </trkpt>
      <trkpt lat="46.57314" lon="6.10521">
        <ele>1288.9</ele>
        <time>2024-02-03T10:34:20Z</time>
      </trkpt>
      <trkpt lat="46.57307" lon="6.10511">
        <ele>1290.1</ele>
        <time>2024-02-03T10:34:31Z</time>
      </trkpt>
      <trkpt lat="46.57303" lon="6.10498">
        <ele>1290.1</ele>
        <time>2024-02-03T10:34:42Z</time>
      </trkpt>
      <trkpt lat="46.573" lon="6.10485">
        <ele>1290.1</ele>
        <time>2024-02-03T10:34:52Z</time>
      </trkpt>
      <trkpt lat="46.57296" lon="6.10472">
        <ele>1290</ele>
        <time>2024-02-03T10:35:03Z</time>
      </trkpt>
      <trkpt lat="46.57293" lon="6.1046">
        <ele>1288.8</ele>
        <time>2024-02-03T10:35:11Z</time>
      </trkpt>
      <trkpt lat="46.57291" lon="6.10446">
        <ele>1287.8</ele>
        <time>2024-02-03T10:35:20Z</time>
      </trkpt>
      <trkpt lat="46.57286" lon="6.10434">
        <ele>1287.2</ele>
        <time>2024-02-03T10:35:30Z</time>
      </trkpt>
      <trkpt lat="46.57294" lon="6.10424">
        <ele>1285.5</ele>
        <time>2024-02-03T10:35:40Z</time>
      </trkpt>
      <trkpt lat="46.57301" lon="6.10415">
        <ele>1283.4</ele>
        <time>2024-02-03T10:35:50Z</time>
      </trkpt>
      <trkpt lat="46.57304" lon="6.10402">
        <ele>1275</ele>
        <time>2024-02-03T10:36:04Z</time>
      </trkpt>
      <trkpt lat="46.57301" lon="6.10415">
        <ele>1283.2</ele>
        <time>2024-02-03T10:41:48Z</time>
      </trkpt>
      <trkpt lat="46.57294" lon="6.10423">
        <ele>1285.4</ele>
        <time>2024-02-03T10:42:05Z</time>
      </trkpt>
      <trkpt lat="46.57294" lon="6.10437">
        <ele>1286.4</ele>
        <time>2024-02-03T10:42:22Z</time>
      </trkpt>
      <trkpt lat="46.57301" lon="6.10448">
        <ele>1286.3</ele>
        <time>2024-02-03T10:42:35Z</time>
      </trkpt>
      <trkpt lat="46.573" lon="6.10461">
        <ele>1288.4</ele>
        <time>2024-02-03T10:42:48Z</time>
      </trkpt>
      <trkpt lat="46.573" lon="6.10475">
        <ele>1290</ele>
        <time>2024-02-03T10:42:58Z</time>
      </trkpt>
      <trkpt lat="46.57304" lon="6.10486">
        <ele>1290</ele>
        <time>2024-02-03T10:43:09Z</time>
      </trkpt>
      <trkpt lat="46.5731" lon="6.10497">
        <ele>1287.4</ele>
        <time>2024-02-03T10:43:17Z</time>
      </trkpt>
      <trkpt lat="46.57314" lon="6.10509">
        <ele>1286.6</ele>
        <time>2024-02-03T10:43:27Z</time>
      </trkpt>
      <trkpt lat="46.57323" lon="6.10514">
        <ele>1283.9</ele>
        <time>2024-02-03T10:43:37Z</time>
      </trkpt>
      <trkpt lat="46.57326" lon="6.10526">
        <ele>1286.5</ele>
        <time>2024-02-03T10:43:50Z</time>
      </trkpt>
      <trkpt lat="46.57334" lon="6.10533">
        <ele>1285.2</ele>
        <time>2024-02-03T10:44:00Z</time>
      </trkpt>
      <trkpt lat="46.57341" lon="6.10543">
        <ele>1280.7</ele>
        <time>2024-02-03T10:44:09Z</time>
      </trkpt>
      <trkpt lat="46.57346" lon="6.10555">
        <ele>1279.8</ele>
        <time>2024-02-03T10:44:22Z</time>
      </trkpt>
      <trkpt lat="46.57349" lon="6.10568">
        <ele>1277.6</ele>
        <time>2024-02-03T10:44:34Z</time>
      </trkpt>
      <trkpt lat="46.57346" lon="6.10581">
        <ele>1279.4</ele>
        <time>2024-02-03T10:44:49Z</time>
      </trkpt>
      <trkpt lat="46.57349" lon="6.10594">
        <ele>1276.9</ele>
        <time>2024-02-03T10:45:07Z</time>
      </trkpt>
      <trkpt lat="46.57353" lon="6.10607">
        <ele>1274.7</ele>
        <time>2024-02-03T10:45:24Z</time>
      </trkpt>
      <trkpt lat="46.57358" lon="6.10618">
        <ele>1272.5</ele>
        <time>2024-02-03T10:45:36Z</time>
      </trkpt>
      <trkpt lat="46.57361" lon="6.1063">
        <ele>1272.8</ele>
        <time>2024-02-03T10:45:50Z</time>
      </trkpt>
      <trkpt lat="46.57361" lon="6.10617">
        <ele>1270.8</ele>
        <time>2024-02-03T10:46:29Z</time>
      </trkpt>
      <trkpt lat="46.57365" lon="6.10604">
        <ele>1268.9</ele>
        <time>2024-02-03T10:46:41Z</time>
      </trkpt>
      <trkpt lat="46.5737" lon="6.10593">
        <ele>1266.6</ele>
        <time>2024-02-03T10:46:50Z</time>
      </trkpt>
      <trkpt lat="46.57375" lon="6.1058">
        <ele>1263.4</ele>
        <time>2024-02-03T10:46:58Z</time>
      </trkpt>
      <trkpt lat="46.57378" lon="6.10567">
        <ele>1260.5</ele>
        <time>2024-02-03T10:47:08Z</time>
      </trkpt>
      <trkpt lat="46.57376" lon="6.10553">
        <ele>1260</ele>
        <time>2024-02-03T10:47:21Z</time>
      </trkpt>
      <trkpt lat="46.5737" lon="6.10544">
        <ele>1260.6</ele>
        <time>2024-02-03T10:47:37Z</time>
      </trkpt>
      <trkpt lat="46.57369" lon="6.1053">
        <ele>1256.5</ele>
        <time>2024-02-03T10:47:54Z</time>
      </trkpt>
      <trkpt lat="46.57369" lon="6.10516">
        <ele>1251.4</ele>
        <time>2024-02-03T10:48:05Z</time>
      </trkpt>
      <trkpt lat="46.57365" lon="6.10503">
        <ele>1249.7</ele>
        <time>2024-02-03T10:48:18Z</time>
      </trkpt>
      <trkpt lat="46.57363" lon="6.1049">
        <ele>1246.4</ele>
        <time>2024-02-03T10:48:27Z</time>
      </trkpt>
      <trkpt lat="46.57366" lon="6.10477">
        <ele>1241</ele>
        <time>2024-02-03T10:48:45Z</time>
      </trkpt>
      <trkpt lat="46.57369" lon="6.10464">
        <ele>1235.2</ele>
        <time>2024-02-03T10:48:58Z</time>
      </trkpt>
      <trkpt lat="46.5737" lon="6.1045">
        <ele>1230.8</ele>
        <time>2024-02-03T10:49:16Z</time>
      </trkpt>
      <trkpt lat="46.57371" lon="6.10436">
        <ele>1227.2</ele>
        <time>2024-02-03T10:49:33Z</time>
      </trkpt>
      <trkpt lat="46.57371" lon="6.10423">
        <ele>1224.8</ele>
        <time>2024-02-03T10:49:52Z</time>
      </trkpt>
      <trkpt lat="46.57373" lon="6.10409">
        <ele>1220.9</ele>
        <time>2024-02-03T10:50:09Z</time>
      </trkpt>
      <trkpt lat="46.5737" lon="6.10396">
        <ele>1220</ele>
        <time>2024-02-03T10:50:23Z</time>
      </trkpt>
      <trkpt lat="46.57372" lon="6.10382">
        <ele>1215.5</ele>
        <time>2024-02-03T10:50:34Z</time>
      </trkpt>
      <trkpt lat="46.57373" lon="6.10369">
        <ele>1211</ele>
        <time>2024-02-03T10:50:49Z</time>
      </trkpt>
      <trkpt lat="46.57374" lon="6.10355">
        <ele>1206.2</ele>
        <time>2024-02-03T10:51:01Z</time>
      </trkpt>
      <trkpt lat="46.57372" lon="6.10342">
        <ele>1204.3</ele>
        <time>2024-02-03T10:51:12Z</time>
      </trkpt>
      <trkpt lat="46.57371" lon="6.10329">
        <ele>1200.7</ele>
        <time>2024-02-03T10:51:24Z</time>
      </trkpt>
      <trkpt lat="46.5737" lon="6.10315">
        <ele>1196.9</ele>
        <time>2024-02-03T10:51:36Z</time>
      </trkpt>
      <trkpt lat="46.57369" lon="6.10302">
        <ele>1193.7</ele>
        <time>2024-02-03T10:51:48Z</time>
      </trkpt>
      <trkpt lat="46.57369" lon="6.10288">
        <ele>1189.5</ele>
        <time>2024-02-03T10:51:58Z</time>
      </trkpt>
      <trkpt lat="46.57366" lon="6.10276">
        <ele>1187.2</ele>
        <time>2024-02-03T10:52:10Z</time>
      </trkpt>
      <trkpt lat="46.57362" lon="6.10262">
        <ele>1184</ele>
        <time>2024-02-03T10:52:21Z</time>
      </trkpt>
      <trkpt lat="46.57356" lon="6.10251">
        <ele>1182.5</ele>
        <time>2024-02-03T10:52:39Z</time>
      </trkpt>
      <trkpt lat="46.57351" lon="6.1024">
        <ele>1180.3</ele>
        <time>2024-02-03T10:52:50Z</time>
      </trkpt>
      <trkpt lat="46.57351" lon="6.10226">
        <ele>1174.4</ele>
        <time>2024-02-03T10:53:01Z</time>
      </trkpt>
      <trkpt lat="46.57346" lon="6.10215">
        <ele>1172.4</ele>
        <time>2024-02-03T10:53:16Z</time>
      </trkpt>
      <trkpt lat="46.5734" lon="6.10206">
        <ele>1171.5</ele>
        <time>2024-02-03T10:53:28Z</time>
      </trkpt>
      <trkpt lat="46.57335" lon="6.10194">
        <ele>1168.4</ele>
        <time>2024-02-03T10:53:39Z</time>
      </trkpt>
      <trkpt lat="46.57335" lon="6.1018">
        <ele>1163</ele>
        <time>2024-02-03T10:53:50Z</time>
      </trkpt>
      <trkpt lat="46.57331" lon="6.10168">
        <ele>1159.1</ele>
        <time>2024-02-03T10:54:03Z</time>
      </trkpt>
      <trkpt lat="46.57332" lon="6.10155">
        <ele>1154.8</ele>
        <time>2024-02-03T10:54:22Z</time>
      </trkpt>
      <trkpt lat="46.57333" lon="6.10141">
        <ele>1150.7</ele>
        <time>2024-02-03T10:54:32Z</time>
      </trkpt>
      <trkpt lat="46.57336" lon="6.10128">
        <ele>1148.2</ele>
        <time>2024-02-03T10:54:41Z</time>
      </trkpt>
      <trkpt lat="46.5734" lon="6.10116">
        <ele>1146.4</ele>
        <time>2024-02-03T10:54:49Z</time>
      </trkpt>
      <trkpt lat="46.5735" lon="6.1011">
        <ele>1145.4</ele>
        <time>2024-02-03T10:54:59Z</time>
      </trkpt>
      <trkpt lat="46.5736" lon="6.1011">
        <ele>1145</ele>
        <time>2024-02-03T10:55:07Z</time>
      </trkpt>
      <trkpt lat="46.57368" lon="6.10112">
        <ele>1144.8</ele>
        <time>2024-02-03T10:55:15Z</time>
      </trkpt>
      <trkpt lat="46.57377" lon="6.10109">
        <ele>1144.4</ele>
        <time>2024-02-03T10:55:24Z</time>
      </trkpt>
      <trkpt lat="46.57386" lon="6.10106">
        <ele>1143.9</ele>
        <time>2024-02-03T10:55:32Z</time>
      </trkpt>
      <trkpt lat="46.57396" lon="6.10105">
        <ele>1143.5</ele>
        <time>2024-02-03T10:55:44Z</time>
      </trkpt>
      <trkpt lat="46.57405" lon="6.10103">
        <ele>1142.9</ele>
        <time>2024-02-03T10:55:55Z</time>
      </trkpt>
      <trkpt lat="46.57413" lon="6.10096">
        <ele>1142.1</ele>
        <time>2024-02-03T10:56:08Z</time>
      </trkpt>
      <trkpt lat="46.57421" lon="6.1009">
        <ele>1141</ele>
        <time>2024-02-03T10:56:20Z</time>
      </trkpt>
      <trkpt lat="46.5743" lon="6.10087">
        <ele>1139.8</ele>
        <time>2024-02-03T10:59:04Z</time>
      </trkpt>
      <trkpt lat="46.5744" lon="6.10083">
        <ele>1138.4</ele>
        <time>2024-02-03T10:59:15Z</time>
      </trkpt>
      <trkpt lat="46.5745" lon="6.10083">
        <ele>1137.6</ele>
        <time>2024-02-03T10:59:22Z</time>
      </trkpt>
      <trkpt lat="46.5746" lon="6.10086">
        <ele>1137</ele>
        <time>2024-02-03T10:59:31Z</time>
      </trkpt>
      <trkpt lat="46.57469" lon="6.10086">
        <ele>1136.3</ele>
        <time>2024-02-03T10:59:39Z</time>
      </trkpt>
      <trkpt lat="46.57478" lon="6.10091">
        <ele>1135.8</ele>
        <time>2024-02-03T10:59:48Z</time>
      </trkpt>
      <trkpt lat="46.57486" lon="6.10097">
        <ele>1135.2</ele>
        <time>2024-02-03T10:59:55Z</time>
      </trkpt>
      <trkpt lat="46.57495" lon="6.10103">
        <ele>1134.5</ele>
        <time>2024-02-03T11:00:04Z</time>
      </trkpt>
      <trkpt lat="46.57503" lon="6.1011">
        <ele>1133.7</ele>
        <time>2024-02-03T11:00:14Z</time>
      </trkpt>
      <trkpt lat="46.57512" lon="6.1011">
        <ele>1132.7</ele>
        <time>2024-02-03T11:00:26Z</time>
      </trkpt>
      <trkpt lat="46.57514" lon="6.10097">
        <ele>1132.4</ele>
        <time>2024-02-03T11:00:48Z</time>
      </trkpt>
      <trkpt lat="46.57518" lon="6.10084">
        <ele>1132.1</ele>
        <time>2024-02-03T11:00:57Z</time>
      </trkpt>
      <trkpt lat="46.57522" lon="6.10072">
        <ele>1131.3</ele>
        <time>2024-02-03T11:01:06Z</time>
      </trkpt>
      <trkpt lat="46.57521" lon="6.10059">
        <ele>1131.1</ele>
        <time>2024-02-03T11:01:14Z</time>
      </trkpt>
      <trkpt lat="46.57516" lon="6.10047">
        <ele>1131.2</ele>
        <time>2024-02-03T11:01:22Z</time>
      </trkpt>
      <trkpt lat="46.57513" lon="6.10033">
        <ele>1130.9</ele>
        <time>2024-02-03T11:01:30Z</time>
      </trkpt>
      <trkpt lat="46.5751" lon="6.1002">
        <ele>1130.1</ele>
        <time>2024-02-03T11:01:40Z</time>
      </trkpt>
      <trkpt lat="46.57506" lon="6.10006">
        <ele>1129.2</ele>
        <time>2024-02-03T11:01:48Z</time>
      </trkpt>
      <trkpt lat="46.57504" lon="6.09994">
        <ele>1128.3</ele>
        <time>2024-02-03T11:01:57Z</time>
      </trkpt>
      <trkpt lat="46.57501" lon="6.09981">
        <ele>1127.5</ele>
        <time>2024-02-03T11:02:04Z</time>
      </trkpt>
      <trkpt lat="46.57496" lon="6.09969">
        <ele>1127.2</ele>
        <time>2024-02-03T11:02:12Z</time>
      </trkpt>
      <trkpt lat="46.57491" lon="6.09958">
        <ele>1127.1</ele>
        <time>2024-02-03T11:02:21Z</time>
      </trkpt>
      <trkpt lat="46.57488" lon="6.09945">
        <ele>1126.7</ele>
        <time>2024-02-03T11:02:30Z</time>
      </trkpt>
      <trkpt lat="46.57484" lon="6.09932">
        <ele>1126.5</ele>
        <time>2024-02-03T11:02:39Z</time>
      </trkpt>
      <trkpt lat="46.5748" lon="6.09919">
        <ele>1126</ele>
        <time>2024-02-03T11:02:47Z</time>
      </trkpt>
      <trkpt lat="46.57479" lon="6.09904">
        <ele>1126</ele>
        <time>2024-02-03T11:02:56Z</time>
      </trkpt>
      <trkpt lat="46.57477" lon="6.0989">
        <ele>1126.1</ele>
        <time>2024-02-03T11:03:04Z</time>
      </trkpt>
      <trkpt lat="46.57478" lon="6.09876">
        <ele>1125.7</ele>
        <time>2024-02-03T11:03:12Z</time>
      </trkpt>
      <trkpt lat="46.5748" lon="6.09863">
        <ele>1125.1</ele>
        <time>2024-02-03T11:03:20Z</time>
      </trkpt>
      <trkpt lat="46.5748" lon="6.09849">
        <ele>1124.5</ele>
        <time>2024-02-03T11:03:29Z</time>
      </trkpt>
      <trkpt lat="46.5748" lon="6.09836">
        <ele>1124.1</ele>
        <time>2024-02-03T11:03:38Z</time>
      </trkpt>
      <trkpt lat="46.57484" lon="6.09824">
        <ele>1122.7</ele>
        <time>2024-02-03T11:03:48Z</time>
      </trkpt>
      <trkpt lat="46.57487" lon="6.09812">
        <ele>1121.5</ele>
        <time>2024-02-03T11:03:58Z</time>
      </trkpt>
      <trkpt lat="46.57492" lon="6.09799">
        <ele>1120</ele>
        <time>2024-02-03T11:04:07Z</time>
      </trkpt>
      <trkpt lat="46.57493" lon="6.09786">
        <ele>1119.2</ele>
        <time>2024-02-03T11:04:16Z</time>
      </trkpt>
      <trkpt lat="46.57487" lon="6.09777">
        <ele>1119.2</ele>
        <time>2024-02-03T11:04:28Z</time>
      </trkpt>
      <trkpt lat="46.57481" lon="6.09765">
        <ele>1118</ele>
        <time>2024-02-03T11:04:44Z</time>
      </trkpt>
      <trkpt lat="46.57483" lon="6.09752">
        <ele>1115.9</ele>
        <time>2024-02-03T11:04:56Z</time>
      </trkpt>
      <trkpt lat="46.57483" lon="6.09738">
        <ele>1114.1</ele>
        <time>2024-02-03T11:05:07Z</time>
      </trkpt>
      <trkpt lat="46.57488" lon="6.09726">
        <ele>1112.5</ele>
        <time>2024-02-03T11:05:17Z</time>
      </trkpt>
      <trkpt lat="46.57492" lon="6.09714">
        <ele>1110.8</ele>
        <time>2024-02-03T11:05:28Z</time>
      </trkpt>
      <trkpt lat="46.57494" lon="6.09701">
        <ele>1108.9</ele>
        <time>2024-02-03T11:05:38Z</time>
      </trkpt>
      <trkpt lat="46.575" lon="6.09689">
        <ele>1107.4</ele>
        <time>2024-02-03T11:05:48Z</time>
      </trkpt>
      <trkpt lat="46.57504" lon="6.09676">
        <ele>1105.5</ele>
        <time>2024-02-03T11:05:58Z</time>
      </trkpt>
      <trkpt lat="46.5751" lon="6.09665">
        <ele>1103.7</ele>
        <time>2024-02-03T11:06:08Z</time>
      </trkpt>
      <trkpt lat="46.57514" lon="6.09653">
        <ele>1102</ele>
        <time>2024-02-03T11:06:18Z</time>
      </trkpt>
      <trkpt lat="46.57522" lon="6.09645">
        <ele>1100.3</ele>
        <time>2024-02-03T11:06:28Z</time>
      </trkpt>
      <trkpt lat="46.57527" lon="6.09633">
        <ele>1098.7</ele>
        <time>2024-02-03T11:06:39Z</time>
      </trkpt>
      <trkpt lat="46.57533" lon="6.09624">
        <ele>1096.9</ele>
        <time>2024-02-03T11:06:50Z</time>
      </trkpt>
      <trkpt lat="46.57537" lon="6.0961">
        <ele>1095.6</ele>
        <time>2024-02-03T11:07:01Z</time>
      </trkpt>
      <trkpt lat="46.57542" lon="6.09598">
        <ele>1094.7</ele>
        <time>2024-02-03T11:07:11Z</time>
      </trkpt>
      <trkpt lat="46.57543" lon="6.09585">
        <ele>1094.4</ele>
        <time>2024-02-03T11:07:20Z</time>
      </trkpt>
      <trkpt lat="46.57541" lon="6.09571">
        <ele>1094.6</ele>
        <time>2024-02-03T11:07:27Z</time>
      </trkpt>
      <trkpt lat="46.5754" lon="6.09557">
        <ele>1094.6</ele>
        <time>2024-02-03T11:07:36Z</time>
      </trkpt>
      <trkpt lat="46.57541" lon="6.09544">
        <ele>1094.2</ele>
        <time>2024-02-03T11:07:45Z</time>
      </trkpt>
      <trkpt lat="46.57539" lon="6.0953">
        <ele>1093.7</ele>
        <time>2024-02-03T11:07:54Z</time>
      </trkpt>
      <trkpt lat="46.57539" lon="6.09517">
        <ele>1093.6</ele>
        <time>2024-02-03T11:08:05Z</time>
      </trkpt>
      <trkpt lat="46.57541" lon="6.09503">
        <ele>1093.5</ele>
        <time>2024-02-03T11:08:18Z</time>
      </trkpt>
      <trkpt lat="46.57545" lon="6.09489">
        <ele>1093.8</ele>
        <time>2024-02-03T11:08:26Z</time>
      </trkpt>
      <trkpt lat="46.57549" lon="6.09477">
        <ele>1094.1</ele>
        <time>2024-02-03T11:08:35Z</time>
      </trkpt>
      <trkpt lat="46.57554" lon="6.09466">
        <ele>1094.3</ele>
        <time>2024-02-03T11:08:44Z</time>
      </trkpt>
      <trkpt lat="46.57559" lon="6.09455">
        <ele>1094.4</ele>
        <time>2024-02-03T11:08:56Z</time>
      </trkpt>
      <trkpt lat="46.57564" lon="6.09443">
        <ele>1094.4</ele>
        <time>2024-02-03T11:09:20Z</time>
      </trkpt>
      <trkpt lat="46.57566" lon="6.09429">
        <ele>1093.9</ele>
        <time>2024-02-03T11:09:31Z</time>
      </trkpt>
      <trkpt lat="46.5757" lon="6.09417">
        <ele>1093.5</ele>
        <time>2024-02-03T11:09:42Z</time>
      </trkpt>
      <trkpt lat="46.5757" lon="6.09404">
        <ele>1093.5</ele>
        <time>2024-02-03T11:09:56Z</time>
      </trkpt>
      <trkpt lat="46.57575" lon="6.09392">
        <ele>1093.3</ele>
        <time>2024-02-03T11:10:21Z</time>
      </trkpt>
      <trkpt lat="46.57577" lon="6.09379">
        <ele>1093.2</ele>
        <time>2024-02-03T11:10:31Z</time>
      </trkpt>
      <trkpt lat="46.57581" lon="6.09365">
        <ele>1093.1</ele>
        <time>2024-02-03T11:11:08Z</time>
      </trkpt>
      <trkpt lat="46.57588" lon="6.09357">
        <ele>1093.3</ele>
        <time>2024-02-03T11:11:18Z</time>
      </trkpt>
      <trkpt lat="46.57597" lon="6.09352">
        <ele>1093.6</ele>
        <time>2024-02-03T11:11:28Z</time>
      </trkpt>
      <trkpt lat="46.57606" lon="6.09355">
        <ele>1093.8</ele>
        <time>2024-02-03T11:11:37Z</time>
      </trkpt>
      <trkpt lat="46.57615" lon="6.09358">
        <ele>1094</ele>
        <time>2024-02-03T11:12:40Z</time>
      </trkpt>
      <trkpt lat="46.57624" lon="6.09363">
        <ele>1094</ele>
        <time>2024-02-03T11:13:02Z</time>
      </trkpt>
      <trkpt lat="46.57634" lon="6.09365">
        <ele>1094</ele>
        <time>2024-02-03T11:13:10Z</time>
      </trkpt>
      <trkpt lat="46.57642" lon="6.09371">
        <ele>1094.1</ele>
        <time>2024-02-03T11:13:18Z</time>
      </trkpt>
      <trkpt lat="46.57648" lon="6.09382">
        <ele>1094.3</ele>
        <time>2024-02-03T11:13:25Z</time>
      </trkpt>
      <trkpt lat="46.57656" lon="6.09391">
        <ele>1094.6</ele>
        <time>2024-02-03T11:13:33Z</time>
      </trkpt>
      <trkpt lat="46.57664" lon="6.094">
        <ele>1094.9</ele>
        <time>2024-02-03T11:13:41Z</time>
      </trkpt>
      <trkpt lat="46.57666" lon="6.09412">
        <ele>1095</ele>
        <time>2024-02-03T11:13:48Z</time>
      </trkpt>
      <trkpt lat="46.57671" lon="6.09424">
        <ele>1094.8</ele>
        <time>2024-02-03T11:13:55Z</time>
      </trkpt>
      <trkpt lat="46.57679" lon="6.09433">
        <ele>1094.7</ele>
        <time>2024-02-03T11:14:03Z</time>
      </trkpt>
      <trkpt lat="46.57687" lon="6.09438">
        <ele>1094.8</ele>
        <time>2024-02-03T11:14:09Z</time>
      </trkpt>
      <trkpt lat="46.57695" lon="6.09445">
        <ele>1095</ele>
        <time>2024-02-03T11:14:17Z</time>
      </trkpt>
      <trkpt lat="46.57702" lon="6.09454">
        <ele>1094.9</ele>
        <time>2024-02-03T11:14:24Z</time>
      </trkpt>
      <trkpt lat="46.5771" lon="6.09462">
        <ele>1094.9</ele>
        <time>2024-02-03T11:14:31Z</time>
      </trkpt>
      <trkpt lat="46.57718" lon="6.09467">
        <ele>1095.1</ele>
        <time>2024-02-03T11:14:39Z</time>
      </trkpt>
      <trkpt lat="46.57726" lon="6.09473">
        <ele>1095.1</ele>
        <time>2024-02-03T11:14:48Z</time>
      </trkpt>
      <trkpt lat="46.57734" lon="6.09482">
        <ele>1095.4</ele>
        <time>2024-02-03T11:14:56Z</time>
      </trkpt>
      <trkpt lat="46.5774" lon="6.09494">
        <ele>1095.6</ele>
        <time>2024-02-03T11:15:04Z</time>
      </trkpt>
      <trkpt lat="46.57746" lon="6.09506">
        <ele>1095.8</ele>
        <time>2024-02-03T11:15:12Z</time>
      </trkpt>
      <trkpt lat="46.57749" lon="6.0952">
        <ele>1095.9</ele>
        <time>2024-02-03T11:15:21Z</time>
      </trkpt>
      <trkpt lat="46.57753" lon="6.09531">
        <ele>1095.9</ele>
        <time>2024-02-03T11:15:28Z</time>
      </trkpt>
      <trkpt lat="46.57757" lon="6.09545">
        <ele>1095.5</ele>
        <time>2024-02-03T11:15:35Z</time>
      </trkpt>
      <trkpt lat="46.57759" lon="6.09557">
        <ele>1095.3</ele>
        <time>2024-02-03T11:15:43Z</time>
      </trkpt>
      <trkpt lat="46.57764" lon="6.09569">
        <ele>1095.3</ele>
        <time>2024-02-03T11:15:50Z</time>
      </trkpt>
      <trkpt lat="46.5777" lon="6.0958">
        <ele>1095.1</ele>
        <time>2024-02-03T11:15:57Z</time>
      </trkpt>
      <trkpt lat="46.57775" lon="6.09592">
        <ele>1095</ele>
        <time>2024-02-03T11:16:05Z</time>
      </trkpt>
      <trkpt lat="46.57772" lon="6.09605">
        <ele>1094.8</ele>
        <time>2024-02-03T11:16:11Z</time>
      </trkpt>
      <trkpt lat="46.57773" lon="6.09618">
        <ele>1094.8</ele>
        <time>2024-02-03T11:16:19Z</time>
      </trkpt>
      <trkpt lat="46.57776" lon="6.09631">
        <ele>1094.9</ele>
        <time>2024-02-03T11:16:27Z</time>
      </trkpt>
      <trkpt lat="46.57783" lon="6.09642">
        <ele>1094.9</ele>
        <time>2024-02-03T11:16:34Z</time>
      </trkpt>
      <trkpt lat="46.5779" lon="6.09653">
        <ele>1094.5</ele>
        <time>2024-02-03T11:16:43Z</time>
      </trkpt>
      <trkpt lat="46.57797" lon="6.09661">
        <ele>1094.2</ele>
        <time>2024-02-03T11:16:51Z</time>
      </trkpt>
      <trkpt lat="46.57806" lon="6.09665">
        <ele>1094.1</ele>
        <time>2024-02-03T11:17:00Z</time>
      </trkpt>
      <trkpt lat="46.57813" lon="6.09673">
        <ele>1094.2</ele>
        <time>2024-02-03T11:17:11Z</time>
      </trkpt>
      <trkpt lat="46.57821" lon="6.09681">
        <ele>1094.3</ele>
        <time>2024-02-03T11:17:21Z</time>
      </trkpt>
      <trkpt lat="46.5783" lon="6.09687">
        <ele>1094.2</ele>
        <time>2024-02-03T11:17:33Z</time>
      </trkpt>
      <trkpt lat="46.57835" lon="6.09699">
        <ele>1093.9</ele>
        <time>2024-02-03T11:17:43Z</time>
      </trkpt>
      <trkpt lat="46.57844" lon="6.09705">
        <ele>1094.2</ele>
        <time>2024-02-03T11:17:55Z</time>
      </trkpt>
      <trkpt lat="46.57852" lon="6.09713">
        <ele>1094.4</ele>
        <time>2024-02-03T11:18:35Z</time>
      </trkpt>
      <trkpt lat="46.57861" lon="6.09716">
        <ele>1095</ele>
        <time>2024-02-03T11:19:12Z</time>
      </trkpt>
      <trkpt lat="46.57868" lon="6.09706">
        <ele>1095.6</ele>
        <time>2024-02-03T11:41:25Z</time>
      </trkpt>
      <trkpt lat="46.57873" lon="6.09695">
        <ele>1096.3</ele>
        <time>2024-02-03T11:41:38Z</time>
      </trkpt>
      <trkpt lat="46.57882" lon="6.09688">
        <ele>1097.4</ele>
        <time>2024-02-03T11:41:53Z</time>
      </trkpt>
      <trkpt lat="46.57874" lon="6.09697">
        <ele>1096.4</ele>
        <time>2024-02-03T11:44:30Z</time>
      </trkpt>
      <trkpt lat="46.57869" lon="6.09708">
        <ele>1095.7</ele>
        <time>2024-02-03T11:44:49Z</time>
      </trkpt>
      <trkpt lat="46.5786" lon="6.09713">
        <ele>1094.9</ele>
        <time>2024-02-03T12:13:14Z</time>
      </trkpt>
      <trkpt lat="46.57868" lon="6.09721">
        <ele>1095.5</ele>
        <time>2024-02-03T12:21:44Z</time>
      </trkpt>
      <trkpt lat="46.57872" lon="6.09734">
        <ele>1095.2</ele>
        <time>2024-02-03T12:21:55Z</time>
      </trkpt>
      <trkpt lat="46.57877" lon="6.09745">
        <ele>1094.8</ele>
        <time>2024-02-03T12:22:06Z</time>
      </trkpt>
      <trkpt lat="46.57883" lon="6.09756">
        <ele>1094.6</ele>
        <time>2024-02-03T12:22:20Z</time>
      </trkpt>
      <trkpt lat="46.57889" lon="6.09766">
        <ele>1094.4</ele>
        <time>2024-02-03T12:22:30Z</time>
      </trkpt>
      <trkpt lat="46.57895" lon="6.09777">
        <ele>1094.5</ele>
        <time>2024-02-03T12:22:40Z</time>
      </trkpt>
      <trkpt lat="46.57902" lon="6.09787">
        <ele>1094.8</ele>
        <time>2024-02-03T12:22:49Z</time>
      </trkpt>
      <trkpt lat="46.57909" lon="6.09796">
        <ele>1094.9</ele>
        <time>2024-02-03T12:22:57Z</time>
      </trkpt>
      <trkpt lat="46.57916" lon="6.09806">
        <ele>1095</ele>
        <time>2024-02-03T12:23:07Z</time>
      </trkpt>
      <trkpt lat="46.57923" lon="6.09815">
        <ele>1095.6</ele>
        <time>2024-02-03T12:23:15Z</time>
      </trkpt>
      <trkpt lat="46.57931" lon="6.09821">
        <ele>1096.2</ele>
        <time>2024-02-03T12:23:25Z</time>
      </trkpt>
      <trkpt lat="46.57937" lon="6.09811">
        <ele>1097.1</ele>
        <time>2024-02-03T12:23:39Z</time>
      </trkpt>
      <trkpt lat="46.57945" lon="6.09802">
        <ele>1098.1</ele>
        <time>2024-02-03T12:23:50Z</time>
      </trkpt>
      <trkpt lat="46.57953" lon="6.09794">
        <ele>1098.6</ele>
        <time>2024-02-03T12:24:00Z</time>
      </trkpt>
      <trkpt lat="46.57961" lon="6.09788">
        <ele>1098.8</ele>
        <time>2024-02-03T12:24:10Z</time>
      </trkpt>
      <trkpt lat="46.5797" lon="6.09783">
        <ele>1099</ele>
        <time>2024-02-03T12:24:19Z</time>
      </trkpt>
      <trkpt lat="46.57979" lon="6.0978">
        <ele>1099</ele>
        <time>2024-02-03T12:24:32Z</time>
      </trkpt>
      <trkpt lat="46.57988" lon="6.09776">
        <ele>1099</ele>
        <time>2024-02-03T12:24:46Z</time>
      </trkpt>
      <trkpt lat="46.57993" lon="6.09765">
        <ele>1099.1</ele>
        <time>2024-02-03T12:24:58Z</time>
      </trkpt>
      <trkpt lat="46.57997" lon="6.09752">
        <ele>1099.1</ele>
        <time>2024-02-03T12:25:17Z</time>
      </trkpt>
      <trkpt lat="46.58003" lon="6.09741">
        <ele>1099.2</ele>
        <time>2024-02-03T12:25:28Z</time>
      </trkpt>
      <trkpt lat="46.58005" lon="6.09727">
        <ele>1099.7</ele>
        <time>2024-02-03T12:25:38Z</time>
      </trkpt>
      <trkpt lat="46.58008" lon="6.09713">
        <ele>1099.7</ele>
        <time>2024-02-03T12:25:47Z</time>
      </trkpt>
      <trkpt lat="46.58013" lon="6.09701">
        <ele>1099.5</ele>
        <time>2024-02-03T12:25:57Z</time>
      </trkpt>
      <trkpt lat="46.58017" lon="6.0969">
        <ele>1099.3</ele>
        <time>2024-02-03T12:26:05Z</time>
      </trkpt>
      <trkpt lat="46.58021" lon="6.09677">
        <ele>1098.8</ele>
        <time>2024-02-03T12:26:15Z</time>
      </trkpt>
      <trkpt lat="46.58025" lon="6.09664">
        <ele>1098.2</ele>
        <time>2024-02-03T12:26:24Z</time>
      </trkpt>
      <trkpt lat="46.5803" lon="6.09651">
        <ele>1097.8</ele>
        <time>2024-02-03T12:26:33Z</time>
      </trkpt>
      <trkpt lat="46.58033" lon="6.09639">
        <ele>1097.6</ele>
        <time>2024-02-03T12:26:40Z</time>
      </trkpt>
      <trkpt lat="46.58036" lon="6.09625">
        <ele>1097.7</ele>
        <time>2024-02-03T12:26:46Z</time>
      </trkpt>
      <trkpt lat="46.58041" lon="6.09613">
        <ele>1097.5</ele>
        <time>2024-02-03T12:26:55Z</time>
      </trkpt>
      <trkpt lat="46.58046" lon="6.096">
        <ele>1097.4</ele>
        <time>2024-02-03T12:27:03Z</time>
      </trkpt>
      <trkpt lat="46.5805" lon="6.09589">
        <ele>1097.4</ele>
        <time>2024-02-03T12:27:12Z</time>
      </trkpt>
      <trkpt lat="46.58055" lon="6.09575">
        <ele>1097.1</ele>
        <time>2024-02-03T12:27:20Z</time>
      </trkpt>
      <trkpt lat="46.5806" lon="6.09563">
        <ele>1096.5</ele>
        <time>2024-02-03T12:27:28Z</time>
      </trkpt>
      <trkpt lat="46.58065" lon="6.09552">
        <ele>1096.1</ele>
        <time>2024-02-03T12:27:35Z</time>
      </trkpt>
      <trkpt lat="46.58071" lon="6.0954">
        <ele>1095.9</ele>
        <time>2024-02-03T12:27:43Z</time>
      </trkpt>
      <trkpt lat="46.58079" lon="6.09531">
        <ele>1095.3</ele>
        <time>2024-02-03T12:27:52Z</time>
      </trkpt>
      <trkpt lat="46.58087" lon="6.09525">
        <ele>1094.9</ele>
        <time>2024-02-03T12:28:02Z</time>
      </trkpt>
      <trkpt lat="46.58094" lon="6.09517">
        <ele>1094.7</ele>
        <time>2024-02-03T12:28:12Z</time>
      </trkpt>
      <trkpt lat="46.58102" lon="6.09507">
        <ele>1094.1</ele>
        <time>2024-02-03T12:28:23Z</time>
      </trkpt>
      <trkpt lat="46.58104" lon="6.09494">
        <ele>1094</ele>
        <time>2024-02-03T12:28:33Z</time>
      </trkpt>
      <trkpt lat="46.58106" lon="6.0948">
        <ele>1094.3</ele>
        <time>2024-02-03T12:28:42Z</time>
      </trkpt>
      <trkpt lat="46.5811" lon="6.09468">
        <ele>1094.4</ele>
        <time>2024-02-03T12:28:51Z</time>
      </trkpt>
      <trkpt lat="46.58111" lon="6.09455">
        <ele>1095.3</ele>
        <time>2024-02-03T12:29:01Z</time>
      </trkpt>
      <trkpt lat="46.5811" lon="6.09441">
        <ele>1095.9</ele>
        <time>2024-02-03T12:29:09Z</time>
      </trkpt>
      <trkpt lat="46.58109" lon="6.09427">
        <ele>1095.4</ele>
        <time>2024-02-03T12:29:17Z</time>
      </trkpt>
      <trkpt lat="46.5811" lon="6.09414">
        <ele>1094.9</ele>
        <time>2024-02-03T12:29:24Z</time>
      </trkpt>
      <trkpt lat="46.58112" lon="6.09401">
        <ele>1094.4</ele>
        <time>2024-02-03T12:29:32Z</time>
      </trkpt>
      <trkpt lat="46.5811" lon="6.09387">
        <ele>1094</ele>
        <time>2024-02-03T12:29:42Z</time>
      </trkpt>
      <trkpt lat="46.58105" lon="6.09376">
        <ele>1094</ele>
        <time>2024-02-03T12:29:53Z</time>
      </trkpt>
      <trkpt lat="46.58102" lon="6.09363">
        <ele>1093.7</ele>
        <time>2024-02-03T12:30:04Z</time>
      </trkpt>
      <trkpt lat="46.58099" lon="6.09349">
        <ele>1094.3</ele>
        <time>2024-02-03T12:30:15Z</time>
      </trkpt>
      <trkpt lat="46.58097" lon="6.09337">
        <ele>1094.9</ele>
        <time>2024-02-03T12:30:29Z</time>
      </trkpt>
      <trkpt lat="46.58089" lon="6.09329">
        <ele>1096</ele>
        <time>2024-02-03T12:30:43Z</time>
      </trkpt>
      <trkpt lat="46.58084" lon="6.09316">
        <ele>1097.2</ele>
        <time>2024-02-03T12:30:54Z</time>
      </trkpt>
      <trkpt lat="46.58084" lon="6.09302">
        <ele>1098.1</ele>
        <time>2024-02-03T12:31:04Z</time>
      </trkpt>
      <trkpt lat="46.58082" lon="6.09288">
        <ele>1098.6</ele>
        <time>2024-02-03T12:31:12Z</time>
      </trkpt>
      <trkpt lat="46.58082" lon="6.09274">
        <ele>1099.1</ele>
        <time>2024-02-03T12:31:22Z</time>
      </trkpt>
      <trkpt lat="46.58083" lon="6.0926">
        <ele>1099.6</ele>
        <time>2024-02-03T12:31:32Z</time>
      </trkpt>
      <trkpt lat="46.58085" lon="6.09246">
        <ele>1100.1</ele>
        <time>2024-02-03T12:31:41Z</time>
      </trkpt>
      <trkpt lat="46.58089" lon="6.09233">
        <ele>1100.4</ele>
        <time>2024-02-03T12:31:50Z</time>
      </trkpt>
      <trkpt lat="46.58091" lon="6.0922">
        <ele>1100.4</ele>
        <time>2024-02-03T12:31:58Z</time>
      </trkpt>
      <trkpt lat="46.58095" lon="6.09206">
        <ele>1100.1</ele>
        <time>2024-02-03T12:32:06Z</time>
      </trkpt>
      <trkpt lat="46.58099" lon="6.09194">
        <ele>1099.8</ele>
        <time>2024-02-03T12:32:16Z</time>
      </trkpt>
      <trkpt lat="46.58102" lon="6.09179">
        <ele>1099.7</ele>
        <time>2024-02-03T12:32:24Z</time>
      </trkpt>
      <trkpt lat="46.58104" lon="6.09166">
        <ele>1099.5</ele>
        <time>2024-02-03T12:32:32Z</time>
      </trkpt>
      <trkpt lat="46.58106" lon="6.09153">
        <ele>1099.3</ele>
        <time>2024-02-03T12:32:39Z</time>
      </trkpt>
      <trkpt lat="46.58109" lon="6.0914">
        <ele>1099.1</ele>
        <time>2024-02-03T12:32:46Z</time>
      </trkpt>
      <trkpt lat="46.58113" lon="6.09128">
        <ele>1098.8</ele>
        <time>2024-02-03T12:32:53Z</time>
      </trkpt>
      <trkpt lat="46.58116" lon="6.09114">
        <ele>1098.4</ele>
        <time>2024-02-03T12:33:01Z</time>
      </trkpt>
      <trkpt lat="46.58122" lon="6.09104">
        <ele>1097.7</ele>
        <time>2024-02-03T12:33:09Z</time>
      </trkpt>
      <trkpt lat="46.58126" lon="6.09092">
        <ele>1097.1</ele>
        <time>2024-02-03T12:33:17Z</time>
      </trkpt>
      <trkpt lat="46.58131" lon="6.09078">
        <ele>1096.6</ele>
        <time>2024-02-03T12:33:25Z</time>
      </trkpt>
      <trkpt lat="46.58135" lon="6.09066">
        <ele>1096.3</ele>
        <time>2024-02-03T12:33:33Z</time>
      </trkpt>
      <trkpt lat="46.58139" lon="6.09054">
        <ele>1096</ele>
        <time>2024-02-03T12:33:42Z</time>
      </trkpt>
      <trkpt lat="46.58144" lon="6.09042">
        <ele>1095.6</ele>
        <time>2024-02-03T12:33:51Z</time>
      </trkpt>
      <trkpt lat="46.58149" lon="6.09031">
        <ele>1095.3</ele>
        <time>2024-02-03T12:33:58Z</time>
      </trkpt>
      <trkpt lat="46.58154" lon="6.09019">
        <ele>1095.1</ele>
        <time>2024-02-03T12:34:07Z</time>
      </trkpt>
      <trkpt lat="46.58149" lon="6.09006">
        <ele>1095.6</ele>
        <time>2024-02-03T12:34:19Z</time>
      </trkpt>
      <trkpt lat="46.58142" lon="6.08997">
        <ele>1095.9</ele>
        <time>2024-02-03T12:34:30Z</time>
      </trkpt>
      <trkpt lat="46.58134" lon="6.0899">
        <ele>1096.3</ele>
        <time>2024-02-03T12:34:40Z</time>
      </trkpt>
      <trkpt lat="46.58126" lon="6.08984">
        <ele>1096.7</ele>
        <time>2024-02-03T12:34:49Z</time>
      </trkpt>
      <trkpt lat="46.58116" lon="6.08983">
        <ele>1097.2</ele>
        <time>2024-02-03T12:34:59Z</time>
      </trkpt>
      <trkpt lat="46.58107" lon="6.08981">
        <ele>1097.4</ele>
        <time>2024-02-03T12:35:08Z</time>
      </trkpt>
      <trkpt lat="46.58097" lon="6.08978">
        <ele>1097.6</ele>
        <time>2024-02-03T12:35:18Z</time>
      </trkpt>
      <trkpt lat="46.58088" lon="6.08974">
        <ele>1097.8</ele>
        <time>2024-02-03T12:35:29Z</time>
      </trkpt>
      <trkpt lat="46.58078" lon="6.08971">
        <ele>1098.1</ele>
        <time>2024-02-03T12:35:41Z</time>
      </trkpt>
      <trkpt lat="46.58069" lon="6.08966">
        <ele>1098.4</ele>
        <time>2024-02-03T12:35:51Z</time>
      </trkpt>
      <trkpt lat="46.5806" lon="6.08963">
        <ele>1098.8</ele>
        <time>2024-02-03T12:36:01Z</time>
      </trkpt>
      <trkpt lat="46.5805" lon="6.08961">
        <ele>1099.2</ele>
        <time>2024-02-03T12:36:11Z</time>
      </trkpt>
      <trkpt lat="46.58042" lon="6.08956">
        <ele>1099.5</ele>
        <time>2024-02-03T12:36:21Z</time>
      </trkpt>
      <trkpt lat="46.58033" lon="6.08954">
        <ele>1099.8</ele>
        <time>2024-02-03T12:36:29Z</time>
      </trkpt>
      <trkpt lat="46.58023" lon="6.08951">
        <ele>1100.2</ele>
        <time>2024-02-03T12:36:38Z</time>
      </trkpt>
      <trkpt lat="46.58014" lon="6.0895">
        <ele>1100.6</ele>
        <time>2024-02-03T12:36:48Z</time>
      </trkpt>
      <trkpt lat="46.58005" lon="6.08944">
        <ele>1100.8</ele>
        <time>2024-02-03T12:36:58Z</time>
      </trkpt>
      <trkpt lat="46.57997" lon="6.08939">
        <ele>1101.3</ele>
        <time>2024-02-03T12:37:08Z</time>
      </trkpt>
      <trkpt lat="46.57987" lon="6.08935">
        <ele>1102.4</ele>
        <time>2024-02-03T12:37:18Z</time>
      </trkpt>
      <trkpt lat="46.57978" lon="6.08935">
        <ele>1103.3</ele>
        <time>2024-02-03T12:37:28Z</time>
      </trkpt>
      <trkpt lat="46.57969" lon="6.08929">
        <ele>1104.3</ele>
        <time>2024-02-03T12:37:39Z</time>
      </trkpt>
      <trkpt lat="46.5796" lon="6.08926">
        <ele>1105</ele>
        <time>2024-02-03T12:37:48Z</time>
      </trkpt>
      <trkpt lat="46.57952" lon="6.08919">
        <ele>1105.5</ele>
        <time>2024-02-03T12:37:57Z</time>
      </trkpt>
      <trkpt lat="46.57945" lon="6.0891">
        <ele>1105.7</ele>
        <time>2024-02-03T12:38:05Z</time>
      </trkpt>
      <trkpt lat="46.57937" lon="6.08903">
        <ele>1105.5</ele>
        <time>2024-02-03T12:38:14Z</time>
      </trkpt>
      <trkpt lat="46.57928" lon="6.08896">
        <ele>1105.2</ele>
        <time>2024-02-03T12:38:22Z</time>
      </trkpt>
      <trkpt lat="46.5792" lon="6.08887">
        <ele>1104.9</ele>
        <time>2024-02-03T12:38:30Z</time>
      </trkpt>
      <trkpt lat="46.57913" lon="6.08877">
        <ele>1104.5</ele>
        <time>2024-02-03T12:38:38Z</time>
      </trkpt>
      <trkpt lat="46.57906" lon="6.08869">
        <ele>1104.2</ele>
        <time>2024-02-03T12:38:47Z</time>
      </trkpt>
      <trkpt lat="46.57897" lon="6.08863">
        <ele>1104</ele>
        <time>2024-02-03T12:38:56Z</time>
      </trkpt>
      <trkpt lat="46.57888" lon="6.0886">
        <ele>1103.9</ele>
        <time>2024-02-03T12:39:04Z</time>
      </trkpt>
      <trkpt lat="46.57879" lon="6.08858">
        <ele>1103.5</ele>
        <time>2024-02-03T12:39:12Z</time>
      </trkpt>
      <trkpt lat="46.57871" lon="6.08852">
        <ele>1103</ele>
        <time>2024-02-03T12:39:20Z</time>
      </trkpt>
      <trkpt lat="46.57862" lon="6.08847">
        <ele>1102.5</ele>
        <time>2024-02-03T12:39:28Z</time>
      </trkpt>
      <trkpt lat="46.57853" lon="6.08846">
        <ele>1101.6</ele>
        <time>2024-02-03T12:39:36Z</time>
      </trkpt>
      <trkpt lat="46.57844" lon="6.08843">
        <ele>1100.5</ele>
        <time>2024-02-03T12:39:45Z</time>
      </trkpt>
      <trkpt lat="46.57835" lon="6.08846">
        <ele>1099.7</ele>
        <time>2024-02-03T12:39:53Z</time>
      </trkpt>
      <trkpt lat="46.57827" lon="6.08854">
        <ele>1100.3</ele>
        <time>2024-02-03T12:40:03Z</time>
      </trkpt>
      <trkpt lat="46.57819" lon="6.08861">
        <ele>1101</ele>
        <time>2024-02-03T12:40:12Z</time>
      </trkpt>
      <trkpt lat="46.57811" lon="6.08866">
        <ele>1101.9</ele>
        <time>2024-02-03T12:40:21Z</time>
      </trkpt>
      <trkpt lat="46.57802" lon="6.08872">
        <ele>1102.8</ele>
        <time>2024-02-03T12:40:30Z</time>
      </trkpt>
      <trkpt lat="46.57793" lon="6.08875">
        <ele>1103.9</ele>
        <time>2024-02-03T12:40:40Z</time>
      </trkpt>
      <trkpt lat="46.57784" lon="6.08879">
        <ele>1104.8</ele>
        <time>2024-02-03T12:40:50Z</time>
      </trkpt>
      <trkpt lat="46.57775" lon="6.08882">
        <ele>1105.6</ele>
        <time>2024-02-03T12:41:01Z</time>
      </trkpt>
      <trkpt lat="46.57766" lon="6.08887">
        <ele>1106.4</ele>
        <time>2024-02-03T12:41:11Z</time>
      </trkpt>
      <trkpt lat="46.57757" lon="6.08887">
        <ele>1107.4</ele>
        <time>2024-02-03T12:41:23Z</time>
      </trkpt>
      <trkpt lat="46.57747" lon="6.08885">
        <ele>1108.5</ele>
        <time>2024-02-03T12:41:36Z</time>
      </trkpt>
      <trkpt lat="46.57738" lon="6.08887">
        <ele>1109.1</ele>
        <time>2024-02-03T12:41:51Z</time>
      </trkpt>
      <trkpt lat="46.57728" lon="6.08888">
        <ele>1109.6</ele>
        <time>2024-02-03T12:42:00Z</time>
      </trkpt>
      <trkpt lat="46.57718" lon="6.08888">
        <ele>1110.2</ele>
        <time>2024-02-03T12:42:10Z</time>
      </trkpt>
      <trkpt lat="46.57709" lon="6.08886">
        <ele>1110.7</ele>
        <time>2024-02-03T12:42:24Z</time>
      </trkpt>
      <trkpt lat="46.577" lon="6.0889">
        <ele>1110.8</ele>
        <time>2024-02-03T12:42:33Z</time>
      </trkpt>
      <trkpt lat="46.57693" lon="6.089">
        <ele>1110.5</ele>
        <time>2024-02-03T12:42:43Z</time>
      </trkpt>
      <trkpt lat="46.57684" lon="6.08903">
        <ele>1109.7</ele>
        <time>2024-02-03T12:42:54Z</time>
      </trkpt>
      <trkpt lat="46.57675" lon="6.08907">
        <ele>1108.9</ele>
        <time>2024-02-03T12:43:04Z</time>
      </trkpt>
      <trkpt lat="46.57665" lon="6.08907">
        <ele>1108</ele>
        <time>2024-02-03T12:43:18Z</time>
      </trkpt>
      <trkpt lat="46.5766" lon="6.08896">
        <ele>1107.2</ele>
        <time>2024-02-03T12:43:36Z</time>
      </trkpt>
      <trkpt lat="46.57653" lon="6.08887">
        <ele>1106</ele>
        <time>2024-02-03T12:43:46Z</time>
      </trkpt>
      <trkpt lat="46.57645" lon="6.0888">
        <ele>1104.6</ele>
        <time>2024-02-03T12:43:55Z</time>
      </trkpt>
      <trkpt lat="46.57637" lon="6.08873">
        <ele>1103.4</ele>
        <time>2024-02-03T12:44:04Z</time>
      </trkpt>
      <trkpt lat="46.5763" lon="6.08865">
        <ele>1102.9</ele>
        <time>2024-02-03T12:44:14Z</time>
      </trkpt>
      <trkpt lat="46.5762" lon="6.08865">
        <ele>1102</ele>
        <time>2024-02-03T12:44:24Z</time>
      </trkpt>
      <trkpt lat="46.57612" lon="6.08858">
        <ele>1101.3</ele>
        <time>2024-02-03T12:44:35Z</time>
      </trkpt>
      <trkpt lat="46.57604" lon="6.08852">
        <ele>1101.2</ele>
        <time>2024-02-03T12:44:46Z</time>
      </trkpt>
      <trkpt lat="46.57596" lon="6.08844">
        <ele>1101.3</ele>
        <time>2024-02-03T12:44:55Z</time>
      </trkpt>
      <trkpt lat="46.57593" lon="6.0883">
        <ele>1101.4</ele>
        <time>2024-02-03T12:45:05Z</time>
      </trkpt>
      <trkpt lat="46.57589" lon="6.08818">
        <ele>1101.6</ele>
        <time>2024-02-03T12:45:14Z</time>
      </trkpt>
      <trkpt lat="46.57585" lon="6.08805">
        <ele>1102</ele>
        <time>2024-02-03T12:45:22Z</time>
      </trkpt>
      <trkpt lat="46.5758" lon="6.08792">
        <ele>1101.9</ele>
        <time>2024-02-03T12:45:30Z</time>
      </trkpt>
      <trkpt lat="46.57576" lon="6.0878">
        <ele>1102</ele>
        <time>2024-02-03T12:45:37Z</time>
      </trkpt>
      <trkpt lat="46.5757" lon="6.08768">
        <ele>1102</ele>
        <time>2024-02-03T12:45:45Z</time>
      </trkpt>
      <trkpt lat="46.57567" lon="6.08755">
        <ele>1102</ele>
        <time>2024-02-03T12:45:56Z</time>
      </trkpt>
      <trkpt lat="46.5756" lon="6.08744">
        <ele>1102</ele>
        <time>2024-02-03T12:46:06Z</time>
      </trkpt>
      <trkpt lat="46.57555" lon="6.08732">
        <ele>1102</ele>
        <time>2024-02-03T12:46:15Z</time>
      </trkpt>
      <trkpt lat="46.57547" lon="6.08725">
        <ele>1101.7</ele>
        <time>2024-02-03T12:46:23Z</time>
      </trkpt>
      <trkpt lat="46.57539" lon="6.08717">
        <ele>1101.3</ele>
        <time>2024-02-03T12:46:33Z</time>
      </trkpt>
      <trkpt lat="46.57531" lon="6.0871">
        <ele>1101</ele>
        <time>2024-02-03T12:46:44Z</time>
      </trkpt>
      <trkpt lat="46.57523" lon="6.08703">
        <ele>1101</ele>
        <time>2024-02-03T12:46:54Z</time>
      </trkpt>
      <trkpt lat="46.57516" lon="6.08693">
        <ele>1101</ele>
        <time>2024-02-03T12:47:05Z</time>
      </trkpt>
      <trkpt lat="46.57509" lon="6.08684">
        <ele>1101.3</ele>
        <time>2024-02-03T12:47:15Z</time>
      </trkpt>
      <trkpt lat="46.575" lon="6.08678">
        <ele>1101.6</ele>
        <time>2024-02-03T12:47:26Z</time>
      </trkpt>
      <trkpt lat="46.57494" lon="6.08669">
        <ele>1101.7</ele>
        <time>2024-02-03T12:47:37Z</time>
      </trkpt>
      <trkpt lat="46.57486" lon="6.08661">
        <ele>1101.5</ele>
        <time>2024-02-03T12:47:48Z</time>
      </trkpt>
      <trkpt lat="46.57478" lon="6.08653">
        <ele>1101.2</ele>
        <time>2024-02-03T12:47:57Z</time>
      </trkpt>
      <trkpt lat="46.5747" lon="6.08645">
        <ele>1101</ele>
        <time>2024-02-03T12:48:08Z</time>
      </trkpt>
      <trkpt lat="46.57463" lon="6.08637">
        <ele>1101</ele>
        <time>2024-02-03T12:48:19Z</time>
      </trkpt>
      <trkpt lat="46.57457" lon="6.08627">
        <ele>1101</ele>
        <time>2024-02-03T12:50:59Z</time>
      </trkpt>
      <trkpt lat="46.57448" lon="6.08621">
        <ele>1101</ele>
        <time>2024-02-03T12:53:30Z</time>
      </trkpt>
      <trkpt lat="46.5744" lon="6.08614">
        <ele>1100.8</ele>
        <time>2024-02-03T12:53:39Z</time>
      </trkpt>
      <trkpt lat="46.57432" lon="6.08606">
        <ele>1100.4</ele>
        <time>2024-02-03T12:53:48Z</time>
      </trkpt>
      <trkpt lat="46.57425" lon="6.08596">
        <ele>1100.1</ele>
        <time>2024-02-03T12:53:58Z</time>
      </trkpt>
      <trkpt lat="46.57418" lon="6.08586">
        <ele>1100</ele>
        <time>2024-02-03T12:54:08Z</time>
      </trkpt>
      <trkpt lat="46.57411" lon="6.08578">
        <ele>1100</ele>
        <time>2024-02-03T12:54:17Z</time>
      </trkpt>
      <trkpt lat="46.57404" lon="6.08569">
        <ele>1100</ele>
        <time>2024-02-03T12:54:26Z</time>
      </trkpt>
      <trkpt lat="46.57395" lon="6.08563">
        <ele>1100</ele>
        <time>2024-02-03T12:54:36Z</time>
      </trkpt>
      <trkpt lat="46.57389" lon="6.08552">
        <ele>1100</ele>
        <time>2024-02-03T12:54:45Z</time>
      </trkpt>
      <trkpt lat="46.57383" lon="6.08543">
        <ele>1100</ele>
        <time>2024-02-03T12:54:54Z</time>
      </trkpt>
      <trkpt lat="46.57373" lon="6.08541">
        <ele>1100</ele>
        <time>2024-02-03T12:55:05Z</time>
      </trkpt>
      <trkpt lat="46.57364" lon="6.0854">
        <ele>1100</ele>
        <time>2024-02-03T12:55:14Z</time>
      </trkpt>
      <trkpt lat="46.57355" lon="6.08537">
        <ele>1100</ele>
        <time>2024-02-03T12:55:24Z</time>
      </trkpt>
      <trkpt lat="46.57353" lon="6.08523">
        <ele>1100</ele>
        <time>2024-02-03T12:55:37Z</time>
      </trkpt>
      <trkpt lat="46.57348" lon="6.08512">
        <ele>1100</ele>
        <time>2024-02-03T12:55:51Z</time>
      </trkpt>
      <trkpt lat="46.57342" lon="6.08501">
        <ele>1100</ele>
        <time>2024-02-03T12:56:03Z</time>
      </trkpt>
      <trkpt lat="46.57339" lon="6.08487">
        <ele>1100</ele>
        <time>2024-02-03T12:56:14Z</time>
      </trkpt>
      <trkpt lat="46.5733" lon="6.08484">
        <ele>1100</ele>
        <time>2024-02-03T12:56:32Z</time>
      </trkpt>
      <trkpt lat="46.5732" lon="6.08484">
        <ele>1100</ele>
        <time>2024-02-03T12:56:42Z</time>
      </trkpt>
      <trkpt lat="46.57311" lon="6.08485">
        <ele>1100</ele>
        <time>2024-02-03T12:56:48Z</time>
      </trkpt>
      <trkpt lat="46.57302" lon="6.08481">
        <ele>1100</ele>
        <time>2024-02-03T12:56:59Z</time>
      </trkpt>
      <trkpt lat="46.57293" lon="6.08478">
        <ele>1100</ele>
        <time>2024-02-03T12:57:09Z</time>
      </trkpt>
      <trkpt lat="46.57283" lon="6.08479">
        <ele>1100</ele>
        <time>2024-02-03T12:57:17Z</time>
      </trkpt>
      <trkpt lat="46.57274" lon="6.08477">
        <ele>1099.7</ele>
        <time>2024-02-03T12:57:26Z</time>
      </trkpt>
      <trkpt lat="46.57265" lon="6.08471">
        <ele>1099.1</ele>
        <time>2024-02-03T12:57:35Z</time>
      </trkpt>
      <trkpt lat="46.57257" lon="6.08465">
        <ele>1098.5</ele>
        <time>2024-02-03T12:57:44Z</time>
      </trkpt>
      <trkpt lat="46.57248" lon="6.08463">
        <ele>1097.9</ele>
        <time>2024-02-03T12:59:23Z</time>
      </trkpt>
      <trkpt lat="46.5724" lon="6.0847">
        <ele>1097.6</ele>
        <time>2024-02-03T12:59:37Z</time>
      </trkpt>
      <trkpt lat="46.57234" lon="6.08481">
        <ele>1097.2</ele>
        <time>2024-02-03T12:59:48Z</time>
      </trkpt>
      <trkpt lat="46.57234" lon="6.08467">
        <ele>1097.4</ele>
        <time>2024-02-03T13:00:40Z</time>
      </trkpt>
      <trkpt lat="46.57239" lon="6.08456">
        <ele>1097.6</ele>
        <time>2024-02-03T13:00:52Z</time>
      </trkpt>
      <trkpt lat="46.57245" lon="6.08445">
        <ele>1097.8</ele>
        <time>2024-02-03T13:01:03Z</time>
      </trkpt>
      <trkpt lat="46.57249" lon="6.08433">
        <ele>1098.4</ele>
        <time>2024-02-03T13:01:14Z</time>
      </trkpt>
      <trkpt lat="46.57254" lon="6.08422">
        <ele>1099.3</ele>
        <time>2024-02-03T13:01:24Z</time>
      </trkpt>
      <trkpt lat="46.57261" lon="6.08412">
        <ele>1100.2</ele>
        <time>2024-02-03T13:01:34Z</time>
      </trkpt>
      <trkpt lat="46.57266" lon="6.084">
        <ele>1100.8</ele>
        <time>2024-02-03T13:01:45Z</time>
      </trkpt>
      <trkpt lat="46.5727" lon="6.08388">
        <ele>1101.2</ele>
        <time>2024-02-03T13:01:54Z</time>
      </trkpt>
      <trkpt lat="46.57276" lon="6.08377">
        <ele>1101.5</ele>
        <time>2024-02-03T13:02:04Z</time>
      </trkpt>
      <trkpt lat="46.57282" lon="6.08365">
        <ele>1101.3</ele>
        <time>2024-02-03T13:02:15Z</time>
      </trkpt>
      <trkpt lat="46.57285" lon="6.08352">
        <ele>1101.3</ele>
        <time>2024-02-03T13:02:25Z</time>
      </trkpt>
      <trkpt lat="46.57288" lon="6.0834">
        <ele>1101.4</ele>
        <time>2024-02-03T13:02:35Z</time>
      </trkpt>
      <trkpt lat="46.5729" lon="6.08326">
        <ele>1101.6</ele>
        <time>2024-02-03T13:02:46Z</time>
      </trkpt>
      <trkpt lat="46.57292" lon="6.08312">
        <ele>1101.9</ele>
        <time>2024-02-03T13:02:57Z</time>
      </trkpt>
      <trkpt lat="46.57288" lon="6.083">
        <ele>1102.2</ele>
        <time>2024-02-03T13:03:06Z</time>
      </trkpt>
      <trkpt lat="46.57283" lon="6.08288">
        <ele>1102.3</ele>
        <time>2024-02-03T13:03:14Z</time>
      </trkpt>
      <trkpt lat="46.57277" lon="6.08276">
        <ele>1102</ele>
        <time>2024-02-03T13:03:22Z</time>
      </trkpt>
      <trkpt lat="46.57275" lon="6.08263">
        <ele>1102.4</ele>
        <time>2024-02-03T13:03:31Z</time>
      </trkpt>
      <trkpt lat="46.57273" lon="6.08249">
        <ele>1102.8</ele>
        <time>2024-02-03T13:03:40Z</time>
      </trkpt>
      <trkpt lat="46.57265" lon="6.08242">
        <ele>1102.7</ele>
        <time>2024-02-03T13:03:48Z</time>
      </trkpt>
      <trkpt lat="46.57256" lon="6.08238">
        <ele>1102.6</ele>
        <time>2024-02-03T13:03:56Z</time>
      </trkpt>
      <trkpt lat="46.57247" lon="6.08233">
        <ele>1102.5</ele>
        <time>2024-02-03T13:04:05Z</time>
      </trkpt>
      <trkpt lat="46.57238" lon="6.08227">
        <ele>1102.4</ele>
        <time>2024-02-03T13:04:14Z</time>
      </trkpt>
      <trkpt lat="46.5723" lon="6.08219">
        <ele>1102.4</ele>
        <time>2024-02-03T13:04:23Z</time>
      </trkpt>
      <trkpt lat="46.57222" lon="6.08213">
        <ele>1102.3</ele>
        <time>2024-02-03T13:04:31Z</time>
      </trkpt>
      <trkpt lat="46.57213" lon="6.08209">
        <ele>1103</ele>
        <time>2024-02-03T13:04:40Z</time>
      </trkpt>
      <trkpt lat="46.57204" lon="6.08204">
        <ele>1103.7</ele>
        <time>2024-02-03T13:04:50Z</time>
      </trkpt>
      <trkpt lat="46.57195" lon="6.08201">
        <ele>1104.5</ele>
        <time>2024-02-03T13:05:00Z</time>
      </trkpt>
      <trkpt lat="46.57186" lon="6.082">
        <ele>1105.3</ele>
        <time>2024-02-03T13:05:08Z</time>
      </trkpt>
      <trkpt lat="46.57177" lon="6.08195">
        <ele>1106.2</ele>
        <time>2024-02-03T13:05:18Z</time>
      </trkpt>
      <trkpt lat="46.57168" lon="6.08189">
        <ele>1107.2</ele>
        <time>2024-02-03T13:05:28Z</time>
      </trkpt>
      <trkpt lat="46.57159" lon="6.08186">
        <ele>1108.2</ele>
        <time>2024-02-03T13:05:38Z</time>
      </trkpt>
      <trkpt lat="46.5715" lon="6.08184">
        <ele>1109.1</ele>
        <time>2024-02-03T13:05:48Z</time>
      </trkpt>
      <trkpt lat="46.57141" lon="6.08179">
        <ele>1109.9</ele>
        <time>2024-02-03T13:05:58Z</time>
      </trkpt>
      <trkpt lat="46.57133" lon="6.08172">
        <ele>1110.3</ele>
        <time>2024-02-03T13:06:07Z</time>
      </trkpt>
      <trkpt lat="46.57125" lon="6.0818">
        <ele>1110.8</ele>
        <time>2024-02-03T13:06:15Z</time>
      </trkpt>
      <trkpt lat="46.5712" lon="6.08192">
        <ele>1111.3</ele>
        <time>2024-02-03T13:06:23Z</time>
      </trkpt>
      <trkpt lat="46.57111" lon="6.08197">
        <ele>1112.1</ele>
        <time>2024-02-03T13:06:33Z</time>
      </trkpt>
      <trkpt lat="46.57101" lon="6.08197">
        <ele>1112.1</ele>
        <time>2024-02-03T13:06:42Z</time>
      </trkpt>
      <trkpt lat="46.57091" lon="6.08196">
        <ele>1112</ele>
        <time>2024-02-03T13:06:51Z</time>
      </trkpt>
      <trkpt lat="46.57081" lon="6.08193">
        <ele>1111.7</ele>
        <time>2024-02-03T13:07:00Z</time>
      </trkpt>
      <trkpt lat="46.57072" lon="6.08192">
        <ele>1110.7</ele>
        <time>2024-02-03T13:07:08Z</time>
      </trkpt>
      <trkpt lat="46.57062" lon="6.08189">
        <ele>1109.6</ele>
        <time>2024-02-03T13:07:17Z</time>
      </trkpt>
      <trkpt lat="46.57054" lon="6.08183">
        <ele>1108.8</ele>
        <time>2024-02-03T13:07:26Z</time>
      </trkpt>
      <trkpt lat="46.57045" lon="6.08176">
        <ele>1108</ele>
        <time>2024-02-03T13:07:35Z</time>
      </trkpt>
      <trkpt lat="46.57036" lon="6.0817">
        <ele>1107</ele>
        <time>2024-02-03T13:07:44Z</time>
      </trkpt>
      <trkpt lat="46.57027" lon="6.08166">
        <ele>1105.9</ele>
        <time>2024-02-03T13:07:52Z</time>
      </trkpt>
      <trkpt lat="46.57018" lon="6.08162">
        <ele>1104.5</ele>
        <time>2024-02-03T13:08:01Z</time>
      </trkpt>
      <trkpt lat="46.57009" lon="6.08156">
        <ele>1103</ele>
        <time>2024-02-03T13:08:11Z</time>
      </trkpt>
      <trkpt lat="46.57" lon="6.08154">
        <ele>1101.5</ele>
        <time>2024-02-03T13:08:19Z</time>
      </trkpt>
      <trkpt lat="46.56991" lon="6.08148">
        <ele>1100</ele>
        <time>2024-02-03T13:08:27Z</time>
      </trkpt>
      <trkpt lat="46.56983" lon="6.0814">
        <ele>1098.6</ele>
        <time>2024-02-03T13:08:36Z</time>
      </trkpt>
      <trkpt lat="46.56974" lon="6.08136">
        <ele>1097.3</ele>
        <time>2024-02-03T13:08:45Z</time>
      </trkpt>
      <trkpt lat="46.56964" lon="6.08134">
        <ele>1096.2</ele>
        <time>2024-02-03T13:08:54Z</time>
      </trkpt>
      <trkpt lat="46.56954" lon="6.08132">
        <ele>1095.2</ele>
        <time>2024-02-03T13:09:02Z</time>
      </trkpt>
      <trkpt lat="46.56945" lon="6.0813">
        <ele>1094.4</ele>
        <time>2024-02-03T13:09:10Z</time>
      </trkpt>
      <trkpt lat="46.56936" lon="6.08126">
        <ele>1093.7</ele>
        <time>2024-02-03T13:11:35Z</time>
      </trkpt>
      <trkpt lat="46.56928" lon="6.08119">
        <ele>1093.1</ele>
        <time>2024-02-03T13:11:46Z</time>
      </trkpt>
      <trkpt lat="46.56919" lon="6.08118">
        <ele>1092.2</ele>
        <time>2024-02-03T13:11:57Z</time>
      </trkpt>
      <trkpt lat="46.56909" lon="6.08117">
        <ele>1091.7</ele>
        <time>2024-02-03T13:12:08Z</time>
      </trkpt>
      <trkpt lat="46.56907" lon="6.08103">
        <ele>1091.7</ele>
        <time>2024-02-03T13:12:20Z</time>
      </trkpt>
      <trkpt lat="46.56907" lon="6.08089">
        <ele>1091.6</ele>
        <time>2024-02-03T13:12:30Z</time>
      </trkpt>
      <trkpt lat="46.56902" lon="6.08078">
        <ele>1091.5</ele>
        <time>2024-02-03T13:12:39Z</time>
      </trkpt>
      <trkpt lat="46.56899" lon="6.08065">
        <ele>1091.4</ele>
        <time>2024-02-03T13:12:50Z</time>
      </trkpt>
      <trkpt lat="46.56895" lon="6.08053">
        <ele>1091.2</ele>
        <time>2024-02-03T13:13:02Z</time>
      </trkpt>
      <trkpt lat="46.56892" lon="6.0804">
        <ele>1091</ele>
        <time>2024-02-03T13:13:26Z</time>
      </trkpt>
      <trkpt lat="46.56883" lon="6.08038">
        <ele>1091.3</ele>
        <time>2024-02-03T13:13:43Z</time>
      </trkpt>
      <trkpt lat="46.56876" lon="6.08046">
        <ele>1091.3</ele>
        <time>2024-02-03T13:14:00Z</time>
      </trkpt>
      <trkpt lat="46.56868" lon="6.08054">
        <ele>1091.1</ele>
        <time>2024-02-03T13:14:13Z</time>
      </trkpt>
      <trkpt lat="46.5686" lon="6.08059">
        <ele>1090.8</ele>
        <time>2024-02-03T13:14:26Z</time>
      </trkpt>
      <trkpt lat="46.56853" lon="6.0807">
        <ele>1090.3</ele>
        <time>2024-02-03T13:14:37Z</time>
      </trkpt>
      <trkpt lat="46.56844" lon="6.08074">
        <ele>1090.1</ele>
        <time>2024-02-03T13:14:50Z</time>
      </trkpt>
      <trkpt lat="46.56835" lon="6.08079">
        <ele>1090</ele>
        <time>2024-02-03T13:15:03Z</time>
      </trkpt>
      <trkpt lat="46.56825" lon="6.0808">
        <ele>1090</ele>
        <time>2024-02-03T13:15:12Z</time>
      </trkpt>
      <trkpt lat="46.56816" lon="6.08081">
        <ele>1090</ele>
        <time>2024-02-03T13:15:19Z</time>
      </trkpt>
      <trkpt lat="46.56807" lon="6.0808">
        <ele>1090</ele>
        <time>2024-02-03T13:15:32Z</time>
      </trkpt>
      <trkpt lat="46.56799" lon="6.08073">
        <ele>1090</ele>
        <time>2024-02-03T13:15:45Z</time>
      </trkpt>
      <trkpt lat="46.5679" lon="6.08069">
        <ele>1090</ele>
        <time>2024-02-03T13:15:58Z</time>
      </trkpt>
      <trkpt lat="46.5678" lon="6.0807">
        <ele>1090</ele>
        <time>2024-02-03T13:16:14Z</time>
      </trkpt>
      <trkpt lat="46.56771" lon="6.08069">
        <ele>1090.1</ele>
        <time>2024-02-03T13:16:26Z</time>
      </trkpt>
      <trkpt lat="46.56762" lon="6.0807">
        <ele>1090.3</ele>
        <time>2024-02-03T13:16:36Z</time>
      </trkpt>
      <trkpt lat="46.56753" lon="6.08073">
        <ele>1090.3</ele>
        <time>2024-02-03T13:16:48Z</time>
      </trkpt>
      <trkpt lat="46.56744" lon="6.08077">
        <ele>1090.7</ele>
        <time>2024-02-03T13:16:59Z</time>
      </trkpt>
      <trkpt lat="46.56735" lon="6.08081">
        <ele>1091.2</ele>
        <time>2024-02-03T13:17:08Z</time>
      </trkpt>
      <trkpt lat="46.5673" lon="6.08094">
        <ele>1091.1</ele>
        <time>2024-02-03T13:17:19Z</time>
      </trkpt>
      <trkpt lat="46.56725" lon="6.08106">
        <ele>1091</ele>
        <time>2024-02-03T13:17:28Z</time>
      </trkpt>
      <trkpt lat="46.5672" lon="6.08119">
        <ele>1090.7</ele>
        <time>2024-02-03T13:17:37Z</time>
      </trkpt>
      <trkpt lat="46.56716" lon="6.08132">
        <ele>1090.7</ele>
        <time>2024-02-03T13:17:46Z</time>
      </trkpt>
      <trkpt lat="46.56711" lon="6.08143">
        <ele>1091.4</ele>
        <time>2024-02-03T13:17:56Z</time>
      </trkpt>
      <trkpt lat="46.56706" lon="6.08155">
        <ele>1092.2</ele>
        <time>2024-02-03T13:18:16Z</time>
      </trkpt>
      <trkpt lat="46.567" lon="6.08166">
        <ele>1092.8</ele>
        <time>2024-02-03T13:18:26Z</time>
      </trkpt>
      <trkpt lat="46.56693" lon="6.08175">
        <ele>1092.8</ele>
        <time>2024-02-03T13:18:36Z</time>
      </trkpt>
      <trkpt lat="46.56689" lon="6.08187">
        <ele>1092.8</ele>
        <time>2024-02-03T13:18:45Z</time>
      </trkpt>
      <trkpt lat="46.56686" lon="6.08201">
        <ele>1093</ele>
        <time>2024-02-03T13:18:54Z</time>
      </trkpt>
      <trkpt lat="46.56681" lon="6.08214">
        <ele>1093.8</ele>
        <time>2024-02-03T13:19:04Z</time>
      </trkpt>
      <trkpt lat="46.56678" lon="6.08226">
        <ele>1094.3</ele>
        <time>2024-02-03T13:19:13Z</time>
      </trkpt>
      <trkpt lat="46.56673" lon="6.08239">
        <ele>1095</ele>
        <time>2024-02-03T13:19:22Z</time>
      </trkpt>
      <trkpt lat="46.5667" lon="6.08251">
        <ele>1095.6</ele>
        <time>2024-02-03T13:19:30Z</time>
      </trkpt>
      <trkpt lat="46.56666" lon="6.08263">
        <ele>1095.5</ele>
        <time>2024-02-03T13:19:38Z</time>
      </trkpt>
      <trkpt lat="46.56661" lon="6.08275">
        <ele>1095.2</ele>
        <time>2024-02-03T13:19:46Z</time>
      </trkpt>
      <trkpt lat="46.56657" lon="6.08289">
        <ele>1095.5</ele>
        <time>2024-02-03T13:19:55Z</time>
      </trkpt>
      <trkpt lat="46.56654" lon="6.08303">
        <ele>1095.8</ele>
        <time>2024-02-03T13:20:04Z</time>
      </trkpt>
      <trkpt lat="46.56648" lon="6.08314">
        <ele>1096.5</ele>
        <time>2024-02-03T13:20:12Z</time>
      </trkpt>
      <trkpt lat="46.56643" lon="6.08326">
        <ele>1097.3</ele>
        <time>2024-02-03T13:20:21Z</time>
      </trkpt>
      <trkpt lat="46.56638" lon="6.08336">
        <ele>1098</ele>
        <time>2024-02-03T13:20:29Z</time>
      </trkpt>
      <trkpt lat="46.56633" lon="6.08348">
        <ele>1097.9</ele>
        <time>2024-02-03T13:20:37Z</time>
      </trkpt>
      <trkpt lat="46.56629" lon="6.0836">
        <ele>1098</ele>
        <time>2024-02-03T13:20:45Z</time>
      </trkpt>
      <trkpt lat="46.56623" lon="6.08371">
        <ele>1098.4</ele>
        <time>2024-02-03T13:20:53Z</time>
      </trkpt>
      <trkpt lat="46.56619" lon="6.08383">
        <ele>1099.1</ele>
        <time>2024-02-03T13:21:01Z</time>
      </trkpt>
      <trkpt lat="46.56616" lon="6.08397">
        <ele>1099.6</ele>
        <time>2024-02-03T13:21:10Z</time>
      </trkpt>
      <trkpt lat="46.5661" lon="6.08407">
        <ele>1100</ele>
        <time>2024-02-03T13:21:18Z</time>
      </trkpt>
      <trkpt lat="46.56606" lon="6.08419">
        <ele>1100.3</ele>
        <time>2024-02-03T13:21:26Z</time>
      </trkpt>
      <trkpt lat="46.56601" lon="6.08432">
        <ele>1100.7</ele>
        <time>2024-02-03T13:21:35Z</time>
      </trkpt>
      <trkpt lat="46.56594" lon="6.08443">
        <ele>1101</ele>
        <time>2024-02-03T13:21:43Z</time>
      </trkpt>
      <trkpt lat="46.56588" lon="6.08452">
        <ele>1101.2</ele>
        <time>2024-02-03T13:22:28Z</time>
      </trkpt>
      <trkpt lat="46.56581" lon="6.08463">
        <ele>1101.9</ele>
        <time>2024-02-03T13:22:56Z</time>
      </trkpt>
      <trkpt lat="46.56572" lon="6.08473">
        <ele>1103.3</ele>
        <time>2024-02-03T13:23:03Z</time>
      </trkpt>
      <trkpt lat="46.56565" lon="6.08482">
        <ele>1104.2</ele>
        <time>2024-02-03T13:23:13Z</time>
      </trkpt>
      <trkpt lat="46.56557" lon="6.08491">
        <ele>1105.4</ele>
        <time>2024-02-03T13:23:25Z</time>
      </trkpt>
      <trkpt lat="46.5655" lon="6.085">
        <ele>1106.6</ele>
        <time>2024-02-03T13:23:36Z</time>
      </trkpt>
      <trkpt lat="46.56543" lon="6.08511">
        <ele>1107.5</ele>
        <time>2024-02-03T13:23:47Z</time>
      </trkpt>
      <trkpt lat="46.56536" lon="6.08518">
        <ele>1108.6</ele>
        <time>2024-02-03T13:23:55Z</time>
      </trkpt>
      <trkpt lat="46.56528" lon="6.08526">
        <ele>1109.9</ele>
        <time>2024-02-03T13:24:05Z</time>
      </trkpt>
      <trkpt lat="46.56521" lon="6.08536">
        <ele>1110.3</ele>
        <time>2024-02-03T13:24:15Z</time>
      </trkpt>
      <trkpt lat="46.56514" lon="6.08546">
        <ele>1110.8</ele>
        <time>2024-02-03T13:24:24Z</time>
      </trkpt>
      <trkpt lat="46.56508" lon="6.08557">
        <ele>1111.5</ele>
        <time>2024-02-03T13:24:33Z</time>
      </trkpt>
      <trkpt lat="46.56503" lon="6.08569">
        <ele>1112.3</ele>
        <time>2024-02-03T13:24:43Z</time>
      </trkpt>
      <trkpt lat="46.56497" lon="6.08579">
        <ele>1113.2</ele>
        <time>2024-02-03T13:24:53Z</time>
      </trkpt>
      <trkpt lat="46.5649" lon="6.08588">
        <ele>1114.4</ele>
        <time>2024-02-03T13:25:01Z</time>
      </trkpt>
      <trkpt lat="46.56481" lon="6.08591">
        <ele>1115.7</ele>
        <time>2024-02-03T13:25:20Z</time>
      </trkpt>
      <trkpt lat="46.56472" lon="6.08586">
        <ele>1116.4</ele>
        <time>2024-02-03T13:26:22Z</time>
      </trkpt>
      <trkpt lat="46.56466" lon="6.08575">
        <ele>1116.2</ele>
        <time>2024-02-03T13:26:32Z</time>
      </trkpt>
      <trkpt lat="46.56461" lon="6.08562">
        <ele>1115.7</ele>
        <time>2024-02-03T13:26:42Z</time>
      </trkpt>
      <trkpt lat="46.56456" lon="6.0855">
        <ele>1115.4</ele>
        <time>2024-02-03T13:26:52Z</time>
      </trkpt>
      <trkpt lat="46.56449" lon="6.0854">
        <ele>1115.6</ele>
        <time>2024-02-03T13:27:01Z</time>
      </trkpt>
      <trkpt lat="46.56443" lon="6.08531">
        <ele>1115.6</ele>
        <time>2024-02-03T13:27:10Z</time>
      </trkpt>
      <trkpt lat="46.56436" lon="6.0852">
        <ele>1115.6</ele>
        <time>2024-02-03T13:27:19Z</time>
      </trkpt>
      <trkpt lat="46.56429" lon="6.0851">
        <ele>1115.2</ele>
        <time>2024-02-03T13:27:30Z</time>
      </trkpt>
      <trkpt lat="46.56421" lon="6.08503">
        <ele>1115</ele>
        <time>2024-02-03T13:27:38Z</time>
      </trkpt>
      <trkpt lat="46.56413" lon="6.08494">
        <ele>1114.6</ele>
        <time>2024-02-03T13:27:48Z</time>
      </trkpt>
      <trkpt lat="46.56404" lon="6.0849">
        <ele>1115</ele>
        <time>2024-02-03T13:27:58Z</time>
      </trkpt>
      <trkpt lat="46.56395" lon="6.08489">
        <ele>1115.7</ele>
        <time>2024-02-03T13:28:05Z</time>
      </trkpt>
      <trkpt lat="46.56385" lon="6.08487">
        <ele>1116.3</ele>
        <time>2024-02-03T13:28:12Z</time>
      </trkpt>
      <trkpt lat="46.56375" lon="6.08487">
        <ele>1117.1</ele>
        <time>2024-02-03T13:28:20Z</time>
      </trkpt>
      <trkpt lat="46.56366" lon="6.08488">
        <ele>1117.9</ele>
        <time>2024-02-03T13:28:29Z</time>
      </trkpt>
      <trkpt lat="46.56357" lon="6.08493">
        <ele>1119.4</ele>
        <time>2024-02-03T13:28:39Z</time>
      </trkpt>
      <trkpt lat="46.56348" lon="6.08497">
        <ele>1121</ele>
        <time>2024-02-03T13:28:50Z</time>
      </trkpt>
      <trkpt lat="46.56339" lon="6.08493">
        <ele>1121.6</ele>
        <time>2024-02-03T13:28:59Z</time>
      </trkpt>
      <trkpt lat="46.56331" lon="6.08485">
        <ele>1121.9</ele>
        <time>2024-02-03T13:29:06Z</time>
      </trkpt>
      <trkpt lat="46.56323" lon="6.0848">
        <ele>1122.9</ele>
        <time>2024-02-03T13:29:14Z</time>
      </trkpt>
      <trkpt lat="46.56315" lon="6.08471">
        <ele>1123.1</ele>
        <time>2024-02-03T13:29:23Z</time>
      </trkpt>
      <trkpt lat="46.56306" lon="6.08467">
        <ele>1124</ele>
        <time>2024-02-03T13:29:32Z</time>
      </trkpt>
      <trkpt lat="46.56298" lon="6.08461">
        <ele>1124.9</ele>
        <time>2024-02-03T13:29:41Z</time>
      </trkpt>
      <trkpt lat="46.5629" lon="6.08454">
        <ele>1125.3</ele>
        <time>2024-02-03T13:29:50Z</time>
      </trkpt>
      <trkpt lat="46.56283" lon="6.08443">
        <ele>1124.6</ele>
        <time>2024-02-03T13:29:59Z</time>
      </trkpt>
      <trkpt lat="46.56274" lon="6.0844">
        <ele>1125.8</ele>
        <time>2024-02-03T13:30:09Z</time>
      </trkpt>
      <trkpt lat="46.56264" lon="6.08439">
        <ele>1126.9</ele>
        <time>2024-02-03T13:30:19Z</time>
      </trkpt>
      <trkpt lat="46.56255" lon="6.08437">
        <ele>1127.6</ele>
        <time>2024-02-03T13:30:27Z</time>
      </trkpt>
      <trkpt lat="46.56246" lon="6.0843">
        <ele>1127</ele>
        <time>2024-02-03T13:30:37Z</time>
      </trkpt>
      <trkpt lat="46.56238" lon="6.08422">
        <ele>1127</ele>
        <time>2024-02-03T13:30:46Z</time>
      </trkpt>
      <trkpt lat="46.5623" lon="6.08417">
        <ele>1128.1</ele>
        <time>2024-02-03T13:30:59Z</time>
      </trkpt>
      <trkpt lat="46.56221" lon="6.08415">
        <ele>1130</ele>
        <time>2024-02-03T13:31:07Z</time>
      </trkpt>
      <trkpt lat="46.56213" lon="6.08406">
        <ele>1129.8</ele>
        <time>2024-02-03T13:31:14Z</time>
      </trkpt>
      <trkpt lat="46.56205" lon="6.08397">
        <ele>1129.1</ele>
        <time>2024-02-03T13:31:22Z</time>
      </trkpt>
      <trkpt lat="46.56197" lon="6.08389">
        <ele>1128</ele>
        <time>2024-02-03T13:31:30Z</time>
      </trkpt>
      <trkpt lat="46.56188" lon="6.08384">
        <ele>1129.2</ele>
        <time>2024-02-03T13:31:37Z</time>
      </trkpt>
      <trkpt lat="46.56179" lon="6.0838">
        <ele>1131.2</ele>
        <time>2024-02-03T13:31:45Z</time>
      </trkpt>
      <trkpt lat="46.56174" lon="6.08368">
        <ele>1131.2</ele>
        <time>2024-02-03T13:32:07Z</time>
      </trkpt>
      <trkpt lat="46.56177" lon="6.08381">
        <ele>1131.9</ele>
        <time>2024-02-03T13:32:46Z</time>
      </trkpt>
      <trkpt lat="46.56175" lon="6.08394">
        <ele>1134.5</ele>
        <time>2024-02-03T13:33:08Z</time>
      </trkpt>
      <trkpt lat="46.56168" lon="6.08404">
        <ele>1137.7</ele>
        <time>2024-02-03T13:33:42Z</time>
      </trkpt>
      <trkpt lat="46.5616" lon="6.0841">
        <ele>1140.5</ele>
        <time>2024-02-03T13:33:57Z</time>
      </trkpt>
      <trkpt lat="46.56154" lon="6.08421">
        <ele>1142.7</ele>
        <time>2024-02-03T13:34:07Z</time>
      </trkpt>
      <trkpt lat="46.5615" lon="6.08433">
        <ele>1144</ele>
        <time>2024-02-03T13:34:20Z</time>
      </trkpt>
      <trkpt lat="46.56147" lon="6.08447">
        <ele>1144.8</ele>
        <time>2024-02-03T13:34:32Z</time>
      </trkpt>
      <trkpt lat="46.56142" lon="6.08458">
        <ele>1145.8</ele>
        <time>2024-02-03T13:34:46Z</time>
      </trkpt>
      <trkpt lat="46.56135" lon="6.08468">
        <ele>1147.1</ele>
        <time>2024-02-03T13:34:57Z</time>
      </trkpt>
      <trkpt lat="46.56128" lon="6.08478">
        <ele>1148.5</ele>
        <time>2024-02-03T13:35:08Z</time>
      </trkpt>
      <trkpt lat="46.56127" lon="6.08491">
        <ele>1149.4</ele>
        <time>2024-02-03T13:35:17Z</time>
      </trkpt>
      <trkpt lat="46.56122" lon="6.08503">
        <ele>1150.1</ele>
        <time>2024-02-03T13:35:26Z</time>
      </trkpt>
      <trkpt lat="46.56118" lon="6.08516">
        <ele>1150.6</ele>
        <time>2024-02-03T13:35:36Z</time>
      </trkpt>
      <trkpt lat="46.56112" lon="6.08527">
        <ele>1151</ele>
        <time>2024-02-03T13:35:47Z</time>
      </trkpt>
      <trkpt lat="46.56104" lon="6.08534">
        <ele>1151.3</ele>
        <time>2024-02-03T13:35:56Z</time>
      </trkpt>
      <trkpt lat="46.56095" lon="6.08539">
        <ele>1151.9</ele>
        <time>2024-02-03T13:36:04Z</time>
      </trkpt>
      <trkpt lat="46.56086" lon="6.08544">
        <ele>1152.4</ele>
        <time>2024-02-03T13:36:14Z</time>
      </trkpt>
      <trkpt lat="46.56077" lon="6.0855">
        <ele>1152.1</ele>
        <time>2024-02-03T13:36:22Z</time>
      </trkpt>
      <trkpt lat="46.56068" lon="6.08553">
        <ele>1152.4</ele>
        <time>2024-02-03T13:36:33Z</time>
      </trkpt>
      <trkpt lat="46.56058" lon="6.0855">
        <ele>1153.4</ele>
        <time>2024-02-03T13:36:41Z</time>
      </trkpt>
      <trkpt lat="46.56048" lon="6.08547">
        <ele>1154.5</ele>
        <time>2024-02-03T13:36:49Z</time>
      </trkpt>
      <trkpt lat="46.56038" lon="6.08543">
        <ele>1155.4</ele>
        <time>2024-02-03T13:36:57Z</time>
      </trkpt>
      <trkpt lat="46.56029" lon="6.08537">
        <ele>1156</ele>
        <time>2024-02-03T13:37:03Z</time>
      </trkpt>
      <trkpt lat="46.5602" lon="6.0853">
        <ele>1156.9</ele>
        <time>2024-02-03T13:37:10Z</time>
      </trkpt>
      <trkpt lat="46.5601" lon="6.08525">
        <ele>1157.9</ele>
        <time>2024-02-03T13:37:17Z</time>
      </trkpt>
      <trkpt lat="46.56002" lon="6.08519">
        <ele>1158.5</ele>
        <time>2024-02-03T13:37:25Z</time>
      </trkpt>
      <trkpt lat="46.55995" lon="6.08509">
        <ele>1159.2</ele>
        <time>2024-02-03T13:37:36Z</time>
      </trkpt>
      <trkpt lat="46.55987" lon="6.08502">
        <ele>1160.5</ele>
        <time>2024-02-03T13:37:45Z</time>
      </trkpt>
      <trkpt lat="46.55977" lon="6.08501">
        <ele>1162.2</ele>
        <time>2024-02-03T13:37:56Z</time>
      </trkpt>
      <trkpt lat="46.55968" lon="6.08506">
        <ele>1163.4</ele>
        <time>2024-02-03T13:38:03Z</time>
      </trkpt>
      <trkpt lat="46.55959" lon="6.08512">
        <ele>1164.1</ele>
        <time>2024-02-03T13:38:12Z</time>
      </trkpt>
      <trkpt lat="46.5595" lon="6.08513">
        <ele>1164.7</ele>
        <time>2024-02-03T13:38:23Z</time>
      </trkpt>
      <trkpt lat="46.55941" lon="6.08507">
        <ele>1165.1</ele>
        <time>2024-02-03T13:38:31Z</time>
      </trkpt>
      <trkpt lat="46.55933" lon="6.08499">
        <ele>1166.4</ele>
        <time>2024-02-03T13:38:38Z</time>
      </trkpt>
      <trkpt lat="46.55925" lon="6.08493">
        <ele>1167.7</ele>
        <time>2024-02-03T13:38:43Z</time>
      </trkpt>
      <trkpt lat="46.5592" lon="6.0848">
        <ele>1167.7</ele>
        <time>2024-02-03T13:38:50Z</time>
      </trkpt>
      <trkpt lat="46.55913" lon="6.08473">
        <ele>1169.3</ele>
        <time>2024-02-03T13:38:56Z</time>
      </trkpt>
      <trkpt lat="46.55904" lon="6.08465">
        <ele>1170.8</ele>
        <time>2024-02-03T13:39:04Z</time>
      </trkpt>
      <trkpt lat="46.55895" lon="6.08461">
        <ele>1172.3</ele>
        <time>2024-02-03T13:39:11Z</time>
      </trkpt>
      <trkpt lat="46.55887" lon="6.08454">
        <ele>1172.8</ele>
        <time>2024-02-03T13:39:23Z</time>
      </trkpt>
      <trkpt lat="46.55881" lon="6.08445">
        <ele>1172.2</ele>
        <time>2024-02-03T13:39:34Z</time>
      </trkpt>
      <trkpt lat="46.55872" lon="6.08439">
        <ele>1173.6</ele>
        <time>2024-02-03T13:39:45Z</time>
      </trkpt>
      <trkpt lat="46.55865" lon="6.08429">
        <ele>1174.2</ele>
        <time>2024-02-03T13:39:54Z</time>
      </trkpt>
      <trkpt lat="46.55859" lon="6.08419">
        <ele>1174.9</ele>
        <time>2024-02-03T13:40:02Z</time>
      </trkpt>
      <trkpt lat="46.55852" lon="6.08411">
        <ele>1175.8</ele>
        <time>2024-02-03T13:40:10Z</time>
      </trkpt>
      <trkpt lat="46.55844" lon="6.08403">
        <ele>1176.8</ele>
        <time>2024-02-03T13:40:20Z</time>
      </trkpt>
      <trkpt lat="46.55835" lon="6.08398">
        <ele>1178.3</ele>
        <time>2024-02-03T13:40:30Z</time>
      </trkpt>
      <trkpt lat="46.55826" lon="6.08399">
        <ele>1179.6</ele>
        <time>2024-02-03T13:40:40Z</time>
      </trkpt>
      <trkpt lat="46.55817" lon="6.08397">
        <ele>1180.1</ele>
        <time>2024-02-03T13:40:50Z</time>
      </trkpt>
      <trkpt lat="46.55807" lon="6.08399">
        <ele>1181.3</ele>
        <time>2024-02-03T13:40:59Z</time>
      </trkpt>
      <trkpt lat="46.55798" lon="6.08398">
        <ele>1182.7</ele>
        <time>2024-02-03T13:41:08Z</time>
      </trkpt>
      <trkpt lat="46.55789" lon="6.08398">
        <ele>1184.1</ele>
        <time>2024-02-03T13:41:17Z</time>
      </trkpt>
      <trkpt lat="46.55779" lon="6.08397">
        <ele>1185.6</ele>
        <time>2024-02-03T13:41:26Z</time>
      </trkpt>
      <trkpt lat="46.5577" lon="6.08394">
        <ele>1185.5</ele>
        <time>2024-02-03T13:41:35Z</time>
      </trkpt>
      <trkpt lat="46.5576" lon="6.08388">
        <ele>1184.8</ele>
        <time>2024-02-03T13:41:44Z</time>
      </trkpt>
      <trkpt lat="46.55752" lon="6.08384">
        <ele>1184.7</ele>
        <time>2024-02-03T13:41:53Z</time>
      </trkpt>
      <trkpt lat="46.55743" lon="6.08378">
        <ele>1185.1</ele>
        <time>2024-02-03T13:42:02Z</time>
      </trkpt>
      <trkpt lat="46.55734" lon="6.08375">
        <ele>1186.4</ele>
        <time>2024-02-03T13:42:09Z</time>
      </trkpt>
      <trkpt lat="46.55725" lon="6.08374">
        <ele>1188.2</ele>
        <time>2024-02-03T13:42:19Z</time>
      </trkpt>
      <trkpt lat="46.55718" lon="6.08383">
        <ele>1190.3</ele>
        <time>2024-02-03T13:42:28Z</time>
      </trkpt>
      <trkpt lat="46.55715" lon="6.08396">
        <ele>1192.2</ele>
        <time>2024-02-03T13:42:41Z</time>
      </trkpt>
      <trkpt lat="46.55721" lon="6.08407">
        <ele>1192.8</ele>
        <time>2024-02-03T13:42:55Z</time>
      </trkpt>
      <trkpt lat="46.55731" lon="6.08413">
        <ele>1192.3</ele>
        <time>2024-02-03T13:43:04Z</time>
      </trkpt>
      <trkpt lat="46.5574" lon="6.08413">
        <ele>1191.7</ele>
        <time>2024-02-03T13:43:12Z</time>
      </trkpt>
      <trkpt lat="46.5575" lon="6.08413">
        <ele>1191.1</ele>
        <time>2024-02-03T13:43:22Z</time>
      </trkpt>
      <trkpt lat="46.55759" lon="6.08414">
        <ele>1191.6</ele>
        <time>2024-02-03T13:43:31Z</time>
      </trkpt>
      <trkpt lat="46.55768" lon="6.08418">
        <ele>1192.7</ele>
        <time>2024-02-03T13:43:40Z</time>
      </trkpt>
      <trkpt lat="46.55776" lon="6.08424">
        <ele>1193</ele>
        <time>2024-02-03T13:43:49Z</time>
      </trkpt>
      <trkpt lat="46.55785" lon="6.08429">
        <ele>1192.2</ele>
        <time>2024-02-03T13:43:57Z</time>
      </trkpt>
      <trkpt lat="46.55792" lon="6.08437">
        <ele>1192.7</ele>
        <time>2024-02-03T13:44:05Z</time>
      </trkpt>
      <trkpt lat="46.55797" lon="6.08449">
        <ele>1194.9</ele>
        <time>2024-02-03T13:44:14Z</time>
      </trkpt>
      <trkpt lat="46.55799" lon="6.08462">
        <ele>1196.6</ele>
        <time>2024-02-03T13:44:25Z</time>
      </trkpt>
      <trkpt lat="46.55789" lon="6.08461">
        <ele>1196</ele>
        <time>2024-02-03T13:44:43Z</time>
      </trkpt>
      <trkpt lat="46.5578" lon="6.08465">
        <ele>1196.1</ele>
        <time>2024-02-03T13:44:51Z</time>
      </trkpt>
      <trkpt lat="46.5577" lon="6.08468">
        <ele>1197.3</ele>
        <time>2024-02-03T13:44:59Z</time>
      </trkpt>
      <trkpt lat="46.55761" lon="6.08468">
        <ele>1198.6</ele>
        <time>2024-02-03T13:45:08Z</time>
      </trkpt>
      <trkpt lat="46.55751" lon="6.08471">
        <ele>1200.4</ele>
        <time>2024-02-03T13:45:16Z</time>
      </trkpt>
      <trkpt lat="46.55742" lon="6.0847">
        <ele>1202.8</ele>
        <time>2024-02-03T13:45:24Z</time>
      </trkpt>
      <trkpt lat="46.55733" lon="6.08465">
        <ele>1203.6</ele>
        <time>2024-02-03T13:45:36Z</time>
      </trkpt>
      <trkpt lat="46.55725" lon="6.08459">
        <ele>1203.9</ele>
        <time>2024-02-03T13:45:44Z</time>
      </trkpt>
      <trkpt lat="46.55717" lon="6.08451">
        <ele>1204.2</ele>
        <time>2024-02-03T13:45:52Z</time>
      </trkpt>
      <trkpt lat="46.55709" lon="6.08448">
        <ele>1206.8</ele>
        <time>2024-02-03T13:46:01Z</time>
      </trkpt>
      <trkpt lat="46.55699" lon="6.08446">
        <ele>1210.5</ele>
        <time>2024-02-03T13:46:09Z</time>
      </trkpt>
      <trkpt lat="46.55691" lon="6.08439">
        <ele>1210.6</ele>
        <time>2024-02-03T13:46:19Z</time>
      </trkpt>
      <trkpt lat="46.55682" lon="6.08431">
        <ele>1209.7</ele>
        <time>2024-02-03T13:46:28Z</time>
      </trkpt>
      <trkpt lat="46.55673" lon="6.08426">
        <ele>1210</ele>
        <time>2024-02-03T13:46:37Z</time>
      </trkpt>
      <trkpt lat="46.55664" lon="6.08423">
        <ele>1210.6</ele>
        <time>2024-02-03T13:46:46Z</time>
      </trkpt>
      <trkpt lat="46.55654" lon="6.08417">
        <ele>1210</ele>
        <time>2024-02-03T13:46:58Z</time>
      </trkpt>
      <trkpt lat="46.55645" lon="6.08417">
        <ele>1211.3</ele>
        <time>2024-02-03T13:47:06Z</time>
      </trkpt>
      <trkpt lat="46.55636" lon="6.08415">
        <ele>1211.6</ele>
        <time>2024-02-03T13:47:18Z</time>
      </trkpt>
      <trkpt lat="46.55626" lon="6.08411">
        <ele>1212.4</ele>
        <time>2024-02-03T13:47:28Z</time>
      </trkpt>
      <trkpt lat="46.55617" lon="6.08409">
        <ele>1213.9</ele>
        <time>2024-02-03T13:47:35Z</time>
      </trkpt>
      <trkpt lat="46.55608" lon="6.08405">
        <ele>1215</ele>
        <time>2024-02-03T13:47:43Z</time>
      </trkpt>
      <trkpt lat="46.55599" lon="6.08402">
        <ele>1216.1</ele>
        <time>2024-02-03T13:47:52Z</time>
      </trkpt>
      <trkpt lat="46.55589" lon="6.08403">
        <ele>1218.1</ele>
        <time>2024-02-03T13:48:00Z</time>
      </trkpt>
      <trkpt lat="46.5558" lon="6.08407">
        <ele>1220.6</ele>
        <time>2024-02-03T13:48:07Z</time>
      </trkpt>
      <trkpt lat="46.55572" lon="6.08416">
        <ele>1223.4</ele>
        <time>2024-02-03T13:48:16Z</time>
      </trkpt>
      <trkpt lat="46.55566" lon="6.08424">
        <ele>1224.3</ele>
        <time>2024-02-03T13:48:25Z</time>
      </trkpt>
      <trkpt lat="46.55557" lon="6.08432">
        <ele>1223.8</ele>
        <time>2024-02-03T13:48:35Z</time>
      </trkpt>
      <trkpt lat="46.55552" lon="6.08444">
        <ele>1223.6</ele>
        <time>2024-02-03T13:48:43Z</time>
      </trkpt>
      <trkpt lat="46.55547" lon="6.08456">
        <ele>1226.9</ele>
        <time>2024-02-03T13:48:52Z</time>
      </trkpt>
      <trkpt lat="46.55543" lon="6.08468">
        <ele>1228.7</ele>
        <time>2024-02-03T13:49:01Z</time>
      </trkpt>
      <trkpt lat="46.55542" lon="6.08482">
        <ele>1228.5</ele>
        <time>2024-02-03T13:49:11Z</time>
      </trkpt>
      <trkpt lat="46.55538" lon="6.08494">
        <ele>1227.3</ele>
        <time>2024-02-03T13:49:19Z</time>
      </trkpt>
      <trkpt lat="46.5553" lon="6.085">
        <ele>1225.4</ele>
        <time>2024-02-03T13:49:27Z</time>
      </trkpt>
      <trkpt lat="46.55522" lon="6.08506">
        <ele>1226.2</ele>
        <time>2024-02-03T13:49:35Z</time>
      </trkpt>
      <trkpt lat="46.55514" lon="6.08514">
        <ele>1226.5</ele>
        <time>2024-02-03T13:50:28Z</time>
      </trkpt>
      <trkpt lat="46.55505" lon="6.08514">
        <ele>1226.5</ele>
        <time>2024-02-03T13:53:12Z</time>
      </trkpt>
      <trkpt lat="46.55497" lon="6.0852">
        <ele>1225.6</ele>
        <time>2024-02-03T13:53:21Z</time>
      </trkpt>
      <trkpt lat="46.55493" lon="6.08533">
        <ele>1225.1</ele>
        <time>2024-02-03T13:53:50Z</time>
      </trkpt>
      <trkpt lat="46.55485" lon="6.08539">
        <ele>1226.6</ele>
        <time>2024-02-03T13:54:31Z</time>
      </trkpt>
      <trkpt lat="46.55477" lon="6.08535">
        <ele>1226.2</ele>
        <time>2024-02-03T13:54:43Z</time>
      </trkpt>
      <trkpt lat="46.55468" lon="6.0854">
        <ele>1227.3</ele>
        <time>2024-02-03T13:54:53Z</time>
      </trkpt>
      <trkpt lat="46.55459" lon="6.08543">
        <ele>1227.6</ele>
        <time>2024-02-03T13:55:03Z</time>
      </trkpt>
      <trkpt lat="46.5545" lon="6.08549">
        <ele>1227.2</ele>
        <time>2024-02-03T13:55:13Z</time>
      </trkpt>
      <trkpt lat="46.55443" lon="6.08556">
        <ele>1226</ele>
        <time>2024-02-03T13:55:22Z</time>
      </trkpt>
      <trkpt lat="46.55435" lon="6.08566">
        <ele>1225.9</ele>
        <time>2024-02-03T13:55:34Z</time>
      </trkpt>
      <trkpt lat="46.55431" lon="6.08578">
        <ele>1225.9</ele>
        <time>2024-02-03T13:55:42Z</time>
      </trkpt>
      <trkpt lat="46.55424" lon="6.08586">
        <ele>1225.5</ele>
        <time>2024-02-03T13:55:52Z</time>
      </trkpt>
      <trkpt lat="46.55429" lon="6.08598">
        <ele>1225.7</ele>
        <time>2024-02-03T13:57:02Z</time>
      </trkpt>
      <trkpt lat="46.55436" lon="6.08607">
        <ele>1225.4</ele>
        <time>2024-02-03T13:57:10Z</time>
      </trkpt>
      <trkpt lat="46.55444" lon="6.08617">
        <ele>1225.6</ele>
        <time>2024-02-03T13:57:17Z</time>
      </trkpt>
      <trkpt lat="46.55447" lon="6.0863">
        <ele>1227.6</ele>
        <time>2024-02-03T13:57:26Z</time>
      </trkpt>
      <trkpt lat="46.55443" lon="6.08643">
        <ele>1227.9</ele>
        <time>2024-02-03T13:57:34Z</time>
      </trkpt>
      <trkpt lat="46.55443" lon="6.08657">
        <ele>1227.7</ele>
        <time>2024-02-03T13:57:43Z</time>
      </trkpt>
      <trkpt lat="46.55446" lon="6.08671">
        <ele>1228.2</ele>
        <time>2024-02-03T13:57:51Z</time>
      </trkpt>
      <trkpt lat="46.55453" lon="6.08683">
        <ele>1228.5</ele>
        <time>2024-02-03T13:57:59Z</time>
      </trkpt>
      <trkpt lat="46.5546" lon="6.0869">
        <ele>1228.4</ele>
        <time>2024-02-03T13:58:06Z</time>
      </trkpt>
      <trkpt lat="46.55469" lon="6.08696">
        <ele>1228</ele>
        <time>2024-02-03T13:58:15Z</time>
      </trkpt>
      <trkpt lat="46.55475" lon="6.08708">
        <ele>1229.2</ele>
        <time>2024-02-03T13:58:23Z</time>
      </trkpt>
      <trkpt lat="46.55479" lon="6.08721">
        <ele>1230.8</ele>
        <time>2024-02-03T13:58:31Z</time>
      </trkpt>
      <trkpt lat="46.55482" lon="6.08734">
        <ele>1231.8</ele>
        <time>2024-02-03T13:58:39Z</time>
      </trkpt>
      <trkpt lat="46.5548" lon="6.08747">
        <ele>1231.9</ele>
        <time>2024-02-03T13:58:46Z</time>
      </trkpt>
      <trkpt lat="46.55481" lon="6.08761">
        <ele>1232.2</ele>
        <time>2024-02-03T13:58:54Z</time>
      </trkpt>
      <trkpt lat="46.5548" lon="6.08775">
        <ele>1232</ele>
        <time>2024-02-03T13:59:02Z</time>
      </trkpt>
      <trkpt lat="46.55479" lon="6.08788">
        <ele>1231.4</ele>
        <time>2024-02-03T13:59:10Z</time>
      </trkpt>
      <trkpt lat="46.55481" lon="6.08802">
        <ele>1230.6</ele>
        <time>2024-02-03T13:59:21Z</time>
      </trkpt>
      <trkpt lat="46.5548" lon="6.08815">
        <ele>1230.3</ele>
        <time>2024-02-03T13:59:31Z</time>
      </trkpt>
      <trkpt lat="46.55477" lon="6.08828">
        <ele>1230.5</ele>
        <time>2024-02-03T13:59:39Z</time>
      </trkpt>
      <trkpt lat="46.55472" lon="6.08841">
        <ele>1231.3</ele>
        <time>2024-02-03T13:59:47Z</time>
      </trkpt>
      <trkpt lat="46.55465" lon="6.0885">
        <ele>1232.2</ele>
        <time>2024-02-03T13:59:56Z</time>
      </trkpt>
      <trkpt lat="46.55456" lon="6.08857">
        <ele>1232.7</ele>
        <time>2024-02-03T14:00:04Z</time>
      </trkpt>
      <trkpt lat="46.55452" lon="6.08869">
        <ele>1233.1</ele>
        <time>2024-02-03T14:00:15Z</time>
      </trkpt>
      <trkpt lat="46.55444" lon="6.08878">
        <ele>1234.2</ele>
        <time>2024-02-03T14:00:23Z</time>
      </trkpt>
      <trkpt lat="46.55442" lon="6.08891">
        <ele>1235.6</ele>
        <time>2024-02-03T14:00:34Z</time>
      </trkpt>
      <trkpt lat="46.55451" lon="6.08895">
        <ele>1235.1</ele>
        <time>2024-02-03T14:00:43Z</time>
      </trkpt>
      <trkpt lat="46.55459" lon="6.08903">
        <ele>1235</ele>
        <time>2024-02-03T14:00:51Z</time>
      </trkpt>
      <trkpt lat="46.55461" lon="6.08917">
        <ele>1235.8</ele>
        <time>2024-02-03T14:01:02Z</time>
      </trkpt>
      <trkpt lat="46.55466" lon="6.08929">
        <ele>1235.8</ele>
        <time>2024-02-03T14:01:10Z</time>
      </trkpt>
      <trkpt lat="46.5547" lon="6.08941">
        <ele>1236.1</ele>
        <time>2024-02-03T14:01:18Z</time>
      </trkpt>
      <trkpt lat="46.55475" lon="6.08953">
        <ele>1237.3</ele>
        <time>2024-02-03T14:01:27Z</time>
      </trkpt>
      <trkpt lat="46.55484" lon="6.08959">
        <ele>1238.1</ele>
        <time>2024-02-03T14:01:35Z</time>
      </trkpt>
      <trkpt lat="46.55493" lon="6.08963">
        <ele>1238.2</ele>
        <time>2024-02-03T14:01:46Z</time>
      </trkpt>
      <trkpt lat="46.55501" lon="6.08967">
        <ele>1238.1</ele>
        <time>2024-02-03T14:01:53Z</time>
      </trkpt>
      <trkpt lat="46.5551" lon="6.08971">
        <ele>1239.1</ele>
        <time>2024-02-03T14:02:02Z</time>
      </trkpt>
      <trkpt lat="46.5552" lon="6.08969">
        <ele>1240</ele>
        <time>2024-02-03T14:02:11Z</time>
      </trkpt>
      <trkpt lat="46.5553" lon="6.08971">
        <ele>1241.3</ele>
        <time>2024-02-03T14:02:20Z</time>
      </trkpt>
      <trkpt lat="46.5554" lon="6.08972">
        <ele>1243.1</ele>
        <time>2024-02-03T14:02:31Z</time>
      </trkpt>
      <trkpt lat="46.55549" lon="6.08976">
        <ele>1244.6</ele>
        <time>2024-02-03T14:02:41Z</time>
      </trkpt>
      <trkpt lat="46.55557" lon="6.08983">
        <ele>1244.8</ele>
        <time>2024-02-03T14:02:51Z</time>
      </trkpt>
      <trkpt lat="46.55566" lon="6.08985">
        <ele>1244.4</ele>
        <time>2024-02-03T14:03:03Z</time>
      </trkpt>
      <trkpt lat="46.55576" lon="6.08984">
        <ele>1244.3</ele>
        <time>2024-02-03T14:03:18Z</time>
      </trkpt>
      <trkpt lat="46.5558" lon="6.08972">
        <ele>1245.1</ele>
        <time>2024-02-03T14:03:29Z</time>
      </trkpt>
      <trkpt lat="46.55584" lon="6.0896">
        <ele>1245.5</ele>
        <time>2024-02-03T14:03:41Z</time>
      </trkpt>
      <trkpt lat="46.55593" lon="6.08956">
        <ele>1247.3</ele>
        <time>2024-02-03T14:03:52Z</time>
      </trkpt>
      <trkpt lat="46.55602" lon="6.08962">
        <ele>1248.7</ele>
        <time>2024-02-03T14:03:59Z</time>
      </trkpt>
      <trkpt lat="46.55608" lon="6.08973">
        <ele>1249.3</ele>
        <time>2024-02-03T14:04:07Z</time>
      </trkpt>
      <trkpt lat="46.55616" lon="6.0898">
        <ele>1249.9</ele>
        <time>2024-02-03T14:04:14Z</time>
      </trkpt>
      <trkpt lat="46.55623" lon="6.08989">
        <ele>1250.3</ele>
        <time>2024-02-03T14:04:22Z</time>
      </trkpt>
      <trkpt lat="46.55632" lon="6.08995">
        <ele>1251.7</ele>
        <time>2024-02-03T14:04:35Z</time>
      </trkpt>
      <trkpt lat="46.55641" lon="6.08995">
        <ele>1253.4</ele>
        <time>2024-02-03T14:04:44Z</time>
      </trkpt>
      <trkpt lat="46.55652" lon="6.08993">
        <ele>1254.6</ele>
        <time>2024-02-03T14:04:53Z</time>
      </trkpt>
      <trkpt lat="46.55661" lon="6.08994">
        <ele>1255.6</ele>
        <time>2024-02-03T14:05:01Z</time>
      </trkpt>
      <trkpt lat="46.5567" lon="6.08998">
        <ele>1256.6</ele>
        <time>2024-02-03T14:05:09Z</time>
      </trkpt>
      <trkpt lat="46.55679" lon="6.09005">
        <ele>1257.2</ele>
        <time>2024-02-03T14:05:19Z</time>
      </trkpt>
      <trkpt lat="46.55689" lon="6.09004">
        <ele>1258.7</ele>
        <time>2024-02-03T14:05:29Z</time>
      </trkpt>
      <trkpt lat="46.55697" lon="6.08997">
        <ele>1260.3</ele>
        <time>2024-02-03T14:05:41Z</time>
      </trkpt>
      <trkpt lat="46.55706" lon="6.08992">
        <ele>1260.6</ele>
        <time>2024-02-03T14:05:51Z</time>
      </trkpt>
      <trkpt lat="46.55714" lon="6.08985">
        <ele>1261.2</ele>
        <time>2024-02-03T14:06:00Z</time>
      </trkpt>
      <trkpt lat="46.55723" lon="6.0898">
        <ele>1262</ele>
        <time>2024-02-03T14:06:09Z</time>
      </trkpt>
      <trkpt lat="46.55733" lon="6.08983">
        <ele>1262.6</ele>
        <time>2024-02-03T14:06:17Z</time>
      </trkpt>
      <trkpt lat="46.5574" lon="6.08992">
        <ele>1262.7</ele>
        <time>2024-02-03T14:06:25Z</time>
      </trkpt>
      <trkpt lat="46.55746" lon="6.09004">
        <ele>1263.1</ele>
        <time>2024-02-03T14:06:32Z</time>
      </trkpt>
      <trkpt lat="46.55747" lon="6.09019">
        <ele>1262.6</ele>
        <time>2024-02-03T14:06:40Z</time>
      </trkpt>
      <trkpt lat="46.5575" lon="6.09032">
        <ele>1263.1</ele>
        <time>2024-02-03T14:06:47Z</time>
      </trkpt>
      <trkpt lat="46.55755" lon="6.09045">
        <ele>1264.3</ele>
        <time>2024-02-03T14:06:55Z</time>
      </trkpt>
      <trkpt lat="46.55761" lon="6.09056">
        <ele>1265.2</ele>
        <time>2024-02-03T14:07:03Z</time>
      </trkpt>
      <trkpt lat="46.55769" lon="6.09064">
        <ele>1266.1</ele>
        <time>2024-02-03T14:07:10Z</time>
      </trkpt>
      <trkpt lat="46.55778" lon="6.09067">
        <ele>1266.2</ele>
        <time>2024-02-03T14:07:19Z</time>
      </trkpt>
      <trkpt lat="46.55788" lon="6.09065">
        <ele>1265.9</ele>
        <time>2024-02-03T14:07:28Z</time>
      </trkpt>
      <trkpt lat="46.55795" lon="6.09057">
        <ele>1264.6</ele>
        <time>2024-02-03T14:07:36Z</time>
      </trkpt>
      <trkpt lat="46.55803" lon="6.09049">
        <ele>1262.3</ele>
        <time>2024-02-03T14:07:45Z</time>
      </trkpt>
      <trkpt lat="46.55811" lon="6.09041">
        <ele>1260.7</ele>
        <time>2024-02-03T14:07:54Z</time>
      </trkpt>
      <trkpt lat="46.5582" lon="6.09034">
        <ele>1259.6</ele>
        <time>2024-02-03T14:08:02Z</time>
      </trkpt>
      <trkpt lat="46.55829" lon="6.09028">
        <ele>1258.9</ele>
        <time>2024-02-03T14:08:08Z</time>
      </trkpt>
      <trkpt lat="46.55839" lon="6.09024">
        <ele>1259.6</ele>
        <time>2024-02-03T14:08:16Z</time>
      </trkpt>
      <trkpt lat="46.55848" lon="6.09018">
        <ele>1260.6</ele>
        <time>2024-02-03T14:08:24Z</time>
      </trkpt>
      <trkpt lat="46.55857" lon="6.09023">
        <ele>1261</ele>
        <time>2024-02-03T14:08:30Z</time>
      </trkpt>
      <trkpt lat="46.55865" lon="6.09032">
        <ele>1261.2</ele>
        <time>2024-02-03T14:08:36Z</time>
      </trkpt>
      <trkpt lat="46.55873" lon="6.09041">
        <ele>1261.2</ele>
        <time>2024-02-03T14:08:45Z</time>
      </trkpt>
      <trkpt lat="46.55878" lon="6.09054">
        <ele>1260.5</ele>
        <time>2024-02-03T14:08:52Z</time>
      </trkpt>
      <trkpt lat="46.55877" lon="6.09068">
        <ele>1259.6</ele>
        <time>2024-02-03T14:08:59Z</time>
      </trkpt>
      <trkpt lat="46.55876" lon="6.09082">
        <ele>1258.6</ele>
        <time>2024-02-03T14:09:06Z</time>
      </trkpt>
      <trkpt lat="46.55877" lon="6.09096">
        <ele>1258.1</ele>
        <time>2024-02-03T14:09:13Z</time>
      </trkpt>
      <trkpt lat="46.55873" lon="6.09108">
        <ele>1257.5</ele>
        <time>2024-02-03T14:09:20Z</time>
      </trkpt>
      <trkpt lat="46.55873" lon="6.09123">
        <ele>1257.4</ele>
        <time>2024-02-03T14:09:28Z</time>
      </trkpt>
      <trkpt lat="46.55875" lon="6.09137">
        <ele>1257.5</ele>
        <time>2024-02-03T14:09:37Z</time>
      </trkpt>
      <trkpt lat="46.55879" lon="6.09151">
        <ele>1258.1</ele>
        <time>2024-02-03T14:09:45Z</time>
      </trkpt>
      <trkpt lat="46.55882" lon="6.09165">
        <ele>1258.7</ele>
        <time>2024-02-03T14:09:56Z</time>
      </trkpt>
      <trkpt lat="46.55879" lon="6.09179">
        <ele>1257.5</ele>
        <time>2024-02-03T14:10:04Z</time>
      </trkpt>
      <trkpt lat="46.55881" lon="6.09193">
        <ele>1256.3</ele>
        <time>2024-02-03T14:10:12Z</time>
      </trkpt>
      <trkpt lat="46.55882" lon="6.09206">
        <ele>1255.7</ele>
        <time>2024-02-03T14:10:20Z</time>
      </trkpt>
      <trkpt lat="46.55881" lon="6.09219">
        <ele>1254.9</ele>
        <time>2024-02-03T14:10:29Z</time>
      </trkpt>
      <trkpt lat="46.55881" lon="6.09233">
        <ele>1254.2</ele>
        <time>2024-02-03T14:10:37Z</time>
      </trkpt>
      <trkpt lat="46.5588" lon="6.09246">
        <ele>1253.3</ele>
        <time>2024-02-03T14:10:46Z</time>
      </trkpt>
      <trkpt lat="46.55884" lon="6.09261">
        <ele>1253.1</ele>
        <time>2024-02-03T14:10:55Z</time>
      </trkpt>
      <trkpt lat="46.55884" lon="6.09276">
        <ele>1252.6</ele>
        <time>2024-02-03T14:11:02Z</time>
      </trkpt>
      <trkpt lat="46.55885" lon="6.0929">
        <ele>1252.2</ele>
        <time>2024-02-03T14:11:11Z</time>
      </trkpt>
      <trkpt lat="46.55882" lon="6.09302">
        <ele>1251.4</ele>
        <time>2024-02-03T14:11:18Z</time>
      </trkpt>
      <trkpt lat="46.5588" lon="6.09315">
        <ele>1249.7</ele>
        <time>2024-02-03T14:11:25Z</time>
      </trkpt>
      <trkpt lat="46.55878" lon="6.09329">
        <ele>1247.8</ele>
        <time>2024-02-03T14:11:33Z</time>
      </trkpt>
      <trkpt lat="46.55877" lon="6.09343">
        <ele>1247.2</ele>
        <time>2024-02-03T14:11:41Z</time>
      </trkpt>
      <trkpt lat="46.55869" lon="6.0935">
        <ele>1247.5</ele>
        <time>2024-02-03T14:11:47Z</time>
      </trkpt>
      <trkpt lat="46.55865" lon="6.09362">
        <ele>1247</ele>
        <time>2024-02-03T14:11:55Z</time>
      </trkpt>
      <trkpt lat="46.55869" lon="6.09375">
        <ele>1247.1</ele>
        <time>2024-02-03T14:12:02Z</time>
      </trkpt>
      <trkpt lat="46.55867" lon="6.09389">
        <ele>1247.2</ele>
        <time>2024-02-03T14:12:12Z</time>
      </trkpt>
      <trkpt lat="46.55865" lon="6.09403">
        <ele>1246.6</ele>
        <time>2024-02-03T14:12:22Z</time>
      </trkpt>
      <trkpt lat="46.55863" lon="6.09417">
        <ele>1246.1</ele>
        <time>2024-02-03T14:12:31Z</time>
      </trkpt>
      <trkpt lat="46.55862" lon="6.09431">
        <ele>1245.5</ele>
        <time>2024-02-03T14:12:40Z</time>
      </trkpt>
      <trkpt lat="46.55865" lon="6.09445">
        <ele>1244.6</ele>
        <time>2024-02-03T14:12:51Z</time>
      </trkpt>
      <trkpt lat="46.55864" lon="6.09459">
        <ele>1243.3</ele>
        <time>2024-02-03T14:13:00Z</time>
      </trkpt>
      <trkpt lat="46.55859" lon="6.09471">
        <ele>1242.3</ele>
        <time>2024-02-03T14:13:07Z</time>
      </trkpt>
      <trkpt lat="46.55857" lon="6.09484">
        <ele>1240.9</ele>
        <time>2024-02-03T14:13:14Z</time>
      </trkpt>
      <trkpt lat="46.55856" lon="6.09497">
        <ele>1239.7</ele>
        <time>2024-02-03T14:13:21Z</time>
      </trkpt>
      <trkpt lat="46.55862" lon="6.09508">
        <ele>1239.2</ele>
        <time>2024-02-03T14:13:29Z</time>
      </trkpt>
      <trkpt lat="46.55871" lon="6.09514">
        <ele>1239.6</ele>
        <time>2024-02-03T14:13:36Z</time>
      </trkpt>
      <trkpt lat="46.55877" lon="6.09525">
        <ele>1239.7</ele>
        <time>2024-02-03T14:13:44Z</time>
      </trkpt>
      <trkpt lat="46.55877" lon="6.09539">
        <ele>1240.6</ele>
        <time>2024-02-03T14:13:56Z</time>
      </trkpt>
      <trkpt lat="46.5587" lon="6.09548">
        <ele>1240.6</ele>
        <time>2024-02-03T14:15:00Z</time>
      </trkpt>
      <trkpt lat="46.55861" lon="6.09552">
        <ele>1239.4</ele>
        <time>2024-02-03T14:15:18Z</time>
      </trkpt>
      <trkpt lat="46.55854" lon="6.09561">
        <ele>1239.6</ele>
        <time>2024-02-03T14:15:28Z</time>
      </trkpt>
      <trkpt lat="46.55846" lon="6.09569">
        <ele>1240</ele>
        <time>2024-02-03T14:15:38Z</time>
      </trkpt>
      <trkpt lat="46.55837" lon="6.09575">
        <ele>1240.5</ele>
        <time>2024-02-03T14:15:45Z</time>
      </trkpt>
      <trkpt lat="46.55828" lon="6.09582">
        <ele>1240.2</ele>
        <time>2024-02-03T14:15:54Z</time>
      </trkpt>
      <trkpt lat="46.55819" lon="6.0959">
        <ele>1239.6</ele>
        <time>2024-02-03T14:16:01Z</time>
      </trkpt>
      <trkpt lat="46.55811" lon="6.09599">
        <ele>1238</ele>
        <time>2024-02-03T14:16:08Z</time>
      </trkpt>
      <trkpt lat="46.55804" lon="6.09608">
        <ele>1235.8</ele>
        <time>2024-02-03T14:16:18Z</time>
      </trkpt>
      <trkpt lat="46.55796" lon="6.09618">
        <ele>1235.5</ele>
        <time>2024-02-03T14:16:30Z</time>
      </trkpt>
      <trkpt lat="46.55788" lon="6.09625">
        <ele>1235.5</ele>
        <time>2024-02-03T14:16:35Z</time>
      </trkpt>
      <trkpt lat="46.5578" lon="6.09632">
        <ele>1234.9</ele>
        <time>2024-02-03T14:16:41Z</time>
      </trkpt>
      <trkpt lat="46.55771" lon="6.09638">
        <ele>1233.9</ele>
        <time>2024-02-03T14:16:48Z</time>
      </trkpt>
      <trkpt lat="46.55763" lon="6.09644">
        <ele>1232.9</ele>
        <time>2024-02-03T14:16:55Z</time>
      </trkpt>
      <trkpt lat="46.55755" lon="6.09653">
        <ele>1232</ele>
        <time>2024-02-03T14:17:04Z</time>
      </trkpt>
      <trkpt lat="46.5575" lon="6.09665">
        <ele>1231.1</ele>
        <time>2024-02-03T14:17:13Z</time>
      </trkpt>
      <trkpt lat="46.5575" lon="6.09679">
        <ele>1231.4</ele>
        <time>2024-02-03T14:17:24Z</time>
      </trkpt>
      <trkpt lat="46.55755" lon="6.09691">
        <ele>1231.4</ele>
        <time>2024-02-03T14:17:31Z</time>
      </trkpt>
      <trkpt lat="46.55754" lon="6.09704">
        <ele>1230.6</ele>
        <time>2024-02-03T14:17:39Z</time>
      </trkpt>
      <trkpt lat="46.55751" lon="6.09716">
        <ele>1229.6</ele>
        <time>2024-02-03T14:17:47Z</time>
      </trkpt>
      <trkpt lat="46.55748" lon="6.09729">
        <ele>1228.4</ele>
        <time>2024-02-03T14:17:54Z</time>
      </trkpt>
      <trkpt lat="46.55741" lon="6.09736">
        <ele>1228.3</ele>
        <time>2024-02-03T14:18:02Z</time>
      </trkpt>
      <trkpt lat="46.55732" lon="6.09739">
        <ele>1228.7</ele>
        <time>2024-02-03T14:19:37Z</time>
      </trkpt>
      <trkpt lat="46.55722" lon="6.09742">
        <ele>1229.2</ele>
        <time>2024-02-03T14:20:59Z</time>
      </trkpt>
      <trkpt lat="46.55713" lon="6.09749">
        <ele>1229.4</ele>
        <time>2024-02-03T14:21:06Z</time>
      </trkpt>
      <trkpt lat="46.55705" lon="6.09757">
        <ele>1229.3</ele>
        <time>2024-02-03T14:21:14Z</time>
      </trkpt>
      <trkpt lat="46.55698" lon="6.09765">
        <ele>1228.5</ele>
        <time>2024-02-03T14:21:22Z</time>
      </trkpt>
      <trkpt lat="46.55692" lon="6.09776">
        <ele>1227.3</ele>
        <time>2024-02-03T14:21:31Z</time>
      </trkpt>
      <trkpt lat="46.55688" lon="6.09788">
        <ele>1226.9</ele>
        <time>2024-02-03T14:21:38Z</time>
      </trkpt>
      <trkpt lat="46.55686" lon="6.09801">
        <ele>1226</ele>
        <time>2024-02-03T14:21:46Z</time>
      </trkpt>
      <trkpt lat="46.55681" lon="6.09814">
        <ele>1226.9</ele>
        <time>2024-02-03T14:21:54Z</time>
      </trkpt>
      <trkpt lat="46.55678" lon="6.09827">
        <ele>1227.4</ele>
        <time>2024-02-03T14:22:01Z</time>
      </trkpt>
      <trkpt lat="46.55682" lon="6.09841">
        <ele>1226.8</ele>
        <time>2024-02-03T14:22:08Z</time>
      </trkpt>
      <trkpt lat="46.55686" lon="6.09852">
        <ele>1226.2</ele>
        <time>2024-02-03T14:22:17Z</time>
      </trkpt>
      <trkpt lat="46.55692" lon="6.09865">
        <ele>1225.3</ele>
        <time>2024-02-03T14:22:25Z</time>
      </trkpt>
      <trkpt lat="46.55698" lon="6.09875">
        <ele>1224.6</ele>
        <time>2024-02-03T14:22:31Z</time>
      </trkpt>
      <trkpt lat="46.55704" lon="6.09886">
        <ele>1224</ele>
        <time>2024-02-03T14:22:38Z</time>
      </trkpt>
      <trkpt lat="46.55706" lon="6.099">
        <ele>1224</ele>
        <time>2024-02-03T14:22:46Z</time>
      </trkpt>
      <trkpt lat="46.55707" lon="6.09914">
        <ele>1224.2</ele>
        <time>2024-02-03T14:22:53Z</time>
      </trkpt>
      <trkpt lat="46.55702" lon="6.09925">
        <ele>1224</ele>
        <time>2024-02-03T14:22:59Z</time>
      </trkpt>
      <trkpt lat="46.55698" lon="6.09938">
        <ele>1222.6</ele>
        <time>2024-02-03T14:23:05Z</time>
      </trkpt>
      <trkpt lat="46.55695" lon="6.09951">
        <ele>1220.7</ele>
        <time>2024-02-03T14:23:13Z</time>
      </trkpt>
      <trkpt lat="46.55688" lon="6.09961">
        <ele>1220.3</ele>
        <time>2024-02-03T14:23:23Z</time>
      </trkpt>
      <trkpt lat="46.55679" lon="6.09969">
        <ele>1220.2</ele>
        <time>2024-02-03T14:23:30Z</time>
      </trkpt>
      <trkpt lat="46.55674" lon="6.09982">
        <ele>1219.7</ele>
        <time>2024-02-03T14:23:38Z</time>
      </trkpt>
      <trkpt lat="46.55666" lon="6.0999">
        <ele>1219.6</ele>
        <time>2024-02-03T14:23:45Z</time>
      </trkpt>
      <trkpt lat="46.5566" lon="6.10002">
        <ele>1218.2</ele>
        <time>2024-02-03T14:23:53Z</time>
      </trkpt>
      <trkpt lat="46.55658" lon="6.10015">
        <ele>1217.6</ele>
        <time>2024-02-03T14:24:02Z</time>
      </trkpt>
      <trkpt lat="46.55653" lon="6.10026">
        <ele>1217.1</ele>
        <time>2024-02-03T14:25:09Z</time>
      </trkpt>
      <trkpt lat="46.55649" lon="6.10038">
        <ele>1217.3</ele>
        <time>2024-02-03T14:25:26Z</time>
      </trkpt>
      <trkpt lat="46.55644" lon="6.10049">
        <ele>1217.3</ele>
        <time>2024-02-03T14:25:35Z</time>
      </trkpt>
      <trkpt lat="46.55641" lon="6.10062">
        <ele>1216.8</ele>
        <time>2024-02-03T14:25:44Z</time>
      </trkpt>
      <trkpt lat="46.55635" lon="6.10074">
        <ele>1216.8</ele>
        <time>2024-02-03T14:25:53Z</time>
      </trkpt>
      <trkpt lat="46.5563" lon="6.10086">
        <ele>1216.9</ele>
        <time>2024-02-03T14:26:04Z</time>
      </trkpt>
      <trkpt lat="46.55625" lon="6.10097">
        <ele>1215.9</ele>
        <time>2024-02-03T14:26:13Z</time>
      </trkpt>
      <trkpt lat="46.55621" lon="6.10109">
        <ele>1214.9</ele>
        <time>2024-02-03T14:26:21Z</time>
      </trkpt>
      <trkpt lat="46.55612" lon="6.10116">
        <ele>1214.9</ele>
        <time>2024-02-03T14:26:28Z</time>
      </trkpt>
      <trkpt lat="46.55604" lon="6.10124">
        <ele>1214.4</ele>
        <time>2024-02-03T14:26:35Z</time>
      </trkpt>
      <trkpt lat="46.55594" lon="6.10128">
        <ele>1214.5</ele>
        <time>2024-02-03T14:26:43Z</time>
      </trkpt>
      <trkpt lat="46.55585" lon="6.10135">
        <ele>1214.5</ele>
        <time>2024-02-03T14:26:52Z</time>
      </trkpt>
      <trkpt lat="46.55576" lon="6.10142">
        <ele>1215.4</ele>
        <time>2024-02-03T14:27:01Z</time>
      </trkpt>
      <trkpt lat="46.55569" lon="6.10149">
        <ele>1216.4</ele>
        <time>2024-02-03T14:27:09Z</time>
      </trkpt>
      <trkpt lat="46.55561" lon="6.10158">
        <ele>1216.3</ele>
        <time>2024-02-03T14:27:17Z</time>
      </trkpt>
      <trkpt lat="46.55553" lon="6.10167">
        <ele>1215.2</ele>
        <time>2024-02-03T14:27:26Z</time>
      </trkpt>
      <trkpt lat="46.55545" lon="6.10174">
        <ele>1215.8</ele>
        <time>2024-02-03T14:27:35Z</time>
      </trkpt>
      <trkpt lat="46.55536" lon="6.10179">
        <ele>1215.8</ele>
        <time>2024-02-03T14:27:42Z</time>
      </trkpt>
      <trkpt lat="46.55527" lon="6.10184">
        <ele>1215.3</ele>
        <time>2024-02-03T14:27:49Z</time>
      </trkpt>
      <trkpt lat="46.55519" lon="6.10193">
        <ele>1215.8</ele>
        <time>2024-02-03T14:27:56Z</time>
      </trkpt>
      <trkpt lat="46.55515" lon="6.10206">
        <ele>1216.2</ele>
        <time>2024-02-03T14:28:04Z</time>
      </trkpt>
      <trkpt lat="46.55512" lon="6.10218">
        <ele>1216.1</ele>
        <time>2024-02-03T14:28:13Z</time>
      </trkpt>
      <trkpt lat="46.55511" lon="6.10233">
        <ele>1215.3</ele>
        <time>2024-02-03T14:28:22Z</time>
      </trkpt>
      <trkpt lat="46.55514" lon="6.10245">
        <ele>1214.3</ele>
        <time>2024-02-03T14:28:30Z</time>
      </trkpt>
      <trkpt lat="46.55517" lon="6.10258">
        <ele>1214.1</ele>
        <time>2024-02-03T14:28:38Z</time>
      </trkpt>
      <trkpt lat="46.55516" lon="6.10272">
        <ele>1214.1</ele>
        <time>2024-02-03T14:28:47Z</time>
      </trkpt>
      <trkpt lat="46.55518" lon="6.10286">
        <ele>1214.6</ele>
        <time>2024-02-03T14:29:21Z</time>
      </trkpt>
      <trkpt lat="46.55519" lon="6.10299">
        <ele>1215.2</ele>
        <time>2024-02-03T14:29:35Z</time>
      </trkpt>
      <trkpt lat="46.55516" lon="6.10313">
        <ele>1216.3</ele>
        <time>2024-02-03T14:29:44Z</time>
      </trkpt>
      <trkpt lat="46.5551" lon="6.10323">
        <ele>1216.1</ele>
        <time>2024-02-03T14:29:52Z</time>
      </trkpt>
      <trkpt lat="46.55503" lon="6.10332">
        <ele>1214.8</ele>
        <time>2024-02-03T14:30:00Z</time>
      </trkpt>
      <trkpt lat="46.55496" lon="6.10341">
        <ele>1214.4</ele>
        <time>2024-02-03T14:30:08Z</time>
      </trkpt>
      <trkpt lat="46.55489" lon="6.1035">
        <ele>1213.9</ele>
        <time>2024-02-03T14:30:17Z</time>
      </trkpt>
      <trkpt lat="46.55482" lon="6.10359">
        <ele>1212.9</ele>
        <time>2024-02-03T14:30:26Z</time>
      </trkpt>
      <trkpt lat="46.5548" lon="6.10373">
        <ele>1213.3</ele>
        <time>2024-02-03T14:30:33Z</time>
      </trkpt>
      <trkpt lat="46.5548" lon="6.10386">
        <ele>1214</ele>
        <time>2024-02-03T14:30:40Z</time>
      </trkpt>
      <trkpt lat="46.55476" lon="6.10397">
        <ele>1214.3</ele>
        <time>2024-02-03T14:30:49Z</time>
      </trkpt>
      <trkpt lat="46.55467" lon="6.10402">
        <ele>1213.3</ele>
        <time>2024-02-03T14:30:57Z</time>
      </trkpt>
      <trkpt lat="46.55459" lon="6.10408">
        <ele>1212.7</ele>
        <time>2024-02-03T14:31:05Z</time>
      </trkpt>
      <trkpt lat="46.5545" lon="6.10412">
        <ele>1211.8</ele>
        <time>2024-02-03T14:31:13Z</time>
      </trkpt>
      <trkpt lat="46.55442" lon="6.10422">
        <ele>1212.4</ele>
        <time>2024-02-03T14:31:23Z</time>
      </trkpt>
      <trkpt lat="46.55436" lon="6.10431">
        <ele>1213</ele>
        <time>2024-02-03T14:31:30Z</time>
      </trkpt>
      <trkpt lat="46.55429" lon="6.1044">
        <ele>1213.4</ele>
        <time>2024-02-03T14:31:40Z</time>
      </trkpt>
      <trkpt lat="46.5542" lon="6.10448">
        <ele>1213.5</ele>
        <time>2024-02-03T14:31:50Z</time>
      </trkpt>
      <trkpt lat="46.55412" lon="6.10457">
        <ele>1213.4</ele>
        <time>2024-02-03T14:31:57Z</time>
      </trkpt>
      <trkpt lat="46.55404" lon="6.10464">
        <ele>1212.8</ele>
        <time>2024-02-03T14:32:04Z</time>
      </trkpt>
      <trkpt lat="46.55395" lon="6.10473">
        <ele>1212</ele>
        <time>2024-02-03T14:32:11Z</time>
      </trkpt>
      <trkpt lat="46.55386" lon="6.10479">
        <ele>1212.4</ele>
        <time>2024-02-03T14:32:18Z</time>
      </trkpt>
      <trkpt lat="46.55378" lon="6.10486">
        <ele>1213.5</ele>
        <time>2024-02-03T14:32:24Z</time>
      </trkpt>
      <trkpt lat="46.5537" lon="6.10495">
        <ele>1213.8</ele>
        <time>2024-02-03T14:32:32Z</time>
      </trkpt>
      <trkpt lat="46.55363" lon="6.10504">
        <ele>1212.8</ele>
        <time>2024-02-03T14:32:38Z</time>
      </trkpt>
      <trkpt lat="46.55358" lon="6.10515">
        <ele>1212.3</ele>
        <time>2024-02-03T14:32:45Z</time>
      </trkpt>
      <trkpt lat="46.55354" lon="6.10528">
        <ele>1212.7</ele>
        <time>2024-02-03T14:32:53Z</time>
      </trkpt>
      <trkpt lat="46.55351" lon="6.10541">
        <ele>1213.6</ele>
        <time>2024-02-03T14:33:02Z</time>
      </trkpt>
      <trkpt lat="46.55354" lon="6.10554">
        <ele>1212.8</ele>
        <time>2024-02-03T14:33:13Z</time>
      </trkpt>
      <trkpt lat="46.55362" lon="6.1056">
        <ele>1211.5</ele>
        <time>2024-02-03T14:33:22Z</time>
      </trkpt>
      <trkpt lat="46.55371" lon="6.10564">
        <ele>1212.6</ele>
        <time>2024-02-03T14:33:32Z</time>
      </trkpt>
      <trkpt lat="46.55379" lon="6.10558">
        <ele>1212.6</ele>
        <time>2024-02-03T14:33:43Z</time>
      </trkpt>
      <trkpt lat="46.55389" lon="6.10556">
        <ele>1213</ele>
        <time>2024-02-03T14:33:52Z</time>
      </trkpt>
      <trkpt lat="46.55397" lon="6.1056">
        <ele>1214.7</ele>
        <time>2024-02-03T14:33:59Z</time>
      </trkpt>
      <trkpt lat="46.55406" lon="6.10567">
        <ele>1215.8</ele>
        <time>2024-02-03T14:34:06Z</time>
      </trkpt>
      <trkpt lat="46.55414" lon="6.10574">
        <ele>1215.9</ele>
        <time>2024-02-03T14:34:13Z</time>
      </trkpt>
      <trkpt lat="46.5542" lon="6.10584">
        <ele>1215.7</ele>
        <time>2024-02-03T14:34:20Z</time>
      </trkpt>
      <trkpt lat="46.55426" lon="6.10594">
        <ele>1217.1</ele>
        <time>2024-02-03T14:34:27Z</time>
      </trkpt>
      <trkpt lat="46.55435" lon="6.10601">
        <ele>1217.7</ele>
        <time>2024-02-03T14:34:35Z</time>
      </trkpt>
      <trkpt lat="46.55443" lon="6.1061">
        <ele>1217.1</ele>
        <time>2024-02-03T14:34:42Z</time>
      </trkpt>
      <trkpt lat="46.55448" lon="6.10621">
        <ele>1217</ele>
        <time>2024-02-03T14:34:51Z</time>
      </trkpt>
      <trkpt lat="46.55456" lon="6.1063">
        <ele>1217.5</ele>
        <time>2024-02-03T14:34:59Z</time>
      </trkpt>
      <trkpt lat="46.55464" lon="6.10639">
        <ele>1217.8</ele>
        <time>2024-02-03T14:35:06Z</time>
      </trkpt>
      <trkpt lat="46.55471" lon="6.10648">
        <ele>1218.2</ele>
        <time>2024-02-03T14:35:13Z</time>
      </trkpt>
      <trkpt lat="46.55478" lon="6.10657">
        <ele>1218.4</ele>
        <time>2024-02-03T14:35:21Z</time>
      </trkpt>
      <trkpt lat="46.55485" lon="6.10667">
        <ele>1218.4</ele>
        <time>2024-02-03T14:35:28Z</time>
      </trkpt>
      <trkpt lat="46.55492" lon="6.10675">
        <ele>1218.7</ele>
        <time>2024-02-03T14:35:35Z</time>
      </trkpt>
      <trkpt lat="46.55498" lon="6.10686">
        <ele>1218</ele>
        <time>2024-02-03T14:35:42Z</time>
      </trkpt>
      <trkpt lat="46.555" lon="6.10699">
        <ele>1217</ele>
        <time>2024-02-03T14:35:50Z</time>
      </trkpt>
      <trkpt lat="46.55499" lon="6.10712">
        <ele>1217</ele>
        <time>2024-02-03T14:35:57Z</time>
      </trkpt>
      <trkpt lat="46.55499" lon="6.10727">
        <ele>1217.1</ele>
        <time>2024-02-03T14:36:06Z</time>
      </trkpt>
      <trkpt lat="46.55498" lon="6.10741">
        <ele>1217.5</ele>
        <time>2024-02-03T14:36:15Z</time>
      </trkpt>
      <trkpt lat="46.55496" lon="6.10754">
        <ele>1217.7</ele>
        <time>2024-02-03T14:36:31Z</time>
      </trkpt>
      <trkpt lat="46.55499" lon="6.10767">
        <ele>1217.9</ele>
        <time>2024-02-03T14:36:51Z</time>
      </trkpt>
      <trkpt lat="46.55499" lon="6.10781">
        <ele>1218.1</ele>
        <time>2024-02-03T14:37:04Z</time>
      </trkpt>
      <trkpt lat="46.55496" lon="6.10793">
        <ele>1218.3</ele>
        <time>2024-02-03T14:37:11Z</time>
      </trkpt>
      <trkpt lat="46.55492" lon="6.10806">
        <ele>1218.1</ele>
        <time>2024-02-03T14:37:19Z</time>
      </trkpt>
      <trkpt lat="46.55488" lon="6.10818">
        <ele>1219</ele>
        <time>2024-02-03T14:37:31Z</time>
      </trkpt>
      <trkpt lat="46.5548" lon="6.10826">
        <ele>1218.5</ele>
        <time>2024-02-03T14:37:39Z</time>
      </trkpt>
      <trkpt lat="46.55473" lon="6.10834">
        <ele>1218.1</ele>
        <time>2024-02-03T14:37:46Z</time>
      </trkpt>
      <trkpt lat="46.55467" lon="6.10845">
        <ele>1218.5</ele>
        <time>2024-02-03T14:37:56Z</time>
      </trkpt>
      <trkpt lat="46.5546" lon="6.10853">
        <ele>1218.1</ele>
        <time>2024-02-03T14:38:04Z</time>
      </trkpt>
      <trkpt lat="46.55453" lon="6.10862">
        <ele>1217.8</ele>
        <time>2024-02-03T14:38:12Z</time>
      </trkpt>
      <trkpt lat="46.55446" lon="6.1087">
        <ele>1217.5</ele>
        <time>2024-02-03T14:38:20Z</time>
      </trkpt>
      <trkpt lat="46.5544" lon="6.10882">
        <ele>1218.2</ele>
        <time>2024-02-03T14:38:28Z</time>
      </trkpt>
      <trkpt lat="46.55438" lon="6.10894">
        <ele>1218.8</ele>
        <time>2024-02-03T14:38:35Z</time>
      </trkpt>
      <trkpt lat="46.55431" lon="6.10903">
        <ele>1217.8</ele>
        <time>2024-02-03T14:38:43Z</time>
      </trkpt>
      <trkpt lat="46.55425" lon="6.10914">
        <ele>1217.1</ele>
        <time>2024-02-03T14:38:52Z</time>
      </trkpt>
      <trkpt lat="46.5542" lon="6.10926">
        <ele>1216.8</ele>
        <time>2024-02-03T14:39:02Z</time>
      </trkpt>
      <trkpt lat="46.55414" lon="6.10938">
        <ele>1216.4</ele>
        <time>2024-02-03T14:39:10Z</time>
      </trkpt>
      <trkpt lat="46.55413" lon="6.10951">
        <ele>1216.5</ele>
        <time>2024-02-03T14:39:17Z</time>
      </trkpt>
      <trkpt lat="46.55413" lon="6.10964">
        <ele>1216.7</ele>
        <time>2024-02-03T14:39:25Z</time>
      </trkpt>
      <trkpt lat="46.55411" lon="6.10978">
        <ele>1216.8</ele>
        <time>2024-02-03T14:39:33Z</time>
      </trkpt>
      <trkpt lat="46.55412" lon="6.10992">
        <ele>1216.7</ele>
        <time>2024-02-03T14:39:42Z</time>
      </trkpt>
      <trkpt lat="46.55413" lon="6.11005">
        <ele>1216.5</ele>
        <time>2024-02-03T14:40:05Z</time>
      </trkpt>
      <trkpt lat="46.55422" lon="6.1101">
        <ele>1216.6</ele>
        <time>2024-02-03T14:40:24Z</time>
      </trkpt>
      <trkpt lat="46.5543" lon="6.11018">
        <ele>1216.8</ele>
        <time>2024-02-03T14:40:36Z</time>
      </trkpt>
      <trkpt lat="46.55437" lon="6.11028">
        <ele>1217.2</ele>
        <time>2024-02-03T14:40:46Z</time>
      </trkpt>
      <trkpt lat="46.55443" lon="6.11038">
        <ele>1217.1</ele>
        <time>2024-02-03T14:40:58Z</time>
      </trkpt>
      <trkpt lat="46.55449" lon="6.11049">
        <ele>1216.8</ele>
        <time>2024-02-03T14:41:06Z</time>
      </trkpt>
      <trkpt lat="46.55455" lon="6.11059">
        <ele>1216.7</ele>
        <time>2024-02-03T14:41:15Z</time>
      </trkpt>
      <trkpt lat="46.55463" lon="6.11068">
        <ele>1216.7</ele>
        <time>2024-02-03T14:41:25Z</time>
      </trkpt>
      <trkpt lat="46.55465" lon="6.11082">
        <ele>1216.1</ele>
        <time>2024-02-03T14:41:34Z</time>
      </trkpt>
      <trkpt lat="46.55462" lon="6.11095">
        <ele>1214.7</ele>
        <time>2024-02-03T14:41:44Z</time>
      </trkpt>
      <trkpt lat="46.55462" lon="6.11109">
        <ele>1213.2</ele>
        <time>2024-02-03T14:41:54Z</time>
      </trkpt>
      <trkpt lat="46.55465" lon="6.11122">
        <ele>1211.6</ele>
        <time>2024-02-03T14:42:04Z</time>
      </trkpt>
      <trkpt lat="46.55468" lon="6.11135">
        <ele>1210.3</ele>
        <time>2024-02-03T14:42:16Z</time>
      </trkpt>
      <trkpt lat="46.55469" lon="6.11149">
        <ele>1209.3</ele>
        <time>2024-02-03T14:42:25Z</time>
      </trkpt>
      <trkpt lat="46.55477" lon="6.11158">
        <ele>1208</ele>
        <time>2024-02-03T14:42:35Z</time>
      </trkpt>
      <trkpt lat="46.55485" lon="6.11166">
        <ele>1207.1</ele>
        <time>2024-02-03T14:42:44Z</time>
      </trkpt>
      <trkpt lat="46.55494" lon="6.11174">
        <ele>1206.3</ele>
        <time>2024-02-03T14:42:52Z</time>
      </trkpt>
      <trkpt lat="46.55501" lon="6.11184">
        <ele>1205.4</ele>
        <time>2024-02-03T14:43:00Z</time>
      </trkpt>
      <trkpt lat="46.55507" lon="6.11195">
        <ele>1205.2</ele>
        <time>2024-02-03T14:43:08Z</time>
      </trkpt>
      <trkpt lat="46.55515" lon="6.11205">
        <ele>1204.7</ele>
        <time>2024-02-03T14:43:17Z</time>
      </trkpt>
      <trkpt lat="46.55521" lon="6.11216">
        <ele>1203.4</ele>
        <time>2024-02-03T14:43:24Z</time>
      </trkpt>
      <trkpt lat="46.55526" lon="6.11228">
        <ele>1201.7</ele>
        <time>2024-02-03T14:43:32Z</time>
      </trkpt>
      <trkpt lat="46.55529" lon="6.11241">
        <ele>1200.4</ele>
        <time>2024-02-03T14:43:40Z</time>
      </trkpt>
      <trkpt lat="46.5553" lon="6.11256">
        <ele>1199</ele>
        <time>2024-02-03T14:43:48Z</time>
      </trkpt>
      <trkpt lat="46.55529" lon="6.11269">
        <ele>1197.7</ele>
        <time>2024-02-03T14:43:55Z</time>
      </trkpt>
      <trkpt lat="46.55531" lon="6.11282">
        <ele>1196.6</ele>
        <time>2024-02-03T14:44:02Z</time>
      </trkpt>
      <trkpt lat="46.55531" lon="6.11296">
        <ele>1196.5</ele>
        <time>2024-02-03T14:44:10Z</time>
      </trkpt>
      <trkpt lat="46.55531" lon="6.11309">
        <ele>1196.3</ele>
        <time>2024-02-03T14:44:18Z</time>
      </trkpt>
      <trkpt lat="46.55534" lon="6.11323">
        <ele>1195.7</ele>
        <time>2024-02-03T14:44:29Z</time>
      </trkpt>
      <trkpt lat="46.55542" lon="6.11331">
        <ele>1194.9</ele>
        <time>2024-02-03T14:44:38Z</time>
      </trkpt>
      <trkpt lat="46.5555" lon="6.11336">
        <ele>1194.2</ele>
        <time>2024-02-03T14:44:46Z</time>
      </trkpt>
      <trkpt lat="46.55559" lon="6.11333">
        <ele>1193.9</ele>
        <time>2024-02-03T14:44:56Z</time>
      </trkpt>
      <trkpt lat="46.55569" lon="6.11336">
        <ele>1193.5</ele>
        <time>2024-02-03T14:45:07Z</time>
      </trkpt>
      <trkpt lat="46.55577" lon="6.1134">
        <ele>1193.5</ele>
        <time>2024-02-03T14:45:15Z</time>
      </trkpt>
      <trkpt lat="46.55585" lon="6.11347">
        <ele>1194.3</ele>
        <time>2024-02-03T14:45:24Z</time>
      </trkpt>
      <trkpt lat="46.55594" lon="6.11353">
        <ele>1195.8</ele>
        <time>2024-02-03T14:45:32Z</time>
      </trkpt>
      <trkpt lat="46.55601" lon="6.1136">
        <ele>1196.9</ele>
        <time>2024-02-03T14:45:39Z</time>
      </trkpt>
      <trkpt lat="46.5561" lon="6.11366">
        <ele>1197.7</ele>
        <time>2024-02-03T14:45:47Z</time>
      </trkpt>
      <trkpt lat="46.55617" lon="6.11376">
        <ele>1198.2</ele>
        <time>2024-02-03T14:45:57Z</time>
      </trkpt>
      <trkpt lat="46.55625" lon="6.11381">
        <ele>1198.9</ele>
        <time>2024-02-03T14:46:06Z</time>
      </trkpt>
      <trkpt lat="46.55634" lon="6.11389">
        <ele>1199.4</ele>
        <time>2024-02-03T14:46:15Z</time>
      </trkpt>
      <trkpt lat="46.55642" lon="6.11395">
        <ele>1199.9</ele>
        <time>2024-02-03T14:46:25Z</time>
      </trkpt>
      <trkpt lat="46.55651" lon="6.114">
        <ele>1200.3</ele>
        <time>2024-02-03T14:46:32Z</time>
      </trkpt>
      <trkpt lat="46.5566" lon="6.11406">
        <ele>1200.6</ele>
        <time>2024-02-03T14:46:42Z</time>
      </trkpt>
      <trkpt lat="46.55667" lon="6.11418">
        <ele>1200</ele>
        <time>2024-02-03T14:46:50Z</time>
      </trkpt>
      <trkpt lat="46.55673" lon="6.11428">
        <ele>1200</ele>
        <time>2024-02-03T14:47:00Z</time>
      </trkpt>
      <trkpt lat="46.55679" lon="6.1144">
        <ele>1199.4</ele>
        <time>2024-02-03T14:47:08Z</time>
      </trkpt>
      <trkpt lat="46.5568" lon="6.11454">
        <ele>1199.2</ele>
        <time>2024-02-03T14:47:16Z</time>
      </trkpt>
      <trkpt lat="46.55682" lon="6.11468">
        <ele>1199.4</ele>
        <time>2024-02-03T14:47:23Z</time>
      </trkpt>
      <trkpt lat="46.55683" lon="6.11482">
        <ele>1198.6</ele>
        <time>2024-02-03T14:47:30Z</time>
      </trkpt>
      <trkpt lat="46.55684" lon="6.11495">
        <ele>1197.3</ele>
        <time>2024-02-03T14:47:38Z</time>
      </trkpt>
      <trkpt lat="46.55676" lon="6.11504">
        <ele>1197.8</ele>
        <time>2024-02-03T14:47:45Z</time>
      </trkpt>
      <trkpt lat="46.55671" lon="6.11514">
        <ele>1197</ele>
        <time>2024-02-03T14:47:52Z</time>
      </trkpt>
      <trkpt lat="46.5567" lon="6.11528">
        <ele>1194.8</ele>
        <time>2024-02-03T14:48:02Z</time>
      </trkpt>
      <trkpt lat="46.55671" lon="6.11542">
        <ele>1193.4</ele>
        <time>2024-02-03T14:48:09Z</time>
      </trkpt>
      <trkpt lat="46.55674" lon="6.11554">
        <ele>1192.1</ele>
        <time>2024-02-03T14:48:17Z</time>
      </trkpt>
      <trkpt lat="46.5568" lon="6.11565">
        <ele>1191.8</ele>
        <time>2024-02-03T14:48:24Z</time>
      </trkpt>
      <trkpt lat="46.55685" lon="6.11576">
        <ele>1191.7</ele>
        <time>2024-02-03T14:48:34Z</time>
      </trkpt>
      <trkpt lat="46.55691" lon="6.11587">
        <ele>1191.6</ele>
        <time>2024-02-03T14:48:48Z</time>
      </trkpt>
      <trkpt lat="46.55699" lon="6.11594">
        <ele>1191.3</ele>
        <time>2024-02-03T14:49:12Z</time>
      </trkpt>
      <trkpt lat="46.55706" lon="6.11602">
        <ele>1190.6</ele>
        <time>2024-02-03T14:49:35Z</time>
      </trkpt>
      <trkpt lat="46.55714" lon="6.1161">
        <ele>1190.1</ele>
        <time>2024-02-03T14:49:42Z</time>
      </trkpt>
      <trkpt lat="46.55721" lon="6.11619">
        <ele>1189.5</ele>
        <time>2024-02-03T14:49:57Z</time>
      </trkpt>
      <trkpt lat="46.55725" lon="6.11631">
        <ele>1188.8</ele>
        <time>2024-02-03T14:50:06Z</time>
      </trkpt>
      <trkpt lat="46.55728" lon="6.11645">
        <ele>1188.2</ele>
        <time>2024-02-03T14:50:15Z</time>
      </trkpt>
      <trkpt lat="46.55727" lon="6.1166">
        <ele>1187.8</ele>
        <time>2024-02-03T14:50:23Z</time>
      </trkpt>
      <trkpt lat="46.55726" lon="6.11675">
        <ele>1187.8</ele>
        <time>2024-02-03T14:50:31Z</time>
      </trkpt>
      <trkpt lat="46.55725" lon="6.11689">
        <ele>1188</ele>
        <time>2024-02-03T14:50:38Z</time>
      </trkpt>
      <trkpt lat="46.55726" lon="6.11702">
        <ele>1188.3</ele>
        <time>2024-02-03T14:50:45Z</time>
      </trkpt>
      <trkpt lat="46.55726" lon="6.11715">
        <ele>1188.8</ele>
        <time>2024-02-03T14:50:53Z</time>
      </trkpt>
      <trkpt lat="46.55732" lon="6.11726">
        <ele>1189</ele>
        <time>2024-02-03T14:51:01Z</time>
      </trkpt>
      <trkpt lat="46.55739" lon="6.11735">
        <ele>1188.9</ele>
        <time>2024-02-03T14:51:09Z</time>
      </trkpt>
      <trkpt lat="46.55746" lon="6.11746">
        <ele>1188.4</ele>
        <time>2024-02-03T14:51:18Z</time>
      </trkpt>
      <trkpt lat="46.55753" lon="6.11757">
        <ele>1188</ele>
        <time>2024-02-03T14:51:26Z</time>
      </trkpt>
      <trkpt lat="46.55758" lon="6.11768">
        <ele>1187.8</ele>
        <time>2024-02-03T14:51:36Z</time>
      </trkpt>
      <trkpt lat="46.55764" lon="6.11778">
        <ele>1187.5</ele>
        <time>2024-02-03T14:51:49Z</time>
      </trkpt>
      <trkpt lat="46.55771" lon="6.11788">
        <ele>1187.9</ele>
        <time>2024-02-03T14:51:58Z</time>
      </trkpt>
      <trkpt lat="46.55776" lon="6.118">
        <ele>1189.3</ele>
        <time>2024-02-03T14:52:11Z</time>
      </trkpt>
      <trkpt lat="46.55782" lon="6.1181">
        <ele>1190.4</ele>
        <time>2024-02-03T14:54:11Z</time>
      </trkpt>
      <trkpt lat="46.55791" lon="6.11813">
        <ele>1191.3</ele>
        <time>2024-02-03T14:54:19Z</time>
      </trkpt>
      <trkpt lat="46.558" lon="6.11807">
        <ele>1192.4</ele>
        <time>2024-02-03T14:54:38Z</time>
      </trkpt>
      <trkpt lat="46.55809" lon="6.11804">
        <ele>1193.3</ele>
        <time>2024-02-03T14:54:50Z</time>
      </trkpt>
      <trkpt lat="46.55816" lon="6.11795">
        <ele>1194</ele>
        <time>2024-02-03T14:55:00Z</time>
      </trkpt>
      <trkpt lat="46.55823" lon="6.11787">
        <ele>1195.1</ele>
        <time>2024-02-03T14:55:09Z</time>
      </trkpt>
      <trkpt lat="46.55832" lon="6.11783">
        <ele>1196.6</ele>
        <time>2024-02-03T14:55:19Z</time>
      </trkpt>
      <trkpt lat="46.55842" lon="6.11783">
        <ele>1197.7</ele>
        <time>2024-02-03T14:55:28Z</time>
      </trkpt>
      <trkpt lat="46.55851" lon="6.11786">
        <ele>1198.6</ele>
        <time>2024-02-03T14:55:36Z</time>
      </trkpt>
      <trkpt lat="46.55859" lon="6.11791">
        <ele>1199.3</ele>
        <time>2024-02-03T14:55:45Z</time>
      </trkpt>
      <trkpt lat="46.55868" lon="6.11796">
        <ele>1199.9</ele>
        <time>2024-02-03T14:55:51Z</time>
      </trkpt>
      <trkpt lat="46.55877" lon="6.11798">
        <ele>1200.6</ele>
        <time>2024-02-03T14:56:00Z</time>
      </trkpt>
      <trkpt lat="46.55887" lon="6.118">
        <ele>1201.2</ele>
        <time>2024-02-03T14:56:09Z</time>
      </trkpt>
      <trkpt lat="46.55896" lon="6.11802">
        <ele>1202.1</ele>
        <time>2024-02-03T14:56:19Z</time>
      </trkpt>
      <trkpt lat="46.55905" lon="6.1181">
        <ele>1202.4</ele>
        <time>2024-02-03T14:56:28Z</time>
      </trkpt>
      <trkpt lat="46.55913" lon="6.11815">
        <ele>1203</ele>
        <time>2024-02-03T14:56:36Z</time>
      </trkpt>
      <trkpt lat="46.55922" lon="6.11823">
        <ele>1202.7</ele>
        <time>2024-02-03T14:56:43Z</time>
      </trkpt>
      <trkpt lat="46.55928" lon="6.11834">
        <ele>1202.8</ele>
        <time>2024-02-03T14:56:51Z</time>
      </trkpt>
      <trkpt lat="46.55935" lon="6.11843">
        <ele>1202.8</ele>
        <time>2024-02-03T14:56:58Z</time>
      </trkpt>
      <trkpt lat="46.5594" lon="6.11856">
        <ele>1202.7</ele>
        <time>2024-02-03T14:57:06Z</time>
      </trkpt>
      <trkpt lat="46.55946" lon="6.11867">
        <ele>1202.5</ele>
        <time>2024-02-03T14:57:15Z</time>
      </trkpt>
      <trkpt lat="46.55951" lon="6.11878">
        <ele>1201.4</ele>
        <time>2024-02-03T14:57:22Z</time>
      </trkpt>
      <trkpt lat="46.55953" lon="6.11892">
        <ele>1201</ele>
        <time>2024-02-03T14:57:29Z</time>
      </trkpt>
      <trkpt lat="46.55956" lon="6.11905">
        <ele>1201.5</ele>
        <time>2024-02-03T14:57:36Z</time>
      </trkpt>
      <trkpt lat="46.5596" lon="6.11918">
        <ele>1201.7</ele>
        <time>2024-02-03T14:57:43Z</time>
      </trkpt>
      <trkpt lat="46.55966" lon="6.1193">
        <ele>1200.2</ele>
        <time>2024-02-03T14:57:50Z</time>
      </trkpt>
      <trkpt lat="46.5597" lon="6.11943">
        <ele>1198.6</ele>
        <time>2024-02-03T14:57:58Z</time>
      </trkpt>
      <trkpt lat="46.55974" lon="6.11955">
        <ele>1198.2</ele>
        <time>2024-02-03T14:58:06Z</time>
      </trkpt>
      <trkpt lat="46.55978" lon="6.11968">
        <ele>1198.4</ele>
        <time>2024-02-03T14:58:14Z</time>
      </trkpt>
      <trkpt lat="46.55983" lon="6.1198">
        <ele>1198.8</ele>
        <time>2024-02-03T14:58:22Z</time>
      </trkpt>
      <trkpt lat="46.55988" lon="6.11992">
        <ele>1198.7</ele>
        <time>2024-02-03T14:58:30Z</time>
      </trkpt>
      <trkpt lat="46.55995" lon="6.12001">
        <ele>1197.3</ele>
        <time>2024-02-03T14:58:39Z</time>
      </trkpt>
      <trkpt lat="46.56003" lon="6.12008">
        <ele>1196.7</ele>
        <time>2024-02-03T14:58:49Z</time>
      </trkpt>
      <trkpt lat="46.56011" lon="6.12012">
        <ele>1197.3</ele>
        <time>2024-02-03T14:58:57Z</time>
      </trkpt>
      <trkpt lat="46.56021" lon="6.12016">
        <ele>1197.9</ele>
        <time>2024-02-03T14:59:09Z</time>
      </trkpt>
      <trkpt lat="46.5603" lon="6.12015">
        <ele>1198.2</ele>
        <time>2024-02-03T14:59:20Z</time>
      </trkpt>
      <trkpt lat="46.56039" lon="6.1201">
        <ele>1198.3</ele>
        <time>2024-02-03T14:59:31Z</time>
      </trkpt>
      <trkpt lat="46.56048" lon="6.1201">
        <ele>1198.7</ele>
        <time>2024-02-03T14:59:43Z</time>
      </trkpt>
      <trkpt lat="46.56058" lon="6.12014">
        <ele>1199.6</ele>
        <time>2024-02-03T14:59:50Z</time>
      </trkpt>
      <trkpt lat="46.56066" lon="6.12021">
        <ele>1200.7</ele>
        <time>2024-02-03T14:59:59Z</time>
      </trkpt>
      <trkpt lat="46.56075" lon="6.12027">
        <ele>1201.6</ele>
        <time>2024-02-03T15:00:08Z</time>
      </trkpt>
      <trkpt lat="46.56082" lon="6.12034">
        <ele>1202.5</ele>
        <time>2024-02-03T15:00:17Z</time>
      </trkpt>
      <trkpt lat="46.56091" lon="6.12039">
        <ele>1202.2</ele>
        <time>2024-02-03T15:00:26Z</time>
      </trkpt>
      <trkpt lat="46.56099" lon="6.12049">
        <ele>1201.6</ele>
        <time>2024-02-03T15:00:34Z</time>
      </trkpt>
      <trkpt lat="46.56107" lon="6.12057">
        <ele>1200.9</ele>
        <time>2024-02-03T15:00:42Z</time>
      </trkpt>
      <trkpt lat="46.56113" lon="6.12068">
        <ele>1202.5</ele>
        <time>2024-02-03T15:00:49Z</time>
      </trkpt>
      <trkpt lat="46.56121" lon="6.12077">
        <ele>1204.7</ele>
        <time>2024-02-03T15:00:57Z</time>
      </trkpt>
      <trkpt lat="46.56128" lon="6.12088">
        <ele>1205.8</ele>
        <time>2024-02-03T15:01:05Z</time>
      </trkpt>
      <trkpt lat="46.56136" lon="6.12094">
        <ele>1206</ele>
        <time>2024-02-03T15:01:12Z</time>
      </trkpt>
      <trkpt lat="46.56145" lon="6.12097">
        <ele>1206.8</ele>
        <time>2024-02-03T15:01:21Z</time>
      </trkpt>
      <trkpt lat="46.56155" lon="6.12094">
        <ele>1207.5</ele>
        <time>2024-02-03T15:01:30Z</time>
      </trkpt>
      <trkpt lat="46.56163" lon="6.12087">
        <ele>1206.7</ele>
        <time>2024-02-03T15:01:43Z</time>
      </trkpt>
      <trkpt lat="46.56172" lon="6.12082">
        <ele>1207.1</ele>
        <time>2024-02-03T15:01:52Z</time>
      </trkpt>
      <trkpt lat="46.56181" lon="6.12079">
        <ele>1208.8</ele>
        <time>2024-02-03T15:02:03Z</time>
      </trkpt>
      <trkpt lat="46.5619" lon="6.12076">
        <ele>1210.9</ele>
        <time>2024-02-03T15:02:12Z</time>
      </trkpt>
      <trkpt lat="46.562" lon="6.12076">
        <ele>1212.7</ele>
        <time>2024-02-03T15:02:22Z</time>
      </trkpt>
      <trkpt lat="46.56209" lon="6.12079">
        <ele>1214.1</ele>
        <time>2024-02-03T15:02:31Z</time>
      </trkpt>
      <trkpt lat="46.56219" lon="6.1208">
        <ele>1215.4</ele>
        <time>2024-02-03T15:02:40Z</time>
      </trkpt>
      <trkpt lat="46.56229" lon="6.12081">
        <ele>1216.2</ele>
        <time>2024-02-03T15:02:48Z</time>
      </trkpt>
      <trkpt lat="46.56238" lon="6.12081">
        <ele>1217</ele>
        <time>2024-02-03T15:02:57Z</time>
      </trkpt>
      <trkpt lat="46.56247" lon="6.12085">
        <ele>1217.8</ele>
        <time>2024-02-03T15:03:05Z</time>
      </trkpt>
      <trkpt lat="46.56256" lon="6.12091">
        <ele>1219.3</ele>
        <time>2024-02-03T15:03:15Z</time>
      </trkpt>
      <trkpt lat="46.56265" lon="6.12094">
        <ele>1221</ele>
        <time>2024-02-03T15:03:24Z</time>
      </trkpt>
      <trkpt lat="46.56274" lon="6.12094">
        <ele>1222.9</ele>
        <time>2024-02-03T15:03:32Z</time>
      </trkpt>
      <trkpt lat="46.56282" lon="6.12088">
        <ele>1224.7</ele>
        <time>2024-02-03T15:03:41Z</time>
      </trkpt>
      <trkpt lat="46.56292" lon="6.12087">
        <ele>1226.4</ele>
        <time>2024-02-03T15:03:51Z</time>
      </trkpt>
      <trkpt lat="46.56301" lon="6.12088">
        <ele>1228</ele>
        <time>2024-02-03T15:04:02Z</time>
      </trkpt>
      <trkpt lat="46.56311" lon="6.12089">
        <ele>1229.4</ele>
        <time>2024-02-03T15:04:13Z</time>
      </trkpt>
      <trkpt lat="46.56319" lon="6.12096">
        <ele>1230</ele>
        <time>2024-02-03T15:04:23Z</time>
      </trkpt>
      <trkpt lat="46.56326" lon="6.12103">
        <ele>1230.5</ele>
        <time>2024-02-03T15:04:34Z</time>
      </trkpt>
      <trkpt lat="46.5633" lon="6.12116">
        <ele>1231.1</ele>
        <time>2024-02-03T15:04:45Z</time>
      </trkpt>
      <trkpt lat="46.56332" lon="6.12129">
        <ele>1232.7</ele>
        <time>2024-02-03T15:04:54Z</time>
      </trkpt>
      <trkpt lat="46.56333" lon="6.12142">
        <ele>1234.1</ele>
        <time>2024-02-03T15:05:03Z</time>
      </trkpt>
      <trkpt lat="46.56332" lon="6.12156">
        <ele>1234.4</ele>
        <time>2024-02-03T15:05:13Z</time>
      </trkpt>
      <trkpt lat="46.5633" lon="6.12169">
        <ele>1234.7</ele>
        <time>2024-02-03T15:05:25Z</time>
      </trkpt>
      <trkpt lat="46.56326" lon="6.12181">
        <ele>1234.3</ele>
        <time>2024-02-03T15:05:49Z</time>
      </trkpt>
      <trkpt lat="46.5632" lon="6.12192">
        <ele>1233.6</ele>
        <time>2024-02-03T15:17:12Z</time>
      </trkpt>
      <trkpt lat="46.56314" lon="6.12203">
        <ele>1232.1</ele>
        <time>2024-02-03T15:18:07Z</time>
      </trkpt>
      <trkpt lat="46.56315" lon="6.12216">
        <ele>1230.9</ele>
        <time>2024-02-03T15:18:20Z</time>
      </trkpt>
      <trkpt lat="46.56312" lon="6.12229">
        <ele>1229.8</ele>
        <time>2024-02-03T15:18:31Z</time>
      </trkpt>
      <trkpt lat="46.56307" lon="6.1224">
        <ele>1229.1</ele>
        <time>2024-02-03T15:18:43Z</time>
      </trkpt>
      <trkpt lat="46.56301" lon="6.1225">
        <ele>1228.8</ele>
        <time>2024-02-03T15:18:52Z</time>
      </trkpt>
      <trkpt lat="46.56295" lon="6.12262">
        <ele>1227.4</ele>
        <time>2024-02-03T15:19:02Z</time>
      </trkpt>
      <trkpt lat="46.56288" lon="6.1227">
        <ele>1226.2</ele>
        <time>2024-02-03T15:19:12Z</time>
      </trkpt>
      <trkpt lat="46.5628" lon="6.12278">
        <ele>1225.1</ele>
        <time>2024-02-03T15:19:22Z</time>
      </trkpt>
      <trkpt lat="46.56272" lon="6.12284">
        <ele>1224.7</ele>
        <time>2024-02-03T15:19:32Z</time>
      </trkpt>
      <trkpt lat="46.56263" lon="6.12293">
        <ele>1224.2</ele>
        <time>2024-02-03T15:19:41Z</time>
      </trkpt>
      <trkpt lat="46.56256" lon="6.12302">
        <ele>1223.5</ele>
        <time>2024-02-03T15:19:51Z</time>
      </trkpt>
      <trkpt lat="46.56253" lon="6.12315">
        <ele>1223.1</ele>
        <time>2024-02-03T15:20:01Z</time>
      </trkpt>
      <trkpt lat="46.56248" lon="6.12327">
        <ele>1222.9</ele>
        <time>2024-02-03T15:20:10Z</time>
      </trkpt>
      <trkpt lat="46.56241" lon="6.12336">
        <ele>1222.5</ele>
        <time>2024-02-03T15:20:18Z</time>
      </trkpt>
      <trkpt lat="46.56235" lon="6.12346">
        <ele>1221.8</ele>
        <time>2024-02-03T15:20:27Z</time>
      </trkpt>
      <trkpt lat="46.56227" lon="6.12354">
        <ele>1221.3</ele>
        <time>2024-02-03T15:20:34Z</time>
      </trkpt>
      <trkpt lat="46.56219" lon="6.12363">
        <ele>1220.5</ele>
        <time>2024-02-03T15:20:42Z</time>
      </trkpt>
      <trkpt lat="46.56214" lon="6.12374">
        <ele>1218.7</ele>
        <time>2024-02-03T15:20:51Z</time>
      </trkpt>
      <trkpt lat="46.56208" lon="6.12385">
        <ele>1217.3</ele>
        <time>2024-02-03T15:21:00Z</time>
      </trkpt>
      <trkpt lat="46.56204" lon="6.12398">
        <ele>1216.4</ele>
        <time>2024-02-03T15:21:10Z</time>
      </trkpt>
      <trkpt lat="46.56194" lon="6.12402">
        <ele>1216</ele>
        <time>2024-02-03T15:21:21Z</time>
      </trkpt>
      <trkpt lat="46.56188" lon="6.12414">
        <ele>1215.2</ele>
        <time>2024-02-03T15:21:32Z</time>
      </trkpt>
      <trkpt lat="46.56191" lon="6.12427">
        <ele>1215.2</ele>
        <time>2024-02-03T15:21:44Z</time>
      </trkpt>
      <trkpt lat="46.56197" lon="6.12438">
        <ele>1215.2</ele>
        <time>2024-02-03T15:21:52Z</time>
      </trkpt>
      <trkpt lat="46.56205" lon="6.12447">
        <ele>1214.9</ele>
        <time>2024-02-03T15:22:00Z</time>
      </trkpt>
      <trkpt lat="46.56212" lon="6.12455">
        <ele>1214.5</ele>
        <time>2024-02-03T15:22:09Z</time>
      </trkpt>
      <trkpt lat="46.56218" lon="6.12467">
        <ele>1214.1</ele>
        <time>2024-02-03T15:22:19Z</time>
      </trkpt>
      <trkpt lat="46.56224" lon="6.12478">
        <ele>1214.4</ele>
        <time>2024-02-03T15:22:30Z</time>
      </trkpt>
      <trkpt lat="46.56226" lon="6.12491">
        <ele>1215.3</ele>
        <time>2024-02-03T15:22:39Z</time>
      </trkpt>
      <trkpt lat="46.56227" lon="6.12504">
        <ele>1215.9</ele>
        <time>2024-02-03T15:22:47Z</time>
      </trkpt>
      <trkpt lat="46.56226" lon="6.12518">
        <ele>1216.2</ele>
        <time>2024-02-03T15:22:57Z</time>
      </trkpt>
      <trkpt lat="46.56224" lon="6.12532">
        <ele>1216.2</ele>
        <time>2024-02-03T15:23:07Z</time>
      </trkpt>
      <trkpt lat="46.56221" lon="6.12544">
        <ele>1216.1</ele>
        <time>2024-02-03T15:23:16Z</time>
      </trkpt>
      <trkpt lat="46.56216" lon="6.12555">
        <ele>1216.7</ele>
        <time>2024-02-03T15:23:26Z</time>
      </trkpt>
      <trkpt lat="46.56208" lon="6.12564">
        <ele>1217.2</ele>
        <time>2024-02-03T15:23:35Z</time>
      </trkpt>
      <trkpt lat="46.56206" lon="6.12577">
        <ele>1216.3</ele>
        <time>2024-02-03T15:23:44Z</time>
      </trkpt>
      <trkpt lat="46.56205" lon="6.12591">
        <ele>1214.8</ele>
        <time>2024-02-03T15:23:55Z</time>
      </trkpt>
      <trkpt lat="46.56206" lon="6.12605">
        <ele>1214.3</ele>
        <time>2024-02-03T15:24:04Z</time>
      </trkpt>
      <trkpt lat="46.56205" lon="6.12618">
        <ele>1212.8</ele>
        <time>2024-02-03T15:24:13Z</time>
      </trkpt>
      <trkpt lat="46.56202" lon="6.12631">
        <ele>1209.6</ele>
        <time>2024-02-03T15:24:28Z</time>
      </trkpt>
      <trkpt lat="46.56199" lon="6.12643">
        <ele>1207.1</ele>
        <time>2024-02-03T15:24:42Z</time>
      </trkpt>
      <trkpt lat="46.56195" lon="6.12656">
        <ele>1205.8</ele>
        <time>2024-02-03T15:24:55Z</time>
      </trkpt>
      <trkpt lat="46.56185" lon="6.1266">
        <ele>1204.9</ele>
        <time>2024-02-03T15:25:04Z</time>
      </trkpt>
      <trkpt lat="46.56176" lon="6.12661">
        <ele>1204</ele>
        <time>2024-02-03T15:25:13Z</time>
      </trkpt>
      <trkpt lat="46.5617" lon="6.12673">
        <ele>1203.9</ele>
        <time>2024-02-03T15:25:20Z</time>
      </trkpt>
      <trkpt lat="46.5617" lon="6.12686">
        <ele>1205.2</ele>
        <time>2024-02-03T15:25:29Z</time>
      </trkpt>
      <trkpt lat="46.56165" lon="6.12699">
        <ele>1205.3</ele>
        <time>2024-02-03T15:25:41Z</time>
      </trkpt>
      <trkpt lat="46.56162" lon="6.12711">
        <ele>1206.2</ele>
        <time>2024-02-03T15:25:51Z</time>
      </trkpt>
      <trkpt lat="46.56156" lon="6.12722">
        <ele>1207</ele>
        <time>2024-02-03T15:26:02Z</time>
      </trkpt>
      <trkpt lat="46.56153" lon="6.12735">
        <ele>1207.5</ele>
        <time>2024-02-03T15:26:13Z</time>
      </trkpt>
      <trkpt lat="46.56159" lon="6.12746">
        <ele>1207.9</ele>
        <time>2024-02-03T15:26:23Z</time>
      </trkpt>
      <trkpt lat="46.56149" lon="6.12749">
        <ele>1208</ele>
        <time>2024-02-03T15:26:32Z</time>
      </trkpt>
      <trkpt lat="46.56145" lon="6.12762">
        <ele>1207.9</ele>
        <time>2024-02-03T15:26:58Z</time>
      </trkpt>
      <trkpt lat="46.56139" lon="6.12771">
        <ele>1208</ele>
        <time>2024-02-03T15:30:49Z</time>
      </trkpt>
      <trkpt lat="46.56137" lon="6.12784">
        <ele>1207</ele>
        <time>2024-02-03T15:30:59Z</time>
      </trkpt>
      <trkpt lat="46.56132" lon="6.12796">
        <ele>1205.3</ele>
        <time>2024-02-03T15:31:08Z</time>
      </trkpt>
      <trkpt lat="46.56127" lon="6.12807">
        <ele>1204.1</ele>
        <time>2024-02-03T15:31:19Z</time>
      </trkpt>
      <trkpt lat="46.56123" lon="6.1282">
        <ele>1203.6</ele>
        <time>2024-02-03T15:31:28Z</time>
      </trkpt>
      <trkpt lat="46.56118" lon="6.12831">
        <ele>1203.3</ele>
        <time>2024-02-03T15:31:37Z</time>
      </trkpt>
      <trkpt lat="46.56113" lon="6.12843">
        <ele>1204.4</ele>
        <time>2024-02-03T15:31:49Z</time>
      </trkpt>
      <trkpt lat="46.56107" lon="6.12854">
        <ele>1206</ele>
        <time>2024-02-03T15:31:59Z</time>
      </trkpt>
      <trkpt lat="46.56101" lon="6.12864">
        <ele>1207.5</ele>
        <time>2024-02-03T15:32:09Z</time>
      </trkpt>
      <trkpt lat="46.56094" lon="6.12874">
        <ele>1210.3</ele>
        <time>2024-02-03T15:32:20Z</time>
      </trkpt>
      <trkpt lat="46.56087" lon="6.12883">
        <ele>1213.4</ele>
        <time>2024-02-03T15:32:32Z</time>
      </trkpt>
      <trkpt lat="46.56078" lon="6.12887">
        <ele>1215.7</ele>
        <time>2024-02-03T15:32:44Z</time>
      </trkpt>
      <trkpt lat="46.56069" lon="6.1289">
        <ele>1216.8</ele>
        <time>2024-02-03T15:32:55Z</time>
      </trkpt>
      <trkpt lat="46.5606" lon="6.12897">
        <ele>1217.8</ele>
        <time>2024-02-03T15:33:06Z</time>
      </trkpt>
      <trkpt lat="46.56054" lon="6.12906">
        <ele>1218.9</ele>
        <time>2024-02-03T15:33:18Z</time>
      </trkpt>
      <trkpt lat="46.56047" lon="6.12916">
        <ele>1219.9</ele>
        <time>2024-02-03T15:33:32Z</time>
      </trkpt>
      <trkpt lat="46.5604" lon="6.12925">
        <ele>1220.1</ele>
        <time>2024-02-03T15:33:40Z</time>
      </trkpt>
      <trkpt lat="46.56034" lon="6.12935">
        <ele>1220.1</ele>
        <time>2024-02-03T15:33:49Z</time>
      </trkpt>
      <trkpt lat="46.56027" lon="6.12946">
        <ele>1220</ele>
        <time>2024-02-03T15:33:59Z</time>
      </trkpt>
      <trkpt lat="46.56021" lon="6.12957">
        <ele>1219.7</ele>
        <time>2024-02-03T15:34:06Z</time>
      </trkpt>
      <trkpt lat="46.56014" lon="6.12967">
        <ele>1219.1</ele>
        <time>2024-02-03T15:34:15Z</time>
      </trkpt>
      <trkpt lat="46.56006" lon="6.12975">
        <ele>1218.3</ele>
        <time>2024-02-03T15:34:24Z</time>
      </trkpt>
      <trkpt lat="46.56" lon="6.12986">
        <ele>1217.5</ele>
        <time>2024-02-03T15:34:32Z</time>
      </trkpt>
      <trkpt lat="46.55995" lon="6.12998">
        <ele>1216.5</ele>
        <time>2024-02-03T15:34:40Z</time>
      </trkpt>
      <trkpt lat="46.5599" lon="6.13009">
        <ele>1215.1</ele>
        <time>2024-02-03T15:34:49Z</time>
      </trkpt>
      <trkpt lat="46.55983" lon="6.13021">
        <ele>1213.9</ele>
        <time>2024-02-03T15:34:57Z</time>
      </trkpt>
      <trkpt lat="46.55978" lon="6.13033">
        <ele>1213.1</ele>
        <time>2024-02-03T15:35:06Z</time>
      </trkpt>
      <trkpt lat="46.55974" lon="6.13047">
        <ele>1212.4</ele>
        <time>2024-02-03T15:35:16Z</time>
      </trkpt>
      <trkpt lat="46.55969" lon="6.13058">
        <ele>1211.7</ele>
        <time>2024-02-03T15:35:24Z</time>
      </trkpt>
      <trkpt lat="46.55962" lon="6.13069">
        <ele>1211.4</ele>
        <time>2024-02-03T15:35:33Z</time>
      </trkpt>
      <trkpt lat="46.55957" lon="6.1308">
        <ele>1211.2</ele>
        <time>2024-02-03T15:35:41Z</time>
      </trkpt>
      <trkpt lat="46.55951" lon="6.13091">
        <ele>1210.9</ele>
        <time>2024-02-03T15:35:49Z</time>
      </trkpt>
      <trkpt lat="46.55944" lon="6.131">
        <ele>1210.6</ele>
        <time>2024-02-03T15:35:57Z</time>
      </trkpt>
      <trkpt lat="46.55937" lon="6.13111">
        <ele>1211</ele>
        <time>2024-02-03T15:36:06Z</time>
      </trkpt>
      <trkpt lat="46.55929" lon="6.1312">
        <ele>1210.8</ele>
        <time>2024-02-03T15:36:15Z</time>
      </trkpt>
      <trkpt lat="46.55922" lon="6.1313">
        <ele>1210</ele>
        <time>2024-02-03T15:36:24Z</time>
      </trkpt>
      <trkpt lat="46.55915" lon="6.13139">
        <ele>1208.8</ele>
        <time>2024-02-03T15:36:33Z</time>
      </trkpt>
      <trkpt lat="46.55906" lon="6.13145">
        <ele>1208</ele>
        <time>2024-02-03T15:36:42Z</time>
      </trkpt>
      <trkpt lat="46.55897" lon="6.1315">
        <ele>1207.2</ele>
        <time>2024-02-03T15:36:50Z</time>
      </trkpt>
      <trkpt lat="46.55889" lon="6.13155">
        <ele>1206.6</ele>
        <time>2024-02-03T15:36:58Z</time>
      </trkpt>
      <trkpt lat="46.55881" lon="6.13161">
        <ele>1206</ele>
        <time>2024-02-03T15:37:06Z</time>
      </trkpt>
      <trkpt lat="46.55872" lon="6.13166">
        <ele>1205.2</ele>
        <time>2024-02-03T15:37:14Z</time>
      </trkpt>
      <trkpt lat="46.55864" lon="6.13173">
        <ele>1204.3</ele>
        <time>2024-02-03T15:37:23Z</time>
      </trkpt>
      <trkpt lat="46.55857" lon="6.13182">
        <ele>1203.6</ele>
        <time>2024-02-03T15:37:31Z</time>
      </trkpt>
      <trkpt lat="46.55849" lon="6.13191">
        <ele>1202.8</ele>
        <time>2024-02-03T15:37:41Z</time>
      </trkpt>
      <trkpt lat="46.55843" lon="6.13201">
        <ele>1201.4</ele>
        <time>2024-02-03T15:37:52Z</time>
      </trkpt>
      <trkpt lat="46.55837" lon="6.13211">
        <ele>1199.6</ele>
        <time>2024-02-03T15:38:06Z</time>
      </trkpt>
      <trkpt lat="46.55829" lon="6.13219">
        <ele>1197.8</ele>
        <time>2024-02-03T15:38:20Z</time>
      </trkpt>
      <trkpt lat="46.55822" lon="6.13227">
        <ele>1196.2</ele>
        <time>2024-02-03T15:38:29Z</time>
      </trkpt>
      <trkpt lat="46.55816" lon="6.13237">
        <ele>1194.8</ele>
        <time>2024-02-03T15:38:38Z</time>
      </trkpt>
      <trkpt lat="46.55806" lon="6.13239">
        <ele>1192.9</ele>
        <time>2024-02-03T15:38:47Z</time>
      </trkpt>
      <trkpt lat="46.55796" lon="6.1324">
        <ele>1193.6</ele>
        <time>2024-02-03T15:38:53Z</time>
      </trkpt>
      <trkpt lat="46.55788" lon="6.13248">
        <ele>1194</ele>
        <time>2024-02-03T15:39:05Z</time>
      </trkpt>
      <trkpt lat="46.55781" lon="6.13257">
        <ele>1194.2</ele>
        <time>2024-02-03T15:39:15Z</time>
      </trkpt>
      <trkpt lat="46.55774" lon="6.13266">
        <ele>1193.6</ele>
        <time>2024-02-03T15:39:24Z</time>
      </trkpt>
      <trkpt lat="46.55767" lon="6.13274">
        <ele>1192.8</ele>
        <time>2024-02-03T15:39:36Z</time>
      </trkpt>
      <trkpt lat="46.55758" lon="6.13282">
        <ele>1192.1</ele>
        <time>2024-02-03T15:39:45Z</time>
      </trkpt>
      <trkpt lat="46.55749" lon="6.13284">
        <ele>1191.7</ele>
        <time>2024-02-03T15:39:54Z</time>
      </trkpt>
      <trkpt lat="46.5574" lon="6.13288">
        <ele>1192.3</ele>
        <time>2024-02-03T15:40:02Z</time>
      </trkpt>
      <trkpt lat="46.55731" lon="6.13293">
        <ele>1193.1</ele>
        <time>2024-02-03T15:40:12Z</time>
      </trkpt>
      <trkpt lat="46.55722" lon="6.13298">
        <ele>1194</ele>
        <time>2024-02-03T15:40:23Z</time>
      </trkpt>
      <trkpt lat="46.55712" lon="6.13301">
        <ele>1194.7</ele>
        <time>2024-02-03T15:40:31Z</time>
      </trkpt>
      <trkpt lat="46.55702" lon="6.13303">
        <ele>1195.4</ele>
        <time>2024-02-03T15:40:44Z</time>
      </trkpt>
      <trkpt lat="46.55694" lon="6.13309">
        <ele>1196.1</ele>
        <time>2024-02-03T15:41:00Z</time>
      </trkpt>
      <trkpt lat="46.55689" lon="6.1332">
        <ele>1196.6</ele>
        <time>2024-02-03T15:41:12Z</time>
      </trkpt>
      <trkpt lat="46.55687" lon="6.13333">
        <ele>1196.6</ele>
        <time>2024-02-03T15:41:22Z</time>
      </trkpt>
      <trkpt lat="46.55682" lon="6.13345">
        <ele>1196.1</ele>
        <time>2024-02-03T15:41:34Z</time>
      </trkpt>
      <trkpt lat="46.55677" lon="6.13357">
        <ele>1195.6</ele>
        <time>2024-02-03T15:41:43Z</time>
      </trkpt>
      <trkpt lat="46.55668" lon="6.13365">
        <ele>1196.1</ele>
        <time>2024-02-03T15:41:54Z</time>
      </trkpt>
      <trkpt lat="46.55665" lon="6.13378">
        <ele>1197.4</ele>
        <time>2024-02-03T15:42:03Z</time>
      </trkpt>
      <trkpt lat="46.55659" lon="6.13388">
        <ele>1198.5</ele>
        <time>2024-02-03T15:42:11Z</time>
      </trkpt>
      <trkpt lat="46.5565" lon="6.13391">
        <ele>1199.2</ele>
        <time>2024-02-03T15:42:22Z</time>
      </trkpt>
      <trkpt lat="46.55641" lon="6.13393">
        <ele>1200.1</ele>
        <time>2024-02-03T15:42:29Z</time>
      </trkpt>
      <trkpt lat="46.55632" lon="6.13393">
        <ele>1200.7</ele>
        <time>2024-02-03T15:42:40Z</time>
      </trkpt>
      <trkpt lat="46.55624" lon="6.134">
        <ele>1202.3</ele>
        <time>2024-02-03T15:42:50Z</time>
      </trkpt>
      <trkpt lat="46.55617" lon="6.1341">
        <ele>1204.7</ele>
        <time>2024-02-03T15:43:03Z</time>
      </trkpt>
      <trkpt lat="46.55609" lon="6.13417">
        <ele>1207.1</ele>
        <time>2024-02-03T15:43:25Z</time>
      </trkpt>
      <trkpt lat="46.55603" lon="6.13427">
        <ele>1209.7</ele>
        <time>2024-02-03T15:43:36Z</time>
      </trkpt>
      <trkpt lat="46.55595" lon="6.13433">
        <ele>1211.1</ele>
        <time>2024-02-03T15:43:44Z</time>
      </trkpt>
      <trkpt lat="46.55587" lon="6.13441">
        <ele>1212.5</ele>
        <time>2024-02-03T15:43:52Z</time>
      </trkpt>
      <trkpt lat="46.55578" lon="6.13449">
        <ele>1214.8</ele>
        <time>2024-02-03T15:44:01Z</time>
      </trkpt>
      <trkpt lat="46.55572" lon="6.13459">
        <ele>1216.9</ele>
        <time>2024-02-03T15:44:09Z</time>
      </trkpt>
      <trkpt lat="46.55565" lon="6.13469">
        <ele>1217</ele>
        <time>2024-02-03T15:44:20Z</time>
      </trkpt>
      <trkpt lat="46.55558" lon="6.13479">
        <ele>1216.8</ele>
        <time>2024-02-03T15:44:32Z</time>
      </trkpt>
      <trkpt lat="46.55553" lon="6.13491">
        <ele>1218.3</ele>
        <time>2024-02-03T15:44:45Z</time>
      </trkpt>
      <trkpt lat="46.55544" lon="6.13498">
        <ele>1218.3</ele>
        <time>2024-02-03T15:44:56Z</time>
      </trkpt>
      <trkpt lat="46.55536" lon="6.13506">
        <ele>1217.5</ele>
        <time>2024-02-03T15:45:04Z</time>
      </trkpt>
      <trkpt lat="46.55528" lon="6.13514">
        <ele>1216</ele>
        <time>2024-02-03T15:45:14Z</time>
      </trkpt>
      <trkpt lat="46.55522" lon="6.13525">
        <ele>1216.5</ele>
        <time>2024-02-03T15:45:24Z</time>
      </trkpt>
      <trkpt lat="46.55517" lon="6.13536">
        <ele>1217.7</ele>
        <time>2024-02-03T15:45:36Z</time>
      </trkpt>
      <trkpt lat="46.55515" lon="6.13549">
        <ele>1219</ele>
        <time>2024-02-03T15:45:49Z</time>
      </trkpt>
      <trkpt lat="46.55514" lon="6.13563">
        <ele>1219</ele>
        <time>2024-02-03T15:46:01Z</time>
      </trkpt>
      <trkpt lat="46.55513" lon="6.13576">
        <ele>1217.9</ele>
        <time>2024-02-03T15:46:11Z</time>
      </trkpt>
      <trkpt lat="46.55509" lon="6.13589">
        <ele>1216.5</ele>
        <time>2024-02-03T15:46:22Z</time>
      </trkpt>
      <trkpt lat="46.55502" lon="6.13598">
        <ele>1215.1</ele>
        <time>2024-02-03T15:46:32Z</time>
      </trkpt>
      <trkpt lat="46.55496" lon="6.1361">
        <ele>1213.4</ele>
        <time>2024-02-03T15:46:43Z</time>
      </trkpt>
      <trkpt lat="46.55488" lon="6.13619">
        <ele>1210.7</ele>
        <time>2024-02-03T15:46:53Z</time>
      </trkpt>
      <trkpt lat="46.55481" lon="6.13627">
        <ele>1208.5</ele>
        <time>2024-02-03T15:47:03Z</time>
      </trkpt>
      <trkpt lat="46.55472" lon="6.13631">
        <ele>1206.9</ele>
        <time>2024-02-03T15:47:14Z</time>
      </trkpt>
      <trkpt lat="46.55463" lon="6.13636">
        <ele>1205.6</ele>
        <time>2024-02-03T15:47:25Z</time>
      </trkpt>
      <trkpt lat="46.55455" lon="6.13644">
        <ele>1204.4</ele>
        <time>2024-02-03T15:47:37Z</time>
      </trkpt>
      <trkpt lat="46.5545" lon="6.13656">
        <ele>1203.4</ele>
        <time>2024-02-03T15:47:46Z</time>
      </trkpt>
      <trkpt lat="46.55449" lon="6.13669">
        <ele>1202.6</ele>
        <time>2024-02-03T15:47:58Z</time>
      </trkpt>
      <trkpt lat="46.55442" lon="6.13679">
        <ele>1202</ele>
        <time>2024-02-03T15:48:10Z</time>
      </trkpt>
      <trkpt lat="46.55435" lon="6.13687">
        <ele>1202.4</ele>
        <time>2024-02-03T15:48:19Z</time>
      </trkpt>
      <trkpt lat="46.55429" lon="6.13698">
        <ele>1202.9</ele>
        <time>2024-02-03T15:48:29Z</time>
      </trkpt>
      <trkpt lat="46.55427" lon="6.13712">
        <ele>1203.3</ele>
        <time>2024-02-03T15:48:41Z</time>
      </trkpt>
      <trkpt lat="46.55433" lon="6.13722">
        <ele>1201.9</ele>
        <time>2024-02-03T15:48:55Z</time>
      </trkpt>
      <trkpt lat="46.55439" lon="6.13733">
        <ele>1201.1</ele>
        <time>2024-02-03T15:49:05Z</time>
      </trkpt>
      <trkpt lat="46.55443" lon="6.13746">
        <ele>1201</ele>
        <time>2024-02-03T15:49:15Z</time>
      </trkpt>
      <trkpt lat="46.55444" lon="6.13759">
        <ele>1201.4</ele>
        <time>2024-02-03T15:49:24Z</time>
      </trkpt>
      <trkpt lat="46.55445" lon="6.13772">
        <ele>1201.7</ele>
        <time>2024-02-03T15:49:32Z</time>
      </trkpt>
      <trkpt lat="46.55446" lon="6.13785">
        <ele>1202.2</ele>
        <time>2024-02-03T15:49:41Z</time>
      </trkpt>
      <trkpt lat="46.5545" lon="6.13798">
        <ele>1202</ele>
        <time>2024-02-03T15:49:53Z</time>
      </trkpt>
      <trkpt lat="46.55456" lon="6.13808">
        <ele>1201.5</ele>
        <time>2024-02-03T15:50:02Z</time>
      </trkpt>
      <trkpt lat="46.55458" lon="6.13822">
        <ele>1201.9</ele>
        <time>2024-02-03T15:50:10Z</time>
      </trkpt>
      <trkpt lat="46.5546" lon="6.13835">
        <ele>1202.3</ele>
        <time>2024-02-03T15:50:19Z</time>
      </trkpt>
      <trkpt lat="46.55456" lon="6.13847">
        <ele>1203.2</ele>
        <time>2024-02-03T15:50:27Z</time>
      </trkpt>
      <trkpt lat="46.55451" lon="6.1386">
        <ele>1204.7</ele>
        <time>2024-02-03T15:50:35Z</time>
      </trkpt>
      <trkpt lat="46.55447" lon="6.13872">
        <ele>1205.9</ele>
        <time>2024-02-03T15:50:43Z</time>
      </trkpt>
      <trkpt lat="46.55444" lon="6.13884">
        <ele>1206.9</ele>
        <time>2024-02-03T15:50:52Z</time>
      </trkpt>
      <trkpt lat="46.55441" lon="6.13897">
        <ele>1206.8</ele>
        <time>2024-02-03T15:50:59Z</time>
      </trkpt>
      <trkpt lat="46.55435" lon="6.13908">
        <ele>1206.1</ele>
        <time>2024-02-03T15:51:08Z</time>
      </trkpt>
      <trkpt lat="46.55427" lon="6.13915">
        <ele>1204.9</ele>
        <time>2024-02-03T15:51:19Z</time>
      </trkpt>
      <trkpt lat="46.55418" lon="6.13918">
        <ele>1204</ele>
        <time>2024-02-03T15:51:28Z</time>
      </trkpt>
      <trkpt lat="46.5541" lon="6.13925">
        <ele>1204</ele>
        <time>2024-02-03T15:51:35Z</time>
      </trkpt>
      <trkpt lat="46.554" lon="6.13925">
        <ele>1204.8</ele>
        <time>2024-02-03T15:51:43Z</time>
      </trkpt>
      <trkpt lat="46.55391" lon="6.13923">
        <ele>1205.6</ele>
        <time>2024-02-03T15:51:51Z</time>
      </trkpt>
      <trkpt lat="46.55383" lon="6.13915">
        <ele>1206</ele>
        <time>2024-02-03T15:52:00Z</time>
      </trkpt>
      <trkpt lat="46.55374" lon="6.13916">
        <ele>1205.6</ele>
        <time>2024-02-03T15:52:10Z</time>
      </trkpt>
      <trkpt lat="46.55364" lon="6.13919">
        <ele>1205</ele>
        <time>2024-02-03T15:52:20Z</time>
      </trkpt>
      <trkpt lat="46.55355" lon="6.13923">
        <ele>1204.3</ele>
        <time>2024-02-03T15:52:29Z</time>
      </trkpt>
      <trkpt lat="46.55346" lon="6.13926">
        <ele>1203.8</ele>
        <time>2024-02-03T15:52:38Z</time>
      </trkpt>
      <trkpt lat="46.55337" lon="6.13932">
        <ele>1203</ele>
        <time>2024-02-03T15:52:50Z</time>
      </trkpt>
      <trkpt lat="46.55329" lon="6.13938">
        <ele>1202.9</ele>
        <time>2024-02-03T15:52:59Z</time>
      </trkpt>
      <trkpt lat="46.5532" lon="6.13943">
        <ele>1203.6</ele>
        <time>2024-02-03T15:53:12Z</time>
      </trkpt>
      <trkpt lat="46.5531" lon="6.13946">
        <ele>1204.5</ele>
        <time>2024-02-03T15:53:19Z</time>
      </trkpt>
      <trkpt lat="46.55301" lon="6.1395">
        <ele>1205.2</ele>
        <time>2024-02-03T15:53:26Z</time>
      </trkpt>
      <trkpt lat="46.55292" lon="6.13952">
        <ele>1205.7</ele>
        <time>2024-02-03T15:53:35Z</time>
      </trkpt>
      <trkpt lat="46.55285" lon="6.13961">
        <ele>1205.6</ele>
        <time>2024-02-03T15:53:45Z</time>
      </trkpt>
      <trkpt lat="46.5528" lon="6.13973">
        <ele>1205</ele>
        <time>2024-02-03T15:53:56Z</time>
      </trkpt>
      <trkpt lat="46.55276" lon="6.13986">
        <ele>1205.2</ele>
        <time>2024-02-03T15:54:10Z</time>
      </trkpt>
      <trkpt lat="46.55267" lon="6.1399">
        <ele>1206.5</ele>
        <time>2024-02-03T15:54:21Z</time>
      </trkpt>
      <trkpt lat="46.55261" lon="6.14">
        <ele>1207.4</ele>
        <time>2024-02-03T15:54:32Z</time>
      </trkpt>
      <trkpt lat="46.55255" lon="6.14011">
        <ele>1207.8</ele>
        <time>2024-02-03T15:54:42Z</time>
      </trkpt>
      <trkpt lat="46.55252" lon="6.14024">
        <ele>1207.9</ele>
        <time>2024-02-03T15:54:55Z</time>
      </trkpt>
      <trkpt lat="46.55248" lon="6.14036">
        <ele>1207.7</ele>
        <time>2024-02-03T15:55:06Z</time>
      </trkpt>
      <trkpt lat="46.55241" lon="6.14047">
        <ele>1207.6</ele>
        <time>2024-02-03T15:55:17Z</time>
      </trkpt>
      <trkpt lat="46.55235" lon="6.14058">
        <ele>1206.9</ele>
        <time>2024-02-03T15:55:27Z</time>
      </trkpt>
      <trkpt lat="46.55231" lon="6.1407">
        <ele>1206.2</ele>
        <time>2024-02-03T15:55:37Z</time>
      </trkpt>
      <trkpt lat="46.55227" lon="6.14083">
        <ele>1205.1</ele>
        <time>2024-02-03T15:55:47Z</time>
      </trkpt>
      <trkpt lat="46.5522" lon="6.14092">
        <ele>1203.3</ele>
        <time>2024-02-03T15:55:58Z</time>
      </trkpt>
      <trkpt lat="46.55211" lon="6.14092">
        <ele>1202.3</ele>
        <time>2024-02-03T15:56:08Z</time>
      </trkpt>
      <trkpt lat="46.55201" lon="6.14088">
        <ele>1202.5</ele>
        <time>2024-02-03T15:56:18Z</time>
      </trkpt>
      <trkpt lat="46.55192" lon="6.14092">
        <ele>1200.6</ele>
        <time>2024-02-03T15:56:26Z</time>
      </trkpt>
      <trkpt lat="46.55183" lon="6.14095">
        <ele>1198.9</ele>
        <time>2024-02-03T15:56:33Z</time>
      </trkpt>
      <trkpt lat="46.55175" lon="6.14104">
        <ele>1195.9</ele>
        <time>2024-02-03T15:56:41Z</time>
      </trkpt>
      <trkpt lat="46.55168" lon="6.14114">
        <ele>1193.6</ele>
        <time>2024-02-03T15:56:47Z</time>
      </trkpt>
      <trkpt lat="46.55163" lon="6.14126">
        <ele>1192.8</ele>
        <time>2024-02-03T15:56:54Z</time>
      </trkpt>
      <trkpt lat="46.55154" lon="6.14132">
        <ele>1193.2</ele>
        <time>2024-02-03T15:57:06Z</time>
      </trkpt>
      <trkpt lat="46.55144" lon="6.14135">
        <ele>1193.9</ele>
        <time>2024-02-03T15:57:14Z</time>
      </trkpt>
      <trkpt lat="46.55135" lon="6.1414">
        <ele>1193.9</ele>
        <time>2024-02-03T15:57:23Z</time>
      </trkpt>
      <trkpt lat="46.55127" lon="6.14147">
        <ele>1193.8</ele>
        <time>2024-02-03T15:57:31Z</time>
      </trkpt>
      <trkpt lat="46.55121" lon="6.14158">
        <ele>1193.8</ele>
        <time>2024-02-03T15:57:38Z</time>
      </trkpt>
      <trkpt lat="46.55121" lon="6.14172">
        <ele>1194.3</ele>
        <time>2024-02-03T15:57:56Z</time>
      </trkpt>
      <trkpt lat="46.55129" lon="6.1418">
        <ele>1192.7</ele>
        <time>2024-02-03T15:58:05Z</time>
      </trkpt>
      <trkpt lat="46.55137" lon="6.14188">
        <ele>1190</ele>
        <time>2024-02-03T15:58:13Z</time>
      </trkpt>
      <trkpt lat="46.55132" lon="6.14199">
        <ele>1193.6</ele>
        <time>2024-02-03T15:58:38Z</time>
      </trkpt>
      <trkpt lat="46.55134" lon="6.14212">
        <ele>1195.4</ele>
        <time>2024-02-03T15:58:52Z</time>
      </trkpt>
      <trkpt lat="46.5514" lon="6.14223">
        <ele>1194.8</ele>
        <time>2024-02-03T15:59:05Z</time>
      </trkpt>
      <trkpt lat="46.55137" lon="6.14236">
        <ele>1198.7</ele>
        <time>2024-02-03T16:00:14Z</time>
      </trkpt>
      <trkpt lat="46.5514" lon="6.14249">
        <ele>1200.1</ele>
        <time>2024-02-03T16:00:26Z</time>
      </trkpt>
      <trkpt lat="46.55144" lon="6.14262">
        <ele>1200.7</ele>
        <time>2024-02-03T16:00:39Z</time>
      </trkpt>
      <trkpt lat="46.55149" lon="6.14274">
        <ele>1200.8</ele>
        <time>2024-02-03T16:00:50Z</time>
      </trkpt>
      <trkpt lat="46.55154" lon="6.14285">
        <ele>1199.6</ele>
        <time>2024-02-03T16:01:03Z</time>
      </trkpt>
      <trkpt lat="46.55156" lon="6.14298">
        <ele>1199.9</ele>
        <time>2024-02-03T16:01:25Z</time>
      </trkpt>
      <trkpt lat="46.55161" lon="6.1431">
        <ele>1199.4</ele>
        <time>2024-02-03T16:01:38Z</time>
      </trkpt>
      <trkpt lat="46.55155" lon="6.14321">
        <ele>1198.7</ele>
        <time>2024-02-03T16:02:58Z</time>
      </trkpt>
      <trkpt lat="46.55147" lon="6.14326">
        <ele>1198.4</ele>
        <time>2024-02-03T16:03:09Z</time>
      </trkpt>
      <trkpt lat="46.55137" lon="6.14327">
        <ele>1198.3</ele>
        <time>2024-02-03T16:03:18Z</time>
      </trkpt>
      <trkpt lat="46.55128" lon="6.14326">
        <ele>1197.4</ele>
        <time>2024-02-03T16:03:30Z</time>
      </trkpt>
      <trkpt lat="46.55118" lon="6.1433">
        <ele>1195.6</ele>
        <time>2024-02-03T16:03:43Z</time>
      </trkpt>
      <trkpt lat="46.55109" lon="6.14334">
        <ele>1193.6</ele>
        <time>2024-02-03T16:03:54Z</time>
      </trkpt>
      <trkpt lat="46.551" lon="6.14337">
        <ele>1191.2</ele>
        <time>2024-02-03T16:04:05Z</time>
      </trkpt>
      <trkpt lat="46.55092" lon="6.14342">
        <ele>1188.9</ele>
        <time>2024-02-03T16:04:14Z</time>
      </trkpt>
      <trkpt lat="46.55084" lon="6.1435">
        <ele>1185.6</ele>
        <time>2024-02-03T16:04:24Z</time>
      </trkpt>
      <trkpt lat="46.55076" lon="6.14357">
        <ele>1183.4</ele>
        <time>2024-02-03T16:04:33Z</time>
      </trkpt>
      <trkpt lat="46.55066" lon="6.14359">
        <ele>1182.6</ele>
        <time>2024-02-03T16:04:42Z</time>
      </trkpt>
      <trkpt lat="46.55056" lon="6.14358">
        <ele>1183.2</ele>
        <time>2024-02-03T16:04:51Z</time>
      </trkpt>
      <trkpt lat="46.55047" lon="6.14352">
        <ele>1182.9</ele>
        <time>2024-02-03T16:05:02Z</time>
      </trkpt>
      <trkpt lat="46.55038" lon="6.14348">
        <ele>1181.8</ele>
        <time>2024-02-03T16:05:11Z</time>
      </trkpt>
      <trkpt lat="46.55028" lon="6.14346">
        <ele>1180.3</ele>
        <time>2024-02-03T16:05:20Z</time>
      </trkpt>
      <trkpt lat="46.55018" lon="6.14342">
        <ele>1177.8</ele>
        <time>2024-02-03T16:05:30Z</time>
      </trkpt>
      <trkpt lat="46.55009" lon="6.14337">
        <ele>1176.3</ele>
        <time>2024-02-03T16:05:39Z</time>
      </trkpt>
      <trkpt lat="46.55001" lon="6.14333">
        <ele>1174.6</ele>
        <time>2024-02-03T16:05:48Z</time>
      </trkpt>
      <trkpt lat="46.54992" lon="6.1433">
        <ele>1171.4</ele>
        <time>2024-02-03T16:05:56Z</time>
      </trkpt>
      <trkpt lat="46.54982" lon="6.14327">
        <ele>1168</ele>
        <time>2024-02-03T16:06:06Z</time>
      </trkpt>
      <trkpt lat="46.54974" lon="6.14318">
        <ele>1168.1</ele>
        <time>2024-02-03T16:06:16Z</time>
      </trkpt>
      <trkpt lat="46.54966" lon="6.1431">
        <ele>1167.2</ele>
        <time>2024-02-03T16:06:26Z</time>
      </trkpt>
      <trkpt lat="46.54957" lon="6.14305">
        <ele>1165.6</ele>
        <time>2024-02-03T16:06:35Z</time>
      </trkpt>
      <trkpt lat="46.54948" lon="6.14301">
        <ele>1163.7</ele>
        <time>2024-02-03T16:06:47Z</time>
      </trkpt>
      <trkpt lat="46.54939" lon="6.14304">
        <ele>1158.8</ele>
        <time>2024-02-03T16:06:58Z</time>
      </trkpt>
      <trkpt lat="46.5493" lon="6.14301">
        <ele>1156.8</ele>
        <time>2024-02-03T16:07:09Z</time>
      </trkpt>
      <trkpt lat="46.54922" lon="6.14293">
        <ele>1156.5</ele>
        <time>2024-02-03T16:07:21Z</time>
      </trkpt>
      <trkpt lat="46.54913" lon="6.14289">
        <ele>1154.4</ele>
        <time>2024-02-03T16:07:32Z</time>
      </trkpt>
      <trkpt lat="46.54904" lon="6.14285">
        <ele>1151.2</ele>
        <time>2024-02-03T16:07:40Z</time>
      </trkpt>
      <trkpt lat="46.54895" lon="6.14279">
        <ele>1148.9</ele>
        <time>2024-02-03T16:07:49Z</time>
      </trkpt>
      <trkpt lat="46.54888" lon="6.14272">
        <ele>1147.8</ele>
        <time>2024-02-03T16:07:59Z</time>
      </trkpt>
      <trkpt lat="46.54879" lon="6.14268">
        <ele>1145.6</ele>
        <time>2024-02-03T16:08:10Z</time>
      </trkpt>
      <trkpt lat="46.5487" lon="6.14262">
        <ele>1143.8</ele>
        <time>2024-02-03T16:08:20Z</time>
      </trkpt>
      <trkpt lat="46.5486" lon="6.14259">
        <ele>1140.9</ele>
        <time>2024-02-03T16:08:30Z</time>
      </trkpt>
      <trkpt lat="46.54851" lon="6.14254">
        <ele>1138.8</ele>
        <time>2024-02-03T16:08:39Z</time>
      </trkpt>
      <trkpt lat="46.54842" lon="6.1425">
        <ele>1136.2</ele>
        <time>2024-02-03T16:08:49Z</time>
      </trkpt>
      <trkpt lat="46.54832" lon="6.14245">
        <ele>1134.4</ele>
        <time>2024-02-03T16:08:59Z</time>
      </trkpt>
      <trkpt lat="46.54823" lon="6.14242">
        <ele>1132.2</ele>
        <time>2024-02-03T16:09:08Z</time>
      </trkpt>
      <trkpt lat="46.54814" lon="6.1424">
        <ele>1129.9</ele>
        <time>2024-02-03T16:09:17Z</time>
      </trkpt>
      <trkpt lat="46.54805" lon="6.14234">
        <ele>1128.8</ele>
        <time>2024-02-03T16:09:27Z</time>
      </trkpt>
      <trkpt lat="46.54796" lon="6.1423">
        <ele>1127.1</ele>
        <time>2024-02-03T16:09:36Z</time>
      </trkpt>
      <trkpt lat="46.54787" lon="6.14225">
        <ele>1125.9</ele>
        <time>2024-02-03T16:09:45Z</time>
      </trkpt>
      <trkpt lat="46.54778" lon="6.1422">
        <ele>1124.6</ele>
        <time>2024-02-03T16:09:55Z</time>
      </trkpt>
      <trkpt lat="46.54768" lon="6.14218">
        <ele>1122.9</ele>
        <time>2024-02-03T16:10:06Z</time>
      </trkpt>
      <trkpt lat="46.5476" lon="6.14211">
        <ele>1122.8</ele>
        <time>2024-02-03T16:10:14Z</time>
      </trkpt>
      <trkpt lat="46.54753" lon="6.14202">
        <ele>1123.5</ele>
        <time>2024-02-03T16:10:22Z</time>
      </trkpt>
      <trkpt lat="46.54745" lon="6.14194">
        <ele>1123.7</ele>
        <time>2024-02-03T16:10:29Z</time>
      </trkpt>
      <trkpt lat="46.54737" lon="6.14189">
        <ele>1123.4</ele>
        <time>2024-02-03T16:10:38Z</time>
      </trkpt>
      <trkpt lat="46.54728" lon="6.14197">
        <ele>1119.2</ele>
        <time>2024-02-03T16:10:47Z</time>
      </trkpt>
      <trkpt lat="46.5472" lon="6.14204">
        <ele>1116.3</ele>
        <time>2024-02-03T16:10:58Z</time>
      </trkpt>
      <trkpt lat="46.54714" lon="6.14214">
        <ele>1113.7</ele>
        <time>2024-02-03T16:11:08Z</time>
      </trkpt>
      <trkpt lat="46.54707" lon="6.14223">
        <ele>1111</ele>
        <time>2024-02-03T16:11:25Z</time>
      </trkpt>
      <trkpt lat="46.547" lon="6.14233">
        <ele>1107.8</ele>
        <time>2024-02-03T16:11:43Z</time>
      </trkpt>
      <trkpt lat="46.54692" lon="6.1424">
        <ele>1105.4</ele>
        <time>2024-02-03T16:11:58Z</time>
      </trkpt>
      <trkpt lat="46.54686" lon="6.1425">
        <ele>1102.8</ele>
        <time>2024-02-03T16:12:09Z</time>
      </trkpt>
      <trkpt lat="46.5468" lon="6.1426">
        <ele>1100.8</ele>
        <time>2024-02-03T16:12:20Z</time>
      </trkpt>
      <trkpt lat="46.54673" lon="6.1427">
        <ele>1099.1</ele>
        <time>2024-02-03T16:12:31Z</time>
      </trkpt>
      <trkpt lat="46.54669" lon="6.14282">
        <ele>1097.8</ele>
        <time>2024-02-03T16:12:41Z</time>
      </trkpt>
      <trkpt lat="46.54674" lon="6.14293">
        <ele>1097.4</ele>
        <time>2024-02-03T16:12:53Z</time>
      </trkpt>
      <trkpt lat="46.54682" lon="6.14302">
        <ele>1097.3</ele>
        <time>2024-02-03T16:13:02Z</time>
      </trkpt>
      <trkpt lat="46.54688" lon="6.14313">
        <ele>1096.5</ele>
        <time>2024-02-03T16:13:11Z</time>
      </trkpt>
      <trkpt lat="46.54695" lon="6.14322">
        <ele>1095.7</ele>
        <time>2024-02-03T16:13:19Z</time>
      </trkpt>
      <trkpt lat="46.54703" lon="6.14332">
        <ele>1095.1</ele>
        <time>2024-02-03T16:13:28Z</time>
      </trkpt>
      <trkpt lat="46.54711" lon="6.14338">
        <ele>1094.8</ele>
        <time>2024-02-03T16:13:36Z</time>
      </trkpt>
      <trkpt lat="46.5472" lon="6.14345">
        <ele>1094.4</ele>
        <time>2024-02-03T16:13:44Z</time>
      </trkpt>
      <trkpt lat="46.54728" lon="6.14351">
        <ele>1093</ele>
        <time>2024-02-03T16:13:51Z</time>
      </trkpt>
      <trkpt lat="46.54735" lon="6.1436">
        <ele>1091.2</ele>
        <time>2024-02-03T16:13:58Z</time>
      </trkpt>
      <trkpt lat="46.54743" lon="6.14369">
        <ele>1090.3</ele>
        <time>2024-02-03T16:14:06Z</time>
      </trkpt>
      <trkpt lat="46.54751" lon="6.14375">
        <ele>1090.6</ele>
        <time>2024-02-03T16:14:13Z</time>
      </trkpt>
      <trkpt lat="46.54757" lon="6.14385">
        <ele>1090.4</ele>
        <time>2024-02-03T16:14:20Z</time>
      </trkpt>
      <trkpt lat="46.54764" lon="6.14396">
        <ele>1089.5</ele>
        <time>2024-02-03T16:14:27Z</time>
      </trkpt>
      <trkpt lat="46.5477" lon="6.14407">
        <ele>1088.7</ele>
        <time>2024-02-03T16:14:34Z</time>
      </trkpt>
      <trkpt lat="46.54774" lon="6.14421">
        <ele>1088</ele>
        <time>2024-02-03T16:14:41Z</time>
      </trkpt>
      <trkpt lat="46.54781" lon="6.14431">
        <ele>1088.2</ele>
        <time>2024-02-03T16:14:48Z</time>
      </trkpt>
      <trkpt lat="46.54785" lon="6.14443">
        <ele>1087.6</ele>
        <time>2024-02-03T16:14:56Z</time>
      </trkpt>
      <trkpt lat="46.54791" lon="6.14455">
        <ele>1086.8</ele>
        <time>2024-02-03T16:15:03Z</time>
      </trkpt>
      <trkpt lat="46.54798" lon="6.14464">
        <ele>1086.6</ele>
        <time>2024-02-03T16:15:10Z</time>
      </trkpt>
      <trkpt lat="46.54804" lon="6.14475">
        <ele>1086.1</ele>
        <time>2024-02-03T16:15:19Z</time>
      </trkpt>
      <trkpt lat="46.54811" lon="6.14483">
        <ele>1085.1</ele>
        <time>2024-02-03T16:15:26Z</time>
      </trkpt>
      <trkpt lat="46.54819" lon="6.14491">
        <ele>1084.3</ele>
        <time>2024-02-03T16:15:33Z</time>
      </trkpt>
      <trkpt lat="46.54827" lon="6.14499">
        <ele>1083.5</ele>
        <time>2024-02-03T16:15:40Z</time>
      </trkpt>
      <trkpt lat="46.54835" lon="6.14505">
        <ele>1083.3</ele>
        <time>2024-02-03T16:15:47Z</time>
      </trkpt>
      <trkpt lat="46.54844" lon="6.1451">
        <ele>1083.1</ele>
        <time>2024-02-03T16:15:54Z</time>
      </trkpt>
      <trkpt lat="46.54852" lon="6.14517">
        <ele>1082.4</ele>
        <time>2024-02-03T16:16:01Z</time>
      </trkpt>
      <trkpt lat="46.54851" lon="6.14531">
        <ele>1080.2</ele>
        <time>2024-02-03T16:16:09Z</time>
      </trkpt>
    </trkseg>
  </trk>
</gpx>